[[{"header":{"parameterUnit":"m.s-1","parameterCategory":1,"la1":30.6,"la2":29.2853,"lo1":-89.7004,"lo2":-87.6739,"dy":0.0162,"dx":0.0183,"nx":112,"ny":82,"refTime":"2024-08-18T06:00:00:Z","depth":0,"parameterNumber":2,"parameterNumberName":"U-component_of_WINDS"},"data":[0.0,0.0,0.0,0.0,0.0,0.0,0.0,0.0,0.0,0.0,0.0,0.0,0.0,0.0,0.0,0.0,0.0,0.0,0.0,0.0,0.0,0.0,0.0,0.0,0.0,0.0,0.0,0.0,0.0,0.0,0.0,0.0,0.0,0.0,0.0,0.0,0.0,0.0,0.0,0.0,0.0,0.0,0.0,0.0,0.0,0.0,0.0,0.0,0.0,0.0,0.0,0.0,0.0,0.0,0.0,0.0,0.0,0.0,0.0,0.0,0.0,0.0,0.0,0.0,0.0,0.0,0.0,0.0,0.0,0.0,0.0,0.0,0.0,0.0,0.0,0.0,0.0,0.0,0.0,0.0,0.0,0.0,0.0,0.0,0.0,0.0,0.0,0.0,0.0,0.0,-1.4714,-1.6603,-2.5399,-3.0074,-2.7471,-2.6498,-2.4076,-1.9417,0.0,0.0,0.0,0.0,0.0,0.0,0.0,0.0,0.0,0.0,0.0,0.0,0.0,0.0,0.0,0.0,0.0,0.0,0.0,0.0,0.0,0.0,0.0,0.0,0.0,0.0,0.0,0.0,0.0,0.0,0.0,0.0,0.0,0.0,0.0,0.0,0.0,0.0,0.0,0.0,0.0,0.0,0.0,0.0,0.0,0.0,0.0,0.0,0.0,0.0,0.0,0.0,0.0,0.0,0.0,0.0,0.0,0.0,0.0,0.0,0.0,0.0,0.0,0.0,0.0,0.0,0.0,0.0,0.0,0.0,0.0,0.0,0.0,0.0,0.0,0.0,0.0,0.0,0.0,0.0,0.0,0.0,0.0,0.0,0.0,0.0,0.0,0.0,0.0,0.0,0.0,0.0,0.0,0.0,0.0,0.0,0.0,0.0,0.0,0.0,0.0,0.0,0.0,0.0,-2.1702,-2.6604,-2.7989,-2.7799,-2.5904,-2.4083,-2.221,-2.0211,0.0,0.0,0.0,0.0,0.0,0.0,0.0,0.0,0.0,0.0,0.0,0.0,0.0,0.0,0.0,0.0,0.0,0.0,0.0,0.0,0.0,0.0,0.0,0.0,0.0,0.0,0.0,0.0,0.0,0.0,0.0,0.0,0.0,0.0,0.0,0.0,0.0,0.0,0.0,0.0,0.0,0.0,0.0,0.0,0.0,0.0,0.0,0.0,0.0,0.0,0.0,0.0,0.0,0.0,0.0,0.0,0.0,0.0,0.0,0.0,0.0,0.0,0.0,0.0,0.0,0.0,0.0,0.0,0.0,0.0,0.0,0.0,0.0,0.0,0.0,0.0,0.0,0.0,0.0,0.0,0.0,0.0,0.0,0.0,0.0,0.0,0.0,0.0,0.0,0.0,0.0,0.0,0.0,0.0,0.0,0.0,0.0,0.0,0.0,0.0,0.0,0.0,0.0,-2.1018,-2.6339,-3.0525,-3.1239,-3.0561,-2.8396,-2.6968,-2.5104,-2.2523,-1.9478,0.0,0.0,0.0,0.0,0.0,0.0,0.0,0.0,0.0,0.0,0.0,0.0,0.0,0.0,0.0,0.0,0.0,0.0,0.0,0.0,0.0,0.0,0.0,0.0,0.0,0.0,0.0,0.0,0.0,0.0,0.0,0.0,0.0,0.0,0.0,0.0,0.0,0.0,0.0,0.0,0.0,0.0,0.0,0.0,0.0,0.0,0.0,0.0,0.0,0.0,0.0,0.0,0.0,0.0,0.0,0.0,0.0,0.0,0.0,0.0,0.0,0.0,0.0,0.0,0.0,0.0,0.0,0.0,0.0,0.0,0.0,0.0,0.0,0.0,0.0,0.0,0.0,0.0,0.0,0.0,0.0,0.0,0.0,0.0,0.0,0.0,0.0,0.0,0.0,0.0,0.0,0.0,0.0,0.0,0.0,0.0,0.0,0.0,0.0,0.0,0.0,0.0,-2.6669,-2.9364,-3.1203,-3.2485,-3.2147,-2.9482,-2.8405,-2.6654,-2.3823,-2.1266,0.0,0.0,0.0,0.0,0.0,0.0,0.0,0.0,0.0,0.0,0.0,0.0,0.0,0.0,0.0,0.0,0.0,0.0,0.0,0.0,0.0,0.0,0.0,0.0,0.0,0.0,0.0,0.0,0.0,0.0,0.0,0.0,0.0,0.0,0.0,0.0,0.0,0.0,0.0,0.0,0.0,0.0,0.0,0.0,0.0,0.0,0.0,0.0,0.0,0.0,0.0,0.0,0.0,0.0,0.0,0.0,0.0,0.0,0.0,0.0,0.0,0.0,0.0,0.0,0.0,0.0,0.0,0.0,0.0,0.0,0.0,0.0,0.0,0.0,0.0,0.0,0.0,0.0,0.0,0.0,0.0,0.0,0.0,0.0,0.0,0.0,0.0,0.0,0.0,0.0,0.0,0.0,0.0,0.0,0.0,0.0,0.0,0.0,0.0,0.0,0.0,0.0,-2.9218,-3.0592,-2.8948,-2.9529,-2.8752,-2.5561,-2.4123,-2.308,-2.2391,-2.0171,0.0,0.0,0.0,0.0,0.0,0.0,0.0,0.0,0.0,0.0,0.0,0.0,0.0,0.0,0.0,0.0,0.0,0.0,0.0,0.0,0.0,0.0,0.0,0.0,0.0,0.0,0.0,0.0,0.0,0.0,0.0,0.0,0.0,0.0,0.0,0.0,0.0,0.0,0.0,0.0,0.0,0.0,0.0,0.0,0.0,0.0,0.0,0.0,0.0,0.0,0.0,0.0,0.0,0.0,0.0,0.0,0.0,0.0,0.0,0.0,0.0,0.0,0.0,0.0,0.0,0.0,0.0,0.0,0.0,0.0,0.0,0.0,0.0,0.0,0.0,0.0,0.0,0.0,0.0,0.0,0.0,0.0,0.0,0.0,0.0,0.0,0.0,0.0,0.0,0.0,0.0,0.0,0.0,0.0,0.0,0.0,0.0,0.0,0.0,0.0,0.0,0.0,-2.7754,-2.9428,-3.0035,-3.0979,-3.0724,-2.8563,-2.7303,-2.5715,-2.3536,0.0,0.0,0.0,0.0,0.0,0.0,0.0,0.0,0.0,0.0,0.0,0.0,0.0,0.0,0.0,0.0,0.0,0.0,0.0,0.0,0.0,0.0,0.0,0.0,0.0,0.0,0.0,0.0,0.0,0.0,0.0,0.0,0.0,0.0,0.0,0.0,0.0,0.0,0.0,0.0,0.0,0.0,0.0,0.0,0.0,0.0,0.0,0.0,0.0,0.0,0.0,0.0,0.0,0.0,0.0,0.0,0.0,0.0,0.0,0.0,0.0,0.0,0.0,0.0,0.0,0.0,0.0,0.0,0.0,0.0,0.0,0.0,0.0,0.0,0.0,0.0,0.0,0.0,0.0,0.0,0.0,0.0,0.0,0.0,0.0,0.0,0.0,0.0,0.0,0.0,0.0,0.0,0.0,0.0,0.0,0.0,0.0,0.0,0.0,0.0,0.0,0.0,-2.4743,-2.6841,-2.8751,-3.0457,-3.1436,-3.1352,-2.9893,-2.8412,-2.625,-2.3179,0.0,0.0,0.0,0.0,0.0,0.0,0.0,0.0,0.0,0.0,0.0,0.0,0.0,0.0,0.0,0.0,0.0,0.0,0.0,0.0,0.0,0.0,0.0,0.0,0.0,0.0,0.0,0.0,0.0,0.0,0.0,0.0,0.0,0.0,0.0,0.0,0.0,0.0,0.0,0.0,0.0,0.0,0.0,0.0,0.0,0.0,0.0,0.0,0.0,0.0,0.0,0.0,0.0,0.0,0.0,0.0,0.0,0.0,0.0,0.0,0.0,0.0,0.0,0.0,0.0,0.0,0.0,0.0,0.0,0.0,0.0,0.0,0.0,0.0,0.0,0.0,0.0,0.0,0.0,0.0,0.0,0.0,0.0,0.0,0.0,0.0,0.0,0.0,0.0,0.0,0.0,0.0,0.0,0.0,0.0,0.0,0.0,0.0,0.0,0.0,0.0,0.0,-2.449,-2.7077,-2.8938,-2.9619,-3.0053,-2.972,-2.8295,-2.6038,-2.3534,0.0,0.0,0.0,0.0,0.0,0.0,0.0,0.0,0.0,0.0,0.0,0.0,0.0,0.0,0.0,0.0,0.0,0.0,0.0,0.0,0.0,0.0,0.0,0.0,0.0,0.0,0.0,0.0,0.0,0.0,0.0,0.0,0.0,0.0,0.0,0.0,0.0,0.0,0.0,0.0,0.0,0.0,0.0,0.0,0.0,0.0,0.0,0.0,0.0,0.0,0.0,0.0,0.0,0.0,0.0,0.0,0.0,0.0,0.0,0.0,0.0,0.0,0.0,0.0,0.0,0.0,0.0,0.0,0.0,0.0,0.0,0.0,0.0,0.0,0.0,0.0,0.0,0.0,0.0,0.0,0.0,0.0,0.0,0.0,0.0,0.0,0.0,0.0,0.0,0.0,0.0,0.0,0.0,0.0,0.0,0.0,0.0,0.0,0.0,0.0,0.0,0.0,0.0,-2.4222,-2.6303,-2.803,-2.9225,-2.9336,-2.8828,-2.7675,-2.6291,-2.4229,-2.1278,0.0,0.0,0.0,0.0,0.0,0.0,0.0,0.0,0.0,0.0,0.0,0.0,0.0,0.0,0.0,0.0,0.0,0.0,0.0,0.0,0.0,0.0,0.0,0.0,0.0,0.0,0.0,0.0,0.0,0.0,0.0,0.0,0.0,0.0,0.0,0.0,0.0,0.0,0.0,0.0,0.0,0.0,0.0,0.0,0.0,0.0,0.0,0.0,0.0,0.0,0.0,0.0,0.0,0.0,0.0,0.0,0.0,0.0,0.0,0.0,0.0,0.0,0.0,0.0,0.0,0.0,0.0,0.0,0.0,0.0,0.0,0.0,0.0,0.0,0.0,0.0,0.0,0.0,0.0,0.0,0.0,0.0,0.0,0.0,0.0,0.0,0.0,0.0,0.0,0.0,0.0,0.0,0.0,0.0,0.0,0.0,0.0,0.0,0.0,0.0,0.0,0.0,-2.3692,-2.5689,-2.7414,-2.8801,-2.8498,-2.7809,-2.691,-2.5567,-2.3659,-2.0993,0.0,0.0,0.0,0.0,0.0,0.0,0.0,0.0,0.0,0.0,0.0,0.0,0.0,0.0,0.0,0.0,0.0,0.0,0.0,0.0,0.0,0.0,0.0,0.0,0.0,0.0,0.0,0.0,0.0,0.0,0.0,0.0,0.0,0.0,0.0,0.0,0.0,0.0,0.0,0.0,0.0,0.0,0.0,0.0,0.0,0.0,0.0,0.0,0.0,0.0,0.0,0.0,0.0,0.0,0.0,0.0,0.0,0.0,0.0,0.0,0.0,0.0,0.0,0.0,0.0,0.0,0.0,0.0,0.0,0.0,0.0,0.0,0.0,0.0,0.0,0.0,0.0,0.0,0.0,0.0,0.0,0.0,0.0,0.0,0.0,0.0,0.0,0.0,0.0,0.0,0.0,0.0,0.0,0.0,0.0,0.0,0.0,0.0,0.0,0.0,0.0,0.0,-2.3159,-2.527,-2.7049,-2.8458,-2.7709,-2.6799,-2.6092,-2.4373,-2.2417,-2.028,0.0,0.0,0.0,0.0,0.0,0.0,0.0,0.0,0.0,0.0,0.0,0.0,0.0,0.0,0.0,0.0,0.0,0.0,0.0,0.0,0.0,0.0,0.0,0.0,0.0,0.0,0.0,0.0,0.0,0.0,0.0,0.0,0.0,0.0,0.0,0.0,0.0,0.0,0.0,0.0,0.0,0.0,0.0,0.0,0.0,0.0,0.0,0.0,0.0,0.0,0.0,0.0,0.0,0.0,0.0,0.0,0.0,0.0,0.0,0.0,-2.0602,0.0,0.0,0.0,0.0,0.0,0.0,0.0,0.0,0.0,0.0,0.0,0.0,0.0,0.0,0.0,0.0,0.0,0.0,0.0,0.0,0.0,0.0,0.0,0.0,0.0,0.0,0.0,0.0,0.0,0.0,0.0,0.0,0.0,0.0,0.0,0.0,0.0,0.0,0.0,0.0,0.0,-2.3394,-2.5336,-2.7004,-2.8603,-2.7752,-2.6673,-2.5648,-2.4261,-2.2558,-2.0482,-1.92,0.0,0.0,0.0,0.0,0.0,0.0,0.0,0.0,0.0,0.0,0.0,0.0,0.0,0.0,0.0,0.0,0.0,0.0,0.0,0.0,0.0,0.0,0.0,0.0,0.0,0.0,0.0,0.0,0.0,0.0,0.0,0.0,0.0,0.0,0.0,0.0,0.0,0.0,0.0,0.0,0.0,0.0,0.0,0.0,0.0,0.0,0.0,0.0,0.0,0.0,0.0,0.0,0.0,0.0,0.0,0.0,0.0,0.0,0.0,0.0,-2.2649,0.0,0.0,0.0,0.0,0.0,0.0,0.0,0.0,0.0,0.0,0.0,0.0,0.0,0.0,0.0,0.0,0.0,0.0,0.0,0.0,0.0,0.0,0.0,0.0,0.0,0.0,0.0,0.0,0.0,0.0,0.0,0.0,0.0,0.0,0.0,0.0,0.0,0.0,0.0,0.0,-2.3061,-2.4748,-2.609,-2.7162,-2.6536,-2.5725,-2.4944,-2.3532,-2.2216,-2.1151,-1.9709,0.0,0.0,0.0,0.0,0.0,0.0,0.0,0.0,0.0,0.0,0.0,0.0,0.0,0.0,0.0,0.0,0.0,0.0,0.0,0.0,0.0,0.0,0.0,0.0,0.0,0.0,0.0,0.0,0.0,0.0,0.0,0.0,0.0,0.0,0.0,0.0,0.0,0.0,0.0,0.0,0.0,0.0,0.0,0.0,0.0,0.0,0.0,0.0,0.0,0.0,0.0,0.0,0.0,-2.557,-2.5986,-2.662,-2.705,-2.7212,-2.7118,-2.6064,-2.5284,-2.4745,-2.4313,0.0,0.0,0.0,0.0,0.0,0.0,0.0,0.0,0.0,0.0,0.0,0.0,0.0,0.0,0.0,0.0,0.0,0.0,0.0,0.0,0.0,0.0,0.0,0.0,-2.5553,-2.5494,0.0,0.0,0.0,0.0,0.0,0.0,0.0,0.0,0.0,0.0,0.0,0.0,-2.2772,-2.4082,-2.5034,-2.5559,-2.5147,-2.4659,-2.4173,-2.2739,-2.182,-2.1661,-2.007,-1.9113,0.0,0.0,0.0,0.0,0.0,0.0,0.0,0.0,0.0,0.0,0.0,0.0,0.0,0.0,0.0,0.0,0.0,0.0,0.0,0.0,0.0,0.0,0.0,0.0,0.0,0.0,0.0,0.0,0.0,0.0,0.0,0.0,-1.7314,-1.8648,0.0,0.0,0.0,0.0,0.0,0.0,0.0,0.0,0.0,0.0,0.0,0.0,0.0,-2.5081,-2.5878,-2.6602,-2.7001,-2.7091,-2.7797,-2.8171,-2.8286,-2.8747,-2.8873,-2.8721,-2.9062,0.0,-2.6987,-2.6195,0.0,0.0,0.0,0.0,0.0,0.0,0.0,0.0,0.0,0.0,0.0,0.0,0.0,0.0,0.0,0.0,0.0,0.0,0.0,0.0,0.0,0.0,-2.7723,-2.7599,-2.7055,-2.6418,0.0,-2.4128,-2.2124,-2.0562,-2.0823,0.0,0.0,0.0,0.0,0.0,0.0,0.0,-2.3338,-2.4159,-2.4846,-2.562,-2.4999,-2.4277,-2.3568,-2.2671,-2.1803,-2.1087,-2.0702,-2.0321,-1.978,-1.891,0.0,0.0,0.0,0.0,0.0,0.0,0.0,0.0,0.0,0.0,0.0,0.0,0.0,0.0,0.0,0.0,0.0,0.0,0.0,0.0,0.0,0.0,0.0,0.0,0.0,0.0,0.0,0.0,0.0,-1.6606,-1.8917,-1.9902,-2.0151,-2.0136,0.0,0.0,0.0,0.0,0.0,0.0,0.0,0.0,0.0,-2.6837,-2.7423,-2.8069,-2.8884,-2.9279,-2.9461,-2.9427,-2.9983,-2.9942,-2.9454,-2.9791,-2.9723,-2.9355,-2.9662,-2.9441,-2.8787,-2.7975,-2.7195,-2.6467,0.0,0.0,0.0,0.0,-2.5628,-2.5658,-2.6704,-2.7041,0.0,-2.6977,0.0,0.0,0.0,0.0,0.0,0.0,0.0,0.0,0.0,0.0,-2.8825,-2.8774,-2.8722,-2.842,-2.7467,-2.6325,-2.4807,0.0,-2.2335,-2.2133,-2.0874,0.0,0.0,0.0,0.0,-2.2207,-2.3325,-2.3749,-2.3993,-2.4093,-2.3904,-2.3474,-2.2796,-2.2406,-2.1803,-2.0909,-2.0958,-2.0863,-2.048,-1.9963,-1.9313,0.0,0.0,0.0,0.0,0.0,0.0,0.0,0.0,0.0,0.0,0.0,0.0,0.0,0.0,0.0,0.0,0.0,0.0,0.0,0.0,0.0,0.0,0.0,0.0,0.0,0.0,0.0,0.0,-1.8291,-2.0242,-2.1097,-2.1956,-2.227,0.0,0.0,0.0,0.0,0.0,0.0,-2.5529,-2.6415,-2.7619,-2.9174,-2.9789,-3.0387,-3.0985,-3.1039,-3.1039,-3.0985,-3.1239,-3.1035,-3.043,-3.0691,-3.0478,-2.9927,-3.0037,-2.9993,-2.9867,-2.9334,-2.8617,-2.7902,-2.7988,-2.7489,-2.6841,-2.7601,-2.7613,-2.746,-2.8792,-2.9264,-2.9233,-2.8857,0.0,-2.6909,-2.5906,0.0,0.0,0.0,0.0,-2.6972,-2.848,-2.9309,-2.9726,-2.9659,-2.9825,-2.9652,-2.8459,-2.7606,-2.645,0.0,-2.391,-2.3472,-2.2402,0.0,0.0,0.0,0.0,-2.3066,-2.3419,-2.345,-2.3312,-2.2952,-2.3028,-2.279,-2.2051,-2.2153,-2.182,-2.0761,-2.0974,-2.1055,-2.0877,-2.0636,-2.028,-1.9761,0.0,0.0,0.0,0.0,0.0,0.0,0.0,0.0,0.0,0.0,0.0,0.0,0.0,0.0,0.0,0.0,0.0,0.0,0.0,0.0,0.0,0.0,0.0,0.0,0.0,0.0,0.0,0.0,0.0,-2.2692,-2.3796,0.0,0.0,0.0,0.0,-2.4059,-2.578,-2.7147,-2.7978,-2.9025,-2.9989,-3.084,-3.0912,-3.0948,-3.0985,-3.0985,-3.0985,-3.0985,-3.1012,-3.1136,-3.1342,-3.1561,-3.1355,-3.0847,-3.1031,-3.0665,-2.9905,-2.9934,-2.9483,-2.8741,-2.8798,-2.8375,-2.7742,-2.7794,-2.8347,-2.9062,-2.9098,-2.9178,-2.9418,-3.022,-2.933,-2.8097,-2.8897,-2.8004,0.0,0.0,-2.9392,-2.959,-3.0456,-3.0657,-3.0614,-3.0549,-2.9833,-2.9184,-2.9226,-2.7605,-2.6118,0.0,-2.5847,-2.5665,-2.5338,0.0,-2.4946,-2.4228,-2.3905,-2.3801,-2.3955,-2.358,-2.3188,-2.2935,-2.2927,-2.25,-2.1446,-2.2044,-2.1899,-2.0509,-2.0728,-2.0877,-2.0827,-2.063,-2.048,-2.0439,-1.8968,0.0,0.0,0.0,0.0,0.0,0.0,0.0,0.0,0.0,0.0,0.0,0.0,0.0,0.0,0.0,0.0,0.0,0.0,0.0,0.0,0.0,0.0,0.0,0.0,0.0,0.0,0.0,0.0,-2.352,-2.4572,0.0,-2.4288,-2.5673,-2.6658,-2.6712,-2.8488,-2.9719,-3.0008,-3.0867,-3.1473,-3.1763,-3.227,-3.2542,-3.2542,-3.2599,-3.2599,-3.2542,-3.2757,-3.2598,-3.2137,-3.2413,-3.2213,-3.1654,-3.1205,-3.0899,-3.0701,-3.02,-2.9817,-2.9497,-2.9525,-2.9383,-2.9165,-2.9262,-2.9493,-2.98,-2.985,-2.9921,-2.9988,-2.9825,-2.934,-2.8788,-2.8567,-2.8078,-2.7867,-2.9125,-2.9461,-2.9675,-3.0575,-3.0751,-3.0681,-3.0618,-2.99,-2.9236,-2.9216,-2.8063,-2.7158,-2.7675,-2.6726,-2.5911,-2.6165,-2.6374,-2.6154,-2.513,-2.504,-2.4819,-2.4094,-2.3671,-2.3294,-2.2958,-2.2859,-2.2517,-2.1675,-2.2175,-2.1986,-2.0811,-2.0893,-2.091,-2.0877,-2.0745,-2.0895,-2.1341,-2.0367,-1.9223,0.0,0.0,0.0,0.0,0.0,0.0,0.0,0.0,0.0,0.0,0.0,0.0,0.0,0.0,0.0,0.0,0.0,0.0,0.0,0.0,0.0,0.0,0.0,0.0,0.0,0.0,-2.3341,-2.3934,-2.5161,-2.5858,-2.5535,-2.7239,-2.8553,-2.8997,-3.0504,-3.1401,-3.1401,-3.2162,-3.2596,-3.2596,-3.3121,-3.3393,-3.3393,-3.3452,-3.3452,-3.3393,-3.3633,-3.346,-3.2955,-3.3185,-3.2934,-3.2337,-3.1616,-3.1205,-3.1013,-3.0265,-2.994,-2.9888,-2.9921,-2.9924,-2.9905,-3.0034,-3.0079,-3.0123,-3.0253,-3.0336,-3.0332,-2.9825,-2.9709,-2.964,-2.9049,-2.8883,-2.902,-2.9679,-2.987,-3.0013,-3.0636,-3.0778,-3.0721,-3.0618,-3.0156,-2.9726,-2.9651,-2.872,-2.8146,-2.8973,-2.7761,-2.673,-2.7113,-2.7324,-2.7065,-2.5919,-2.5986,-2.5857,-2.4899,-2.4599,-2.4356,-2.4034,-2.3839,-2.3342,-2.2429,-2.266,-2.2295,-2.0974,-2.0975,-2.091,-2.0745,-2.0695,-2.0909,-2.1479,-2.0837,-1.9939,-1.8829,0.0,0.0,0.0,0.0,0.0,0.0,0.0,0.0,0.0,0.0,0.0,0.0,0.0,0.0,0.0,0.0,0.0,0.0,0.0,0.0,0.0,0.0,0.0,-2.2144,-2.3161,-2.3902,-2.4017,-2.5648,-2.6892,-2.7279,-2.8438,-2.9591,-3.0722,-3.1668,-3.2234,-3.2234,-3.2977,-3.3393,-3.3393,-3.3393,-3.3393,-3.3393,-3.3393,-3.3393,-3.3393,-3.3393,-3.352,-3.3807,-3.3807,-3.3478,-3.2911,-3.2353,-3.1633,-3.079,-3.0182,-2.9926,-2.9924,-2.9972,-2.9956,-2.9924,-2.9972,-3.0034,-3.0109,-3.0253,-3.0355,-3.0386,-3.0398,-3.049,-3.0588,-3.0613,-3.0602,-3.0642,-3.0754,-3.0798,-3.0796,-3.0795,-3.0801,-3.0765,-3.0633,-3.0574,-3.0545,-3.0501,-2.9557,-2.896,-2.9832,-2.9042,-2.8258,-2.8315,-2.8258,-2.7806,-2.6631,-2.6782,0.0,-2.6374,-2.637,-2.6326,-2.6103,-2.5772,-2.4962,-2.3522,-2.3511,-2.2794,-2.1023,-2.0975,-2.0828,-2.0423,-2.0423,-2.0577,-2.0926,-2.0273,-1.9738,-1.9337,0.0,0.0,0.0,0.0,0.0,0.0,0.0,0.0,0.0,0.0,0.0,0.0,0.0,0.0,0.0,0.0,0.0,0.0,0.0,0.0,0.0,-2.1643,-2.2706,-2.3139,-2.3962,-2.4755,-2.5368,-2.6652,-2.7538,-2.7641,-2.9247,-3.0532,-3.1195,-3.205,-3.2714,-3.3038,-3.3284,-3.3393,-3.3393,-3.3393,-3.3393,-3.3393,-3.3393,-3.3393,-3.3393,-3.3393,-3.3452,-3.3538,-3.3698,-3.3705,-3.3508,-3.2924,-3.231,-3.169,-3.0866,-3.0281,-2.9888,-2.9924,-2.9924,-2.9888,-2.9924,-2.9956,-2.9969,-3.0109,-3.0166,-3.0202,-3.0352,-3.0409,-3.0471,-3.0578,-3.0597,-3.0621,-3.0711,-3.0724,-3.0746,-3.0859,-3.0847,-3.0785,-3.0686,-3.0147,-2.9811,-3.0376,-2.9557,-2.8965,-2.9893,-2.9564,-2.9137,-2.9097,-2.867,-2.8203,-2.7769,-2.7345,0.0,-2.6839,-2.6581,-2.6241,-2.5859,-2.5073,-2.4268,-2.3481,-2.2835,-2.2199,-2.137,-2.1134,-2.0893,-2.0626,-2.0677,-2.1007,-2.1688,-2.1094,-2.0509,0.0,0.0,0.0,0.0,0.0,0.0,0.0,0.0,0.0,0.0,0.0,0.0,0.0,0.0,0.0,0.0,0.0,0.0,0.0,0.0,0.0,0.0,-2.2922,-2.3941,-2.4389,-2.4925,-2.5442,-2.5924,-2.6945,-2.7765,-2.823,-2.9763,-3.1046,-3.1764,-3.2517,-3.3073,-3.3352,-3.3364,-3.3393,-3.3393,-3.3393,-3.3393,-3.3393,-3.3393,-3.3393,-3.3393,-3.3393,-3.3393,-3.3411,-3.3549,-3.3615,0.0,-3.2985,-3.2556,-3.2177,-3.1215,-3.0603,0.0,0.0,0.0,0.0,0.0,-2.9888,-2.9905,-2.9984,-3.0045,-3.0138,-3.0311,-3.0383,-3.0428,-3.0559,-3.0598,-3.0615,-3.0646,-3.0677,-3.0712,-3.0834,-3.0859,-3.0823,-3.0715,-3.0286,-2.9991,-3.0414,-2.9894,-2.9503,-3.0013,-2.9836,0.0,-2.9492,-2.9157,-2.8801,-2.8565,-2.8294,-2.8035,-2.7822,-2.7696,-2.7482,-2.7175,-2.62,-2.526,-2.4483,-2.3447,0.0,0.0,0.0,-2.1276,-2.1071,-2.1119,0.0,0.0,0.0,0.0,0.0,0.0,0.0,0.0,-2.3047,-2.3554,0.0,0.0,0.0,0.0,0.0,0.0,0.0,0.0,0.0,0.0,0.0,0.0,0.0,0.0,0.0,0.0,-2.3974,-2.521,-2.554,-2.5749,-2.5881,-2.5937,-2.6825,-2.7777,-2.8733,-3.0,-3.1185,-3.2196,-3.2752,-3.3122,-3.3232,0.0,0.0,0.0,0.0,-3.3411,-3.3411,-3.3411,-3.3393,-3.3393,-3.3393,-3.3393,-3.3393,-3.3393,-3.3393,-3.3357,-3.2849,-3.2554,-3.2405,-3.1306,-3.0787,-3.0602,-3.0105,-2.9888,-2.9888,-2.9888,-2.9888,-2.9888,-2.9888,0.0,0.0,-3.0253,-3.0336,-3.0417,-3.055,-3.0598,-3.0597,-3.061,-3.0645,-3.072,-3.0774,-3.0853,-3.0839,-3.0622,-3.0559,-3.052,-3.0412,-3.0274,-3.0164,-3.0128,-2.995,-2.9786,-2.9645,-2.9533,-2.9379,-2.9104,-2.9237,-2.9262,-2.9001,-2.916,-2.924,-2.9067,0.0,0.0,-2.5839,-2.4585,-2.3326,-2.2061,-2.1893,-2.1807,-2.1774,-2.1826,-2.2385,-2.3566,-2.3583,-2.4093,-2.5181,-2.5195,-2.5303,-2.5477,-2.4687,-2.5243,0.0,0.0,0.0,0.0,0.0,0.0,0.0,0.0,0.0,0.0,0.0,0.0,0.0,0.0,0.0,-2.3118,-2.495,-2.6186,-2.5659,-2.5696,-2.5738,-2.5738,-2.7087,-2.8097,-2.8345,-2.9659,-3.0813,-3.1452,-3.162,-3.1985,-3.2705,-3.2737,-3.2866,-3.3147,-3.3244,-3.3322,-3.3322,-3.3382,-3.3393,-3.3393,0.0,0.0,-3.3393,-3.3393,-3.3393,-3.3393,-3.3288,-3.2958,-3.2433,-3.1569,-3.0665,-2.9833,-2.9878,-2.9888,-2.9888,-2.9888,-2.9888,-2.9888,-2.9888,-2.9905,-2.9969,-3.0226,-3.0305,-3.0343,-3.049,-3.0559,0.0,-3.0607,-3.0646,-3.0726,-3.0785,-3.085,-3.0703,-2.9929,-2.9686,-2.964,-2.9627,-2.9458,-2.9521,-3.0143,-3.0052,-2.9905,-2.9918,-2.9223,-2.8839,-2.9399,-2.8931,-2.8763,-2.9378,-2.9368,-2.9178,-2.8814,-2.787,-2.6756,-2.5517,-2.4334,-2.3187,-2.2061,-2.2018,-2.2264,-2.2792,-2.322,-2.3809,-2.4589,-2.4648,-2.4833,-2.5125,-2.5633,-2.5915,-2.5974,-2.5895,-2.6138,0.0,0.0,0.0,0.0,0.0,0.0,0.0,0.0,0.0,0.0,0.0,-2.0167,-2.1485,0.0,-2.3943,-2.4247,-2.569,-2.6677,-2.631,-2.6212,-2.6102,-2.5749,-2.6814,-2.775,-2.8174,-2.942,-3.0499,-3.1145,-3.1414,-3.1733,-3.2179,-3.2248,-3.2369,-3.2553,-3.2802,-3.2948,-3.2948,-3.3135,-3.3256,-3.3256,-3.3256,-3.3256,-3.3256,-3.3256,-3.3256,-3.3256,-3.3256,-3.3081,-3.2718,-3.1636,-3.0691,-2.9878,-2.972,-2.9753,-2.9888,-2.9888,-2.9891,-2.9857,-2.9857,-2.9823,-2.9842,-3.0,-3.0118,-3.0221,-3.0309,-3.0449,-3.055,-3.0549,-3.0618,-3.07,-3.075,-3.0816,-3.0663,-2.9722,-2.9474,-2.9448,-2.9407,-2.9326,-2.9467,-3.0205,-3.0241,-3.0122,-3.0022,-2.9526,-2.9297,-2.9697,-2.9289,-2.912,-2.9589,-2.9472,-2.9246,-2.903,-2.8118,-2.7229,-2.6415,-2.4831,-2.3426,-2.2321,-2.235,-2.2718,-2.3425,-2.374,-2.442,-2.5523,-2.554,-2.5819,-2.6347,-2.6506,-2.6616,-2.674,-2.6678,-2.6722,0.0,0.0,0.0,0.0,0.0,0.0,0.0,-1.75,-1.8136,-2.065,-2.1207,-2.1705,-2.324,-2.4123,-2.4798,-2.5322,-2.6335,-2.7044,-2.7004,-2.6823,-2.6497,-2.5956,-2.6657,-2.7443,-2.8079,-2.9243,-3.0247,-3.0891,-3.1321,-3.1568,-3.1642,-3.1842,-3.1967,-3.2039,-3.2454,-3.2672,-3.2672,-3.2961,-3.3086,-3.3086,-3.3086,-3.3086,-3.3086,-3.3086,-3.3086,-3.3086,-3.3086,-3.3014,-3.2775,-3.1592,-3.0716,-3.0083,-2.9567,-2.9513,-2.9805,-2.9857,-2.9823,-2.9773,-2.9773,-2.9756,-2.9719,-2.9786,-2.9934,-3.0104,-3.0177,-3.034,-3.0499,-3.0479,-3.0585,-3.0678,-3.0691,-3.079,-3.0639,-2.9726,-2.9508,-2.9498,-2.9425,-2.9405,-2.9609,-3.0308,-3.0432,-3.0329,-3.0122,-3.0007,-2.9931,-2.9905,-2.9737,-2.9626,-2.9699,-2.9532,-2.9392,-2.9326,-2.8627,-2.7934,-2.7429,-2.5565,-2.399,-2.2944,-2.3141,-2.3557,-2.4105,-2.4344,-2.5126,-2.6474,-2.6407,-2.6779,-2.7587,-2.7279,-2.7215,-2.7404,-2.7201,-2.712,-1.2902,-1.3535,-1.4748,-1.6598,-1.671,-1.7332,0.0,-2.137,-2.1614,-2.3385,-2.3865,-2.402,-2.4234,-2.5203,-2.5927,-2.5706,-2.6826,-2.7595,-2.7386,-2.6961,-2.6668,-2.6587,-2.729,-2.7825,-2.7931,-2.9297,-3.0175,-3.03,-3.0468,-3.0699,-3.1083,-3.149,-3.1913,-3.2249,-3.2705,-3.2948,-3.2948,-3.3055,-3.3086,-3.3086,-3.3086,-3.3086,-3.3086,-3.3086,-3.3086,-3.3086,-3.3086,-3.2739,-3.2085,-3.1393,-3.0651,-2.9874,-2.9351,-2.9272,-2.9492,-2.9664,-2.9719,-2.9701,-2.9701,-2.972,-2.9719,-2.9786,-2.9934,-3.0104,-3.0188,-3.0348,-3.0499,-3.0428,-3.0511,-3.0618,-3.0685,-3.0711,-3.0528,-2.9773,-2.9531,-2.9508,-2.9484,-2.9445,-2.9652,-3.0503,-3.0527,-3.0392,-3.0356,-3.0202,-3.003,-2.9921,-2.9737,-2.9645,-2.9754,-2.9608,-2.9453,-2.9392,-2.9193,-2.8584,-2.7423,-2.6122,-2.5023,-2.4239,-2.4971,-2.5385,-2.5215,-2.6074,-2.6868,-2.7531,-2.7417,-2.7439,-2.7587,-2.7557,-2.7496,-2.7404,-2.7434,-2.7355,-1.374,-1.4967,-1.6161,-1.6797,-1.7455,-1.8512,-2.0386,-2.0948,-2.1539,-2.3224,-2.3936,-2.4303,-2.4657,-2.5497,-2.6087,-2.5966,-2.6965,-2.7685,-2.7612,-2.7186,-2.6942,-2.7097,-2.7404,-2.7705,-2.7867,-2.8486,-2.9246,-3.0123,-3.0231,-3.0359,-3.0551,-3.074,-3.0925,-3.1201,-3.1603,-3.1842,-3.1878,-3.2403,-3.2621,-3.2654,-3.2866,-3.2961,-3.2961,-3.2961,-3.2961,-3.2961,-3.2961,-3.28,-3.2437,-3.1247,-3.0538,-3.0152,-2.9148,-2.8803,-2.8938,-2.9372,-2.955,-2.9589,-2.9589,-2.9569,-2.953,-2.9551,-2.9681,-2.9836,-2.9981,-3.0142,-3.0292,-3.0371,-3.0471,-3.0548,-3.0582,-3.0646,-3.0486,-2.9682,-2.9515,-2.9549,-2.9511,-2.9476,-2.9706,-3.055,-3.0632,-3.0557,-3.0462,-3.0359,-3.0234,-3.0155,-2.9937,-2.9823,-2.9959,-2.9753,-2.9551,-2.9412,-2.9351,-2.883,-2.7634,-2.7118,-2.6369,-2.5276,-2.5693,-2.6056,-2.6206,-2.6665,-2.7181,-2.7742,-2.7672,-2.7689,-2.7824,-2.7719,-2.763,-2.7569,-2.76,-2.7509,-1.4778,-1.6115,-1.7051,-1.7253,-1.8296,-1.9451,-2.0395,-2.0941,-2.1716,-2.3091,-2.3744,-2.4244,-2.4695,-2.5236,-2.5749,-2.6079,-2.6908,-2.7618,-2.7913,-2.7425,-2.7169,-2.7535,-2.7326,-2.7297,-2.7865,-2.8257,-2.8893,-3.0038,-3.0146,-3.0146,-3.0146,-3.0274,-3.0426,-3.051,-3.0885,-3.1106,-3.1184,-3.175,-3.2056,-3.2056,-3.2454,-3.2621,-3.2639,-3.2705,-3.2737,-3.2737,-3.2737,-3.2737,-3.2631,-3.1249,-3.0587,-3.0327,-2.9086,-2.8533,-2.8492,-2.8879,-2.9166,-2.9392,-2.9451,-2.9429,-2.9386,-2.9386,-2.9472,-2.9589,-2.975,-2.9931,-3.0128,-3.0241,-3.0364,-3.0384,-3.0163,-3.0199,-3.0139,-2.9543,-2.9499,-2.9626,-2.9818,-2.9863,-3.0025,-3.0618,-3.0735,-3.0678,-3.0554,-3.049,-3.0434,-3.0337,-3.0171,-3.008,-3.0102,-2.9905,-2.9734,-2.9589,-2.9514,-2.9136,-2.8299,-2.8202,-2.768,-2.6447,-2.6663,-2.6873,-2.6942,-2.7166,-2.7504,-2.7961,-2.7864,-2.7864,-2.8053,-2.7922,-2.7847,-2.7771,-2.7818,-2.7719,-1.574,-1.6279,-1.6859,-1.8656,-1.9433,-2.0289,-2.2177,-2.2846,-2.3224,-2.3949,-2.4103,-2.4118,-2.4132,-2.4383,-2.4982,-2.6041,-2.6717,-2.7471,-2.8544,-2.7711,-2.7257,-2.7968,-2.7057,-2.678,-2.7901,-2.9095,-2.987,-2.9902,-2.9989,-3.0017,-3.0017,-3.0493,-3.0788,-3.0804,-3.1167,-3.1397,-3.1397,-3.1435,-3.1435,-3.1435,-3.1768,-3.193,-3.193,-3.2214,-3.2318,-3.2318,-3.2318,-3.2318,-3.2265,-3.151,-3.0821,-3.0203,-2.9268,-2.867,-2.8282,-2.811,-2.8507,-2.9152,-2.9344,-2.9365,-2.9323,-2.9386,-2.9453,-2.9514,-2.9514,-2.9801,-3.0075,-3.0041,-3.0161,-3.0138,-2.9359,-2.9197,-2.927,-2.9388,-2.9445,-2.9732,-3.0579,-3.0767,-3.076,-3.08,-3.0808,-3.0747,-3.0625,-3.0593,-3.0559,-3.0414,-3.0443,-3.0385,-3.0142,-3.003,-2.9988,-2.998,-2.9823,-2.9655,-2.9568,-2.936,-2.8841,-2.7899,-2.8379,-2.8324,-2.7423,-2.7939,-2.8309,-2.838,-2.8109,-2.8053,-2.8201,-2.8255,-2.8183,-2.7982,-2.8128,-2.8035,-1.5114,-1.6238,-1.7361,-1.8097,-1.9095,-2.0115,-2.0742,-2.1448,-2.2021,-2.2275,-2.2317,-2.2428,-2.2575,-2.3042,-2.3703,-2.464,-2.5537,-2.647,-2.7475,-2.7155,-2.7057,-2.7732,-2.7476,-2.7454,-2.7939,-2.8535,0.0,-2.938,-2.9576,-2.9649,-2.9649,-3.0,-3.0215,-3.0258,-3.041,-3.0518,-3.0601,-3.0868,-3.0988,-3.1027,-3.162,-3.1894,-3.1894,-3.2179,-3.2283,-3.2283,-3.2283,-3.2283,-3.2231,-3.1494,-3.0756,-3.0011,-2.9224,-2.8493,-2.7904,-2.7971,-2.8147,-2.8412,-2.8808,-2.9075,-2.924,-2.9262,-2.9267,-2.9332,-2.9398,-2.9533,-2.9696,-2.9946,-3.0056,-2.9937,-2.9217,-2.9088,-2.9158,-2.9303,-2.9389,-2.9683,-3.0595,-3.0777,-3.0753,-3.0799,-3.0795,-3.0785,-3.0739,-3.0735,-3.0714,-3.0672,-3.0543,-3.0404,-3.0302,-3.0253,-3.0184,-3.0136,-3.0117,-3.0028,-2.988,-2.9763,-2.9494,-2.8983,-2.9055,-2.8915,-2.8432,-2.8597,-2.8619,-2.8484,-2.8432,-2.8406,-2.8388,-2.8518,-2.8518,-2.8404,-2.8344,-2.8183,-1.517,-1.6474,-1.7699,-1.8083,-1.9086,-2.0042,-2.0105,-2.0809,-2.1355,-2.1138,-2.1159,-2.1124,-2.106,-2.1569,-2.2418,-2.3632,-2.4575,-2.5623,-2.6909,-2.6862,-2.6937,-2.7673,-2.7938,-2.8171,-2.8451,-2.8714,0.0,-2.9106,-2.9259,-2.935,-2.935,-2.9531,-2.9621,-2.9665,-2.9754,-2.9886,-2.9973,-3.0284,-3.0535,-3.0642,-3.1106,-3.1376,-3.1507,-3.1804,-3.1949,-3.1949,-3.2038,-3.2073,-3.2056,-3.1289,-3.0505,-2.9769,-2.9004,-2.8219,-2.7522,-2.7624,-2.7695,-2.7851,-2.8384,-2.8761,-2.898,-2.8984,-2.9048,-2.9156,-2.9191,-2.9277,-2.9418,-2.9713,-2.9832,-2.968,-2.8752,-2.8759,-2.8967,-2.8782,-2.9046,-2.9581,-3.0495,-3.0706,-3.0712,-3.0755,-3.0779,-3.0797,-3.0769,-3.0778,-3.0808,-3.0833,-3.0671,-3.0543,-3.0535,-3.0463,-3.0392,-3.0381,-3.0378,-3.0321,-3.015,-3.0066,-2.988,-2.9608,-2.9492,-2.9307,-2.9044,-2.8998,-2.8881,-2.8644,-2.8637,-2.8637,-2.8612,-2.8694,-2.8743,-2.8743,-2.8543,-2.837,-1.5908,-1.6934,-1.7763,-1.8519,-1.9344,-2.0003,-2.0258,-2.0845,-2.1172,-2.065,-2.0533,-2.0316,-1.9758,-2.0114,-2.1153,-2.3003,-2.3847,-2.4908,-2.685,-2.6887,-2.7063,-2.7855,-2.8409,-2.8962,-2.9396,-2.9673,0.0,-2.9202,0.0,-2.9154,-2.9186,-2.9186,-2.9186,-2.9186,-2.9414,-2.9534,-2.9534,-2.9742,-2.9973,-3.0267,-3.0267,-3.0418,-3.0747,-3.1083,-3.1257,-3.1257,-3.1466,-3.1617,-3.1694,-3.0827,-3.0126,-2.9488,-2.8629,-2.7855,-2.7181,-2.704,-2.7166,-2.747,-2.8012,-2.8386,-2.8583,-2.8572,-2.8755,-2.8994,-2.8905,-2.9075,-2.9293,-2.9378,-2.9514,-2.9355,-2.8013,-2.826,-2.8679,-2.7941,-2.8497,-2.9438,-3.0306,-3.0607,-3.0704,-3.0695,-3.0743,-3.0784,-3.0723,-3.0755,-3.0813,-3.0892,-3.0833,-3.0798,-3.0804,-3.0697,-3.0626,-3.0691,-3.0591,-3.0482,-3.0409,-3.0292,-3.0099,-2.9834,-2.968,-2.9532,-2.9326,-2.9178,-2.9044,-2.8929,-2.8791,-2.8761,-2.8828,-2.8815,-2.8905,-2.8994,-2.8687,-2.8569,-1.5892,-1.6699,-1.7368,-1.7545,-1.8441,-1.9291,-1.9356,-1.9799,-2.0162,-2.0017,-1.935,-1.8747,-1.8719,-1.9216,-2.0125,-2.165,-2.2774,-2.4455,-2.7181,-2.7471,-2.804,-2.9556,-2.9787,-2.9899,-3.0151,-3.0099,0.0,0.0,-2.979,-2.9859,-3.0344,-3.0492,-3.059,-3.059,-3.018,-2.9958,-2.9958,-2.9513,-2.935,-2.9425,-2.9645,-2.9848,-2.9935,-3.026,-3.0427,-3.0427,-3.0828,-3.1004,-3.1033,-3.0588,-2.9983,-2.9248,-2.8425,-2.769,-2.704,-2.7007,-2.7023,-2.7103,-2.7276,-2.7794,-2.8368,-2.8376,-2.8608,-2.8834,-2.8834,-2.8863,-2.8962,-2.9126,-2.9214,-2.9096,-2.8435,-2.8439,-2.8613,-2.8651,-2.8871,-2.9325,-3.0297,-3.0574,-3.0645,-3.0685,-3.0714,-3.0732,-3.0776,-3.0781,-3.0801,-3.082,-3.0813,-3.0791,-3.0804,-3.0769,-3.0739,-3.0695,-3.0672,-3.0587,-3.0491,-3.04,-3.026,-3.0052,-2.9848,-2.968,-2.9532,-2.9353,-2.9206,-2.9134,-2.9089,-2.9067,-2.9021,-2.9112,-2.9152,-2.9085,-2.8839,-2.8718,-1.5912,-1.6666,-1.719,-1.719,-1.7843,-1.8436,-1.8266,-1.8794,-1.9198,-1.8746,-1.8338,-1.8066,-1.7919,-1.8442,-1.9346,-2.0685,-2.197,-2.3681,-2.6145,-2.7135,-2.8061,-2.9322,-3.0114,-3.0594,-3.0662,-3.0594,-3.0716,0.0,-3.0464,-3.0231,-3.0587,-3.074,-3.0651,-3.0339,-3.0112,-2.9863,-2.9643,-2.9264,-2.9075,-2.9075,-2.9273,-2.9393,-2.9393,-2.9717,-2.9876,-2.9919,0.0,-3.0261,-3.0035,-2.9686,-2.9073,-2.8349,-2.7811,-2.7266,-2.6859,-2.6842,-2.6809,-2.6809,-2.6809,-2.7227,-2.7805,-2.802,-2.8281,-2.8551,-2.8644,-2.8687,-2.8743,-2.8883,-2.8911,-2.8839,-2.8428,-2.8595,-2.8874,-2.8761,-2.9055,-2.9535,-3.0186,-3.037,-3.0462,-3.0626,-3.0658,-3.0675,-3.0719,-3.0743,-3.0751,-3.0767,-3.08,-3.0835,-3.0834,-3.0813,-3.0786,-3.0743,-3.0716,-3.0671,-3.0583,-3.0528,-3.0402,-3.0241,-3.0066,-2.9915,-2.9784,-2.957,-2.9435,-2.9373,-2.931,-2.9246,-2.9181,-2.9286,-2.9304,-2.9175,-2.8962,-2.8845,-1.5857,-1.6556,-1.7078,-1.7078,-1.7468,-1.7718,-1.7262,-1.7894,-1.8313,-1.7376,-1.76,-1.7783,-1.7248,-1.781,-1.8791,-2.0047,-2.1377,-2.2931,-2.5119,-2.6665,-2.7891,-2.8669,-3.006,-3.0951,-3.1006,-3.088,-3.1136,-3.1823,-3.0936,-3.0394,-3.0446,-3.0499,-3.0145,-2.9392,-2.9562,-2.9481,-2.8951,-2.8936,-2.8936,-2.8936,-2.8936,-2.8936,-2.8982,-2.9257,-2.9406,-2.9406,-2.9657,0.0,-2.8862,-2.8454,-2.786,-2.7205,-2.6875,-2.6674,-2.659,-2.6606,-2.6589,-2.6589,-2.6589,-2.6759,-2.7103,-2.7552,-2.7926,-2.8201,-2.837,-2.8492,-2.8587,-2.8646,-2.867,-2.8584,-2.8301,-2.8775,-2.9226,-2.8708,-2.9207,-2.9853,-3.003,-3.0122,-3.0278,-3.0539,-3.0582,-3.0583,-3.0601,-3.0657,-3.0707,-3.0693,-3.0804,-3.0896,-3.0895,-3.0834,-3.0813,-3.0799,-3.0746,-3.0715,-3.0703,-3.0658,-3.0563,-3.0422,-3.0297,-3.0182,-3.0032,-2.9851,-2.9716,-2.9644,-2.9532,-2.9434,-2.9355,-2.9434,-2.9392,-2.9304,-2.906,-2.8989,-1.5457,-1.5945,-1.6343,-1.6477,-1.7022,-1.7368,-1.6868,-1.7357,-1.7724,-1.7131,-1.7106,-1.7161,-1.7057,-1.7652,-1.8713,-2.0329,-2.1169,-2.3004,-2.6933,-2.7712,-2.8784,-3.1072,-3.1025,-3.0895,-3.0997,-3.0395,0.0,0.0,-3.052,-3.0328,-3.0882,-3.0882,-3.032,-2.9103,-2.9109,-2.8839,-2.8217,-2.8201,-2.8201,-2.8201,-2.8201,-2.8201,-2.8201,-2.8235,-2.8268,-2.8317,-2.8732,0.0,-2.7908,-2.7624,-2.7082,-2.6451,-2.6131,-2.5977,-2.6013,-2.6399,-2.652,-2.652,-2.652,-2.6554,-2.6674,-2.7103,-2.7577,-2.8037,-2.801,-2.821,-2.8432,-2.8458,-2.844,-2.8515,-2.8764,-2.895,-2.9151,-2.942,-2.9624,-2.9823,-2.9834,-3.0052,-3.0253,-3.049,-3.051,-3.053,-3.0599,-3.0665,-3.0703,-3.0697,-3.0778,-3.0825,-3.082,-3.0852,-3.0859,-3.082,-3.0793,-3.078,-3.0788,-3.0716,-3.0652,-3.0564,-3.0434,-3.0317,-3.0259,-3.0056,-2.9927,-2.9848,-2.9784,-2.9716,-2.9718,-2.979,-2.9664,-2.9372,-2.9394,-2.927,-1.4935,-1.5375,-1.5711,-1.5899,-1.6158,-1.6286,-1.5882,-1.6305,-1.6657,-1.619,-1.6554,-1.696,-1.696,-1.748,-1.817,-1.9079,-1.9937,-2.1587,-2.4641,-2.5896,-2.7456,-2.9959,-3.0513,-3.0644,-3.0748,-3.0389,-3.0194,-3.024,-2.9892,-3.0134,-3.0955,-3.0342,-2.9501,-2.8562,-2.8505,-2.8173,-2.7524,-2.784,-2.802,-2.802,-2.802,-2.802,-2.802,-2.802,-2.802,-2.8005,-2.822,0.0,-2.681,-2.6898,-2.634,-2.5425,-2.548,-2.5631,-2.5815,-2.5994,-2.6206,-2.6399,-2.6345,-2.6345,-2.638,-2.6504,-2.6937,-2.747,-2.7666,-2.7876,-2.7989,-2.8164,-2.8136,-2.8128,-2.8533,-2.8682,-2.8808,-2.9104,-2.9397,-2.9607,-2.9732,-2.9927,-3.0169,-3.0367,-3.041,-3.0402,-3.0439,-3.0492,-3.0546,-3.0546,-3.0594,-3.0642,-3.0639,-3.0675,-3.0712,-3.0798,-3.08,-3.08,-3.0792,-3.0771,-3.072,-3.0661,-3.06,-3.0532,-3.0452,-3.0301,-3.0183,-3.0112,-3.0018,-2.9962,-2.995,-3.0,-2.9886,-2.9662,-2.9626,-2.9513,-1.4258,-1.4754,-1.5285,-1.5395,-1.544,-1.5318,-1.5038,-1.5311,-1.5588,-1.5325,-1.6032,-1.6748,-1.6846,-1.7247,-1.7663,-1.7983,-1.8921,-2.0315,-2.2377,-2.4117,-2.6054,-2.8302,-2.9397,-2.995,-2.995,-2.9827,0.0,-2.9192,-2.908,-2.9383,-3.0201,-2.9124,-2.8234,-2.7594,-2.7675,-2.7473,-2.7019,-2.7473,-2.7806,-2.7905,-2.7905,-2.7905,-2.7855,-2.7855,-2.7855,-2.7855,-2.7855,0.0,0.0,-2.6214,-2.5592,-2.4539,-2.4815,-2.5105,-2.5389,-2.5443,-2.5684,-2.5941,-2.599,-2.597,-2.599,-2.599,-2.6367,-2.6872,-2.7241,-2.7382,-2.7504,-2.776,-2.773,-2.7713,-2.8146,-2.8309,-2.843,-2.8652,-2.9023,-2.9378,-2.957,-2.9782,-2.9962,-3.018,-3.0253,-3.0266,-3.0279,-3.0321,-3.0381,-3.0381,-3.0434,-3.0468,-3.049,-3.0452,-3.0498,-3.0657,-3.0707,-3.074,-3.076,-3.0742,-3.0739,-3.0696,-3.068,-3.0652,-3.0619,-3.0525,-3.0423,-3.0374,-3.0251,-3.0196,-3.0196,-3.0171,-3.0109,-2.9965,-2.9832,-2.9715,-1.3166,-1.4024,-1.5064,-1.5285,-1.534,-1.5219,-1.4879,-1.4868,-1.4919,-1.5062,-1.5635,-1.6219,-1.6633,-1.6842,-1.7342,-1.8357,-1.9037,-2.0395,-2.3258,-2.4721,-2.6167,-2.8014,-2.8266,-2.8247,-2.8247,-2.7696,-2.7577,-2.8117,-2.7673,-2.751,-2.772,-2.7204,-2.6597,-2.5867,-2.6486,-2.6788,-2.6721,-2.6788,-2.71,-2.7625,-2.7625,-2.759,-2.7452,-2.7452,-2.7386,-2.7284,-2.7284,0.0,0.0,-2.5538,-2.4919,-2.4207,-2.4079,-2.4032,-2.4131,-2.4542,-2.4744,-2.4823,-2.5192,-2.5307,-2.5346,-2.577,-2.6191,-2.6539,-2.6539,-2.6724,-2.7034,-2.7303,-2.7365,-2.7439,-2.7897,-2.8055,-2.8174,-2.8603,-2.892,-2.9181,-2.9318,-2.9495,-2.9697,-2.9896,-3.009,-3.0213,-3.0207,-3.0267,-3.0297,-3.0297,-3.0372,-3.0405,-3.0414,-3.0286,-3.0227,-3.0239,-3.041,-3.0547,-3.0607,-3.055,-3.0579,-3.0697,-3.0643,-3.0624,-3.069,-3.0673,-3.0643,-3.0562,-3.0502,-3.047,-3.0452,-3.0404,-3.0302,-3.0169,-3.0095,-2.9958,-1.274,-1.3503,-1.4188,-1.467,-1.473,-1.468,-1.4679,-1.4518,-1.4439,-1.4903,-1.54,-1.5932,-1.6479,-1.662,-1.6946,-1.7811,-1.8129,-1.9028,-2.1303,-2.2335,-2.3794,-2.6261,-2.6835,-2.7213,-2.7919,0.0,-2.7564,-2.7377,-2.6553,-2.6069,-2.5994,-2.5933,-2.5618,-2.4951,-2.5563,-2.5728,-2.5398,-2.5728,-2.6054,-2.6269,-2.6654,-2.6774,-2.6736,-2.7115,-2.7233,-2.7181,-2.7181,0.0,0.0,-2.5486,-2.4808,-2.4174,-2.3732,-2.3681,-2.3921,-2.4131,-2.4379,-2.4623,-2.4688,-2.4728,-2.4768,-2.5192,-2.5313,-2.547,-2.6101,-2.6383,-2.6539,-2.6841,-2.6939,-2.6987,-2.7269,-2.75,-2.7794,-2.8332,-2.8547,-2.8718,-2.9107,-2.9235,-2.9358,-2.957,-2.9732,-2.9836,-2.9853,-2.9934,-3.0,-3.0,-3.0022,-3.0013,-2.998,-2.9931,-2.9886,-2.9908,-3.0113,-3.0288,-3.0355,-3.0361,-3.0423,-3.0514,-3.0486,-3.0505,-3.0575,-3.0584,-3.0604,-3.066,-3.0626,-3.0619,-3.0617,-3.06,-3.0528,-3.0432,-3.0325,-3.0225,-1.2143,-1.296,-1.3769,-1.4188,-1.4257,-1.4301,-1.448,-1.4083,-1.3894,-1.4536,-1.4994,-1.5497,-1.6061,-1.643,-1.6843,-1.7306,-1.7702,-1.8434,-1.9889,-2.0756,-2.2018,-2.4308,-2.5017,-2.5831,-2.6922,-2.7184,-2.7037,-2.6553,-2.5432,-2.4747,-2.462,-2.4583,-2.4452,-2.4176,-2.4794,-2.4951,-2.4509,-2.4894,-2.5231,-2.5398,-2.5837,-2.6014,-2.6014,-2.6404,-2.6563,-2.6563,-2.6736,0.0,0.0,-2.5292,-2.4743,-2.4036,-2.3451,-2.3348,-2.3595,-2.3551,-2.3767,-2.4048,-2.4059,-2.4059,-2.4101,-2.4486,-2.4583,-2.4648,-2.5329,-2.5663,-2.5901,-2.6227,-2.647,-2.6657,-2.6873,-2.7178,-2.753,-2.8057,-2.8219,-2.8402,-2.8879,-2.9016,-2.9104,-2.9237,-2.9378,-2.9475,-2.9476,-2.9589,-2.9682,-2.9682,-2.9719,-2.9718,-2.9682,-2.9626,-2.9589,-2.9589,-2.9725,-2.9894,-3.0043,-3.0087,-3.0129,-3.0259,-3.023,-3.0269,-3.0367,-3.0397,-3.047,-3.0613,-3.0624,-3.0662,-3.0694,-3.0706,-3.0664,-3.0594,-3.0496,-3.0421,-1.1072,-1.2471,-1.4034,-1.4077,-1.4077,-1.4131,-1.4247,-1.369,-1.3258,-1.3884,-1.4329,-1.4735,-1.5222,-1.6296,-1.7096,-1.7096,-1.8167,-1.9196,-1.9723,-2.0765,-2.1694,-2.2259,-2.2824,-2.359,-2.472,-2.5178,-2.5423,-2.5423,-2.4233,0.0,-2.3501,-2.3047,-2.2921,-2.3403,-2.4118,-2.4509,-2.4509,-2.4509,-2.4794,-2.5398,-2.5398,-2.5342,-2.5231,-2.5231,-2.5119,-2.5077,0.0,0.0,0.0,-2.4926,-2.45,-2.3833,-2.3194,-2.2902,-2.2888,-2.2841,-2.2795,-2.2886,-2.3113,-2.3216,-2.3304,-2.3752,-2.4116,-2.4348,-2.4032,-2.4436,-2.5084,-2.5346,-2.5888,-2.6504,-2.6909,-2.7213,-2.7487,-2.7823,-2.8047,-2.8308,-2.8626,-2.8863,-2.8984,-2.8993,-2.9104,-2.9212,-2.9198,-2.9316,-2.9412,-2.9412,-2.9511,-2.9607,-2.9607,-2.9433,-2.9293,-2.9293,-2.9246,-2.9353,-2.9678,-2.9644,-2.9693,-2.9899,-2.9844,-2.9913,-3.0102,-3.0169,-3.0279,-3.0409,-3.0461,-3.0572,-3.0696,-3.07,-3.066,-3.0596,-3.0607,-3.0568,-1.1071,-1.1879,-1.2558,-1.3365,-1.3546,-1.3597,-1.3701,-1.3331,-1.3193,-1.408,-1.4345,-1.4744,-1.5615,-1.6103,-1.6745,-1.7861,-1.8394,-1.9141,-2.0434,-2.1243,-2.2046,-2.2985,-2.4221,-2.4999,0.0,0.0,-2.5006,-2.4703,-2.3959,-2.3489,-2.3489,-2.2973,-2.2739,-2.2921,-2.315,-2.3258,-2.3258,-2.3258,-2.3378,-2.3531,-2.3975,-2.415,-2.415,-2.454,-2.4697,0.0,0.0,0.0,0.0,-2.374,-2.3464,-2.3539,-2.253,-2.237,-2.2706,-2.2661,-2.2675,-2.2675,-2.2783,-2.2768,-2.2859,-2.326,-2.3391,-2.3391,-2.3391,-2.4173,-2.5045,-2.5192,-2.5594,-2.6049,-2.6332,-2.6641,-2.7004,-2.7289,-2.7595,-2.784,-2.8093,-2.8396,-2.8594,-2.8594,-2.87,-2.8797,-2.8779,-2.8897,-2.903,-2.9097,-2.916,-2.9225,-2.9307,-2.9286,-2.9225,-2.9225,-2.9178,-2.9203,-2.9416,-2.9415,-2.9456,-2.9625,-2.9607,-2.9712,-2.9956,-3.0021,-3.0163,-3.0405,-3.0474,-3.0535,-3.0633,-3.0628,-3.0635,-3.0663,-3.0679,-3.0651,-1.0368,-1.1292,-1.1986,-1.2702,-1.3138,-1.3301,-1.3404,-1.325,-1.3283,-1.3922,-1.4338,-1.4759,-1.5416,-1.5923,-1.6503,-1.7598,-1.819,-1.8927,-2.0185,-2.1019,-2.1881,-2.3034,-2.4423,0.0,0.0,-2.4602,-2.4438,-2.39,-2.3362,-2.2994,-2.2994,-2.2677,-2.2494,-2.2494,-2.2616,-2.269,-2.269,-2.269,-2.269,-2.269,-2.3078,-2.3245,-2.3245,-2.3636,-2.38,0.0,0.0,0.0,0.0,-2.3241,-2.295,-2.279,-2.2317,-2.2048,-2.203,-2.2417,-2.2417,-2.2231,-2.2278,-2.2324,-2.231,-2.2466,-2.242,-2.2434,-2.2815,-2.3565,-2.4379,-2.4632,-2.4989,-2.5427,-2.5672,-2.6052,-2.6419,-2.6707,-2.7066,-2.7457,-2.7811,-2.8055,-2.8228,-2.83,-2.838,-2.838,-2.8309,-2.85,-2.8718,-2.8791,-2.8677,-2.8717,-2.9119,-2.8854,-2.8758,-2.9052,-2.9021,-2.9021,-2.9097,-2.9163,-2.9206,-2.931,-2.933,-2.9434,-2.9625,-2.978,-2.995,-3.0164,-3.0309,-3.0433,-3.051,-3.0583,-3.0628,-3.0704,-3.0721,-3.0736,0.0,-1.061,-1.2044,-1.2201,-1.273,-1.3263,-1.3292,-1.3404,0.0,-1.3584,-1.4228,-1.4805,-1.4863,-1.5725,-1.6457,-1.6576,-1.7645,-1.8655,-1.9223,-2.028,-2.1482,-2.2555,-2.353,-2.3986,-2.3536,-2.3685,-2.3668,-2.3147,-2.2525,-2.2123,-2.2197,-2.2197,-2.2197,-2.2197,-2.2494,-2.2678,-2.2678,-2.2678,-2.2678,-2.2678,-2.2678,-2.2678,-2.2678,-2.2678,-2.2678,0.0,0.0,0.0,0.0,-2.3024,-2.2643,-2.1809,-2.22,-2.1785,-2.1042,-2.1921,-2.1935,-2.1506,-2.165,-2.1698,-2.165,-2.141,-2.1361,-2.1506,-2.2189,-2.2725,-2.3201,-2.3618,-2.4153,-2.4648,-2.5067,-2.5465,-2.5835,-2.6179,-2.6556,-2.7017,-2.7678,-2.784,-2.7943,-2.8119,-2.8109,-2.7996,-2.7818,-2.8128,-2.844,-2.8466,-2.8148,-2.8154,-2.8911,-2.8246,-2.7994,-2.879,-2.8791,-2.8785,-2.8785,-2.8905,-2.8994,-2.8994,-2.9044,-2.9112,-2.92,-2.9435,-2.9626,-2.9784,-3.0037,-3.0228,-3.0355,-3.0516,-3.0626,-3.0681,-3.0753,-3.0781,-0.8614,0.0,-1.0962,-1.1549,-1.2113,-1.2648,0.0,-1.324,-1.3536,-1.4183,-1.4583,-1.498,-1.5694,-1.5742,-1.6036,-1.7274,-1.774,-1.8321,-1.9266,-2.0526,-2.1936,-2.3572,-2.3642,-2.3647,-2.3694,-2.2899,-2.2392,-2.2414,-2.1785,-2.1588,-2.2185,-2.2197,-2.2197,-2.2197,-2.2259,-2.2321,-2.2321,-2.2321,-2.2321,-2.2321,-2.2321,-2.2321,-2.2321,-2.2321,-2.2321,0.0,0.0,0.0,-2.2189,-2.099,-2.0841,-2.1277,-2.0458,-2.0246,-2.0434,-2.0633,-2.0633,-2.0534,-2.0584,-2.0584,-2.0633,-2.0858,-2.1019,-2.1131,-2.1313,-2.1779,-2.242,-2.3157,-2.3649,-2.4096,-2.4592,-2.5028,-2.5411,-2.5762,-2.6106,-2.6471,-2.6889,-2.7365,-2.773,-2.7689,-2.7654,-2.7648,-2.7713,-2.7636,-2.7695,-2.7982,-2.7923,-2.7924,-2.821,-2.8013,-2.7987,-2.8402,-2.842,-2.8489,-2.8694,-2.881,-2.8834,-2.8834,-2.8858,-2.8957,-2.9123,-2.9191,-2.9297,-2.9476,-2.9765,-2.9912,-2.9935,-3.0241,-3.0443,-3.0559,-3.0625,-3.0708,-0.8571,-0.9392,-1.0407,-1.1102,-1.1861,-1.2568,-1.3165,-1.3531,-1.3905,-1.4353,-1.4715,-1.5061,-1.5515,-1.5563,-1.5809,-1.6646,-1.7205,-1.7926,-1.9276,-2.0344,-2.137,-2.2599,-2.2477,-2.234,0.0,-2.1554,-2.1128,-2.0967,-2.0602,-2.0526,-2.0921,-2.0985,-2.0985,-2.0985,-2.0985,-2.1388,-2.2197,-2.2197,-2.2123,-2.2061,-2.2061,-2.1999,-2.1937,-2.1749,-2.1629,0.0,0.0,0.0,-2.1224,-2.0238,-2.0076,-2.0322,-1.9932,-1.9645,-1.9527,-2.0029,-2.0029,-1.9825,-1.9991,-1.994,-1.985,-2.0118,-2.0308,-2.0523,-2.0523,-2.0921,-2.1458,-2.2189,-2.2831,-2.3347,-2.3636,-2.4168,-2.4632,-2.4847,-2.5335,-2.5839,-2.616,-2.6707,-2.71,-2.7117,-2.7115,-2.7129,-2.7115,-2.7115,-2.7192,-2.7391,-2.7291,-2.7302,-2.777,-2.7522,-2.749,-2.8039,-2.8047,-2.8093,-2.8219,-2.8273,-2.8422,-2.8718,-2.8785,-2.8839,-2.8962,-2.906,-2.9193,-2.9399,-2.9606,-2.9729,-2.9744,-3.0095,-3.029,-3.0365,-3.0485,-3.0594,-0.8851,-0.9458,-1.0217,-1.0817,-1.1764,-1.2665,-1.336,-1.3923,-1.4308,-1.4364,-1.4724,-1.4989,-1.5056,-1.5349,-1.5624,-1.5747,-1.6558,-1.7674,-1.9058,-1.9651,-2.0197,-2.0871,-2.086,0.0,-2.0332,-2.0158,-1.9889,-1.9497,-1.941,-1.941,-1.9465,-1.9465,-1.9465,-1.9465,-1.9465,-2.0224,-2.167,-2.1753,-2.169,-2.142,-2.1491,-2.1439,-2.1232,-2.0769,-2.0621,-2.0719,0.0,0.0,-2.0193,-1.997,-1.97,-1.9415,-1.9727,-1.9306,-1.8602,-1.9515,-1.9567,-1.9226,-1.9436,-1.9396,-1.921,-1.9198,-1.9436,-1.9773,-1.9773,-2.0003,-2.0448,-2.097,-2.1766,-2.2466,-2.2649,-2.3187,-2.3694,-2.3879,-2.4446,-2.5121,-2.5475,-2.5875,-2.6245,-2.6436,-2.647,-2.647,-2.6332,-2.6421,-2.6555,-2.6707,-2.6409,-2.641,-2.7209,-2.6787,-2.6708,-2.7442,-2.7452,-2.7439,-2.7577,-2.7577,-2.784,-2.8456,-2.8601,-2.8737,-2.8761,-2.892,-2.9086,-2.9258,-2.9381,-2.9514,-2.9588,-2.9939,-3.0144,-3.0196,-3.0404,-3.0513,-0.9038,-0.9442,-0.9945,-1.0763,-1.1663,-1.2624,-1.3596,-1.4007,-1.4212,-1.4548,-1.4855,-1.5075,-1.5425,-1.5538,-1.5813,-1.6533,-1.7054,-1.756,-1.8247,-1.8373,-1.884,-1.9961,0.0,-1.963,-2.0232,-1.9354,-1.8962,-1.9475,-1.8957,-1.889,-1.9465,-1.9465,-1.9465,-1.9465,-1.9465,-1.9479,-1.941,-1.9738,-1.9738,-1.9347,-1.9673,-1.9663,-1.9347,-1.926,-1.9478,-1.9941,0.0,-1.9298,-2.0134,-1.9083,-1.8864,-1.9121,-1.8635,-1.8317,-1.8193,-1.8344,-1.8344,-1.829,-1.8084,-1.8236,-1.8441,-1.817,-1.8375,-1.8738,-1.8738,-1.9109,-1.9592,-1.9683,-2.0484,-2.1465,-2.2314,-2.2634,-2.2905,-2.3709,-2.4006,-2.4199,-2.4688,-2.5035,-2.5325,-2.5395,-2.547,-2.5619,-2.5855,-2.5291,-2.5059,-2.5865,-2.5355,-2.5157,-2.5898,-2.5793,-2.5799,-2.625,-2.6164,-2.6337,-2.6977,-2.6963,-2.7137,-2.7589,-2.7992,-2.8334,-2.8612,-2.8619,-2.8601,-2.8651,-2.8772,-2.8915,-2.9107,-2.9495,-2.988,-3.0196,-3.0356,-3.0537,-0.8891,-0.9339,-0.9877,-1.0628,-1.1368,-1.2083,-1.2957,-1.3177,-1.328,-1.3451,-1.403,-1.4478,-1.4212,-1.5178,-1.6141,-1.6735,-1.6986,-1.7172,-1.7437,-1.7465,-1.7661,0.0,0.0,-1.8054,-1.8458,-1.7949,-1.7765,-1.8085,-1.7833,-1.7774,-1.8094,-1.7878,-1.7858,-1.8085,-1.7698,-1.7471,-1.7455,-1.7471,-1.7792,-1.8477,-1.869,-1.8617,-1.8291,-1.8048,-1.8055,-1.8315,0.0,-1.7614,-1.8019,-1.7511,-1.7567,-1.8025,-1.7756,-1.7788,-1.8084,-1.8084,-1.803,-1.7877,-1.7767,-1.77,-1.7689,-1.7567,-1.7843,-1.8159,-1.8159,-1.8471,-1.8833,-1.8833,-1.9812,-2.0993,-2.1465,-2.1752,-2.2081,-2.283,-2.3069,-2.3333,-2.3864,-2.421,-2.444,-2.4511,-2.4496,-2.4531,-2.4503,-2.4163,-2.4068,-2.4687,-2.4535,-2.4636,-2.5325,-2.5481,-2.554,-2.5672,-2.5619,-2.5697,-2.5971,-2.5936,-2.6336,-2.7348,-2.7619,-2.7794,-2.7954,-2.7628,-2.7692,-2.8165,-2.8098,-2.8145,-2.8349,-2.8646,-2.8984,-2.9345,-2.948,-2.9883,-0.8791,-0.9285,-0.9816,-1.0407,-1.1015,-1.1685,-1.2429,-1.2631,-1.2655,-1.2672,-1.3345,-1.3733,-1.322,-1.4613,-1.6029,-1.645,-1.6639,-1.6799,-1.6917,-1.676,-1.6691,-1.6908,-1.676,-1.6691,-1.6908,-1.6908,-1.6872,-1.678,-1.6702,-1.6656,-1.6556,-1.6264,-1.6236,-1.6547,-1.601,-1.5799,-1.6037,-1.5652,-1.6166,-1.739,-1.7492,-1.7431,-1.7134,-1.6749,-1.6657,-1.6806,-1.6287,-1.614,-1.6312,-1.6255,-1.6528,-1.6922,-1.6922,-1.7157,-1.7567,-1.7567,-1.7401,-1.7245,-1.719,-1.7078,-1.6909,-1.6853,-1.719,-1.7523,-1.7523,-1.7776,-1.8015,-1.8015,-1.9073,-2.0219,-2.0471,-2.0881,-2.1334,-2.1827,-2.2128,-2.2423,-2.2905,-2.3216,-2.3435,-2.3623,-2.3546,-2.3402,-2.3182,-2.2869,-2.2887,-2.338,-2.3421,-2.3686,-2.4594,-2.4844,-2.4891,-2.4894,-2.4871,-2.4753,-2.4445,-2.4634,-2.5234,-2.6368,-2.6725,-2.7016,-2.7251,-2.6778,-2.6827,-2.7483,-2.7521,-2.7477,-2.7309,-2.7775,-2.811,-2.8277,-2.8646,-2.9245,-0.8931,-0.9439,-0.9746,-1.0073,-1.0807,-1.1744,-1.2735,-1.2933,-1.3028,-1.3278,-1.3431,-1.3447,-1.338,-1.4093,-1.4898,-1.5351,-1.5964,-1.6517,-1.6885,0.0,-1.6123,-1.6839,-1.6333,-1.6123,-1.683,-1.6908,-1.6762,-1.6386,-1.6224,-1.5984,-1.5604,-1.555,-1.555,-1.5577,-1.5652,-1.5524,-1.5194,-1.5032,-1.5076,-1.5325,-1.5696,-1.5677,-1.5263,-1.5111,-1.5444,-1.6076,-1.5527,-1.568,-1.6301,-1.6187,-1.613,-1.6177,-1.5958,-1.5901,-1.5958,-1.5958,-1.5958,-1.5911,-1.5633,-1.5816,-1.6114,-1.5904,-1.6134,-1.6488,-1.6488,-1.6842,-1.7257,-1.7257,-1.7754,-1.8501,-1.9517,-2.0206,-2.0746,-2.1175,-2.1272,-2.1417,-2.1841,-2.1935,-2.2156,-2.2844,-2.2498,-2.2204,-2.2342,-2.1376,-2.0953,-2.1909,-2.1432,-2.1531,-2.306,-2.3203,-2.3228,-2.336,-2.3319,-2.298,-2.2217,-2.2986,-2.3564,-2.3592,-2.4704,-2.5779,-2.6783,-2.6446,-2.6266,-2.6318,-2.7216,-2.7073,-2.585,-2.7109,-2.7583,-2.733,-2.8322,-2.8998,-0.8778,-0.9452,-0.9933,-0.9866,-1.052,-1.1302,-1.1674,-1.1761,-1.1847,-1.2094,-1.2719,-1.3264,-1.3818,-1.3933,-1.407,-1.4563,-1.4985,-1.5256,-1.5267,-1.5029,-1.495,-1.5092,-1.495,-1.4958,-1.5242,-1.5313,-1.5312,-1.5436,-1.5274,-1.5236,-1.5328,-1.5069,-1.5042,-1.5301,-1.489,-1.4674,-1.4773,-1.4469,-1.4353,-1.4414,-1.4698,-1.4689,-1.4414,-1.4484,-1.4596,-1.475,-1.4543,-1.4588,-1.4874,-1.4815,-1.504,-1.5371,-1.5671,-1.5786,-1.5786,-1.5786,-1.568,-1.5517,-1.5468,-1.5362,-1.5362,-1.5245,-1.5313,-1.5488,-1.5488,-1.5758,-1.6083,-1.6083,-1.6652,-1.7479,-1.837,-1.902,-1.9567,-1.9927,-2.0257,-2.0597,-2.1042,-2.1104,-2.1251,-2.1827,-2.1222,-2.0716,-2.0883,-2.02,-1.985,-2.0465,-2.0853,-2.1391,-2.2295,-2.2399,-2.2304,-2.2163,-2.1715,-2.1441,-2.1526,-2.1542,-2.1511,-2.1486,-2.3026,-2.4462,-2.5575,-2.4448,-2.4195,-2.5063,-2.4999,-2.4854,-2.4645,-2.5356,-2.5881,-2.6224,-2.6655,-2.7628,-0.8514,-0.9341,-1.0026,-0.974,0.0,-1.1042,-1.1162,-1.1129,-1.1236,-1.1623,-1.2199,-1.2769,-1.3259,-1.3084,-1.3093,-1.3708,-1.3862,-1.4047,-1.4291,-1.3907,-1.3666,-1.3843,-1.3696,-1.3706,-1.3909,-1.398,-1.3978,-1.4179,-1.4028,-1.3941,-1.4106,-1.3836,-1.3819,-1.4145,-1.3653,-1.35,-1.3755,-1.3447,-1.3321,-1.3321,-1.345,-1.3571,-1.3692,-1.401,-1.395,-1.3692,-1.3881,-1.395,-1.401,-1.395,-1.4172,-1.4501,-1.4914,-1.5089,-1.5089,-1.5089,-1.4982,-1.4815,-1.4815,-1.4765,-1.4656,-1.4656,-1.4775,-1.4893,-1.4775,-1.4942,-1.5118,-1.4991,-1.5439,-1.6063,-1.6733,-1.7633,-1.8459,-1.8679,-1.8955,-1.9347,-2.0067,-1.9953,-2.0054,-2.0957,-2.0237,-1.9525,-1.9704,-1.9176,-1.8838,-1.9131,-1.9727,-2.0419,-2.1166,-2.1369,-2.1326,-2.1038,-2.0436,-2.0011,-1.9935,-1.9744,-1.9584,-1.9553,-2.0876,-2.2239,-2.3628,-2.256,-2.2431,-2.3378,-2.347,-2.3447,-2.3271,-2.4091,-2.4658,-2.4946,-2.5466,-2.6484,-0.8251,-0.9136,-0.9997,-0.9578,-1.0244,-1.1082,-1.1519,-1.1497,-1.1597,-1.2178,-1.2071,-1.187,-1.165,-1.1579,-1.1928,-1.2825,-1.2684,-1.2933,-1.4101,-1.3031,-1.2477,-1.347,-1.2687,-1.2362,-1.3086,-1.3153,-1.3006,-1.2588,-1.2459,-1.2195,-1.1849,-1.1834,-1.1834,-1.1834,-1.195,-1.2012,-1.2012,-1.1826,-1.1834,-1.1834,-1.1834,-1.2205,-1.3009,-1.3519,-1.3511,-1.3009,-1.358,-1.383,-1.395,-1.383,-1.364,-1.3511,-1.3502,-1.3511,-1.3511,-1.3511,-1.3502,-1.3511,-1.3502,-1.3812,-1.4189,-1.4189,-1.4488,-1.4834,-1.4529,-1.4469,-1.441,-1.4094,-1.3965,-1.4094,-1.4588,-1.612,-1.7523,-1.7435,-1.7379,-1.7644,-1.8691,-1.8401,-1.8496,-2.0219,-1.9595,-1.8792,-1.8851,-1.8267,-1.7813,-1.7963,-1.7774,-1.8058,-1.9426,-1.9992,-2.0194,-1.9994,-1.9542,-1.8674,-1.714,-1.756,-1.7856,-1.7777,-1.8013,-1.9041,-2.0994,-2.1137,-2.1188,-2.1188,-2.2995,-2.3204,-2.1685,-2.3554,-2.4129,-2.3509,-2.4986,-2.5749,-0.8189,-0.8481,-0.8742,-0.8484,-0.8981,-0.9719,-1.0408,-1.1081,-1.1631,-1.1857,-1.179,-1.161,-1.1217,-1.1237,0.0,-1.1248,-1.1348,-1.1444,-1.1657,-1.1322,-1.1106,-1.1253,-1.1125,-1.1149,-1.1348,-1.1341,-1.1425,-1.1579,-1.1435,-1.1424,-1.1593,-1.1578,-1.1578,-1.1578,-1.164,-1.164,-1.164,-1.164,-1.1578,-1.1578,-1.1578,-1.1703,-1.195,-1.2266,-1.2205,-1.195,-1.2135,-1.2197,-1.2258,-1.2197,-1.2135,-1.2135,-1.2634,-1.2512,-1.2197,-1.313,-1.2887,-1.2135,-1.2634,-1.2879,-1.2948,-1.272,-1.3086,-1.3519,-1.3208,-1.326,-1.3433,-1.3312,-1.3494,-1.3683,-1.3812,-1.4264,-1.507,-1.6291,-1.6922,-1.7368,-1.7633,-1.7567,-1.7619,-1.8255,-1.7589,-1.7014,-1.7071,-1.6444,-1.6103,-1.6544,-1.6954,-1.7414,-1.8,-1.8007,-1.7965,-1.7915,-1.7106,-1.6681,-1.695,-1.6457,-1.6149,-1.6102,-1.6548,-1.7839,-2.0147,-1.9634,-1.9508,-1.9918,-2.0582,-2.0758,-2.0523,-2.186,-2.2613,-2.275,-2.3603,-2.4411,-0.7739,-0.7984,-0.8138,-0.7912,-0.8298,-0.8967,-0.9774,-1.0779,-1.1455,-1.1297,-1.1222,-1.1147,-1.0855,-1.0861,0.0,-1.067,-1.0547,-1.0554,-1.0591,-1.0356,-1.019,-1.0164,-1.0153,-1.0153,-1.0153,-1.0153,-1.0286,-1.0503,-1.0425,-1.0471,-1.0661,-1.0717,-1.0717,-1.0717,-1.0717,-1.0717,-1.0717,-1.0717,-1.0717,-1.0717,-1.0717,-1.0717,-1.0717,-1.1399,-1.1454,-1.1087,-1.1392,-1.1516,-1.1516,-1.1516,-1.1516,-1.1509,-1.195,-1.1888,-1.1578,-1.2389,-1.2197,-1.1578,-1.1888,-1.2012,-1.195,-1.1717,-1.1911,-1.2158,-1.1787,-1.1834,-1.195,-1.1826,-1.195,-1.2197,-1.2443,-1.2512,-1.2992,-1.4777,-1.5477,-1.5871,-1.6394,-1.609,-1.6036,-1.7035,-1.6493,-1.5903,-1.6159,-1.5658,-1.5263,-1.5522,-1.5858,-1.6226,-1.6821,-1.674,-1.6657,-1.6676,-1.6118,-1.5745,-1.5867,-1.5276,-1.4877,-1.4687,-1.5096,-1.6017,-1.7447,-1.7699,-1.8004,-1.8357,-1.8725,-1.8972,-1.9046,-2.0149,-2.0985,-2.1504,-2.2236,-2.3164,-0.7012,-0.7458,-0.7872,-0.7509,-0.7914,-0.8674,-0.936,-1.0271,-1.087,-1.0653,-1.0547,-1.0508,-1.0529,-1.0368,-1.0275,-1.0703,-1.0264,-0.9983,-1.043,-0.991,-0.9568,-0.9808,-0.9628,-0.9484,-0.9484,-0.9484,-0.9484,-0.9484,-0.9484,-0.9484,-0.9484,-0.9484,-0.9484,-0.9484,-0.9484,-0.9484,-0.9484,-0.9484,-0.9484,-0.9484,-0.9484,-0.9484,-0.9548,-1.078,-1.0968,-1.0421,-1.1024,-1.1329,-1.1329,-1.1329,-1.1329,-1.1329,-1.1392,-1.1392,-1.1329,-1.1454,-1.1392,-1.1267,-1.1205,-1.1212,-1.1149,-1.0954,-1.0892,-1.0892,-1.0577,-1.0451,-1.0388,-1.0078,-1.0015,-1.0142,-1.0766,-1.0892,-1.1315,-1.2785,-1.3235,-1.3717,-1.4915,-1.4266,-1.4052,-1.6171,-1.57,-1.5114,-1.5564,-1.5192,-1.478,-1.463,-1.4555,-1.4824,-1.572,-1.5925,-1.5983,-1.5978,-1.5913,-1.5405,-1.4134,-1.3962,-1.378,-1.3392,-1.369,-1.3799,-1.3601,-1.5516,-1.6562,-1.6549,-1.7262,-1.757,-1.7424,-1.8458,-1.9296,-1.9909,-2.0854,-2.1936,-0.6634,-0.6369,-0.6145,-0.6188,-0.6806,-0.7328,-0.729,-0.7955,-0.8891,-1.0089,-1.0353,-1.0268,-1.0117,-0.9977,-0.9952,-0.9807,-0.9669,-0.9651,-0.9705,-0.9621,-0.9502,-0.9562,-0.952,-0.9484,-0.9484,-0.9484,-0.9484,-0.9484,-0.9484,-0.9484,-0.9484,-0.9484,-0.9484,-0.9484,-0.9484,-0.9484,-0.9484,-0.9484,-0.9484,0.0,-0.9484,-0.9484,-0.9484,-0.9792,-0.9856,-0.9734,-0.9856,-0.9919,-0.9919,-0.9919,-0.9919,-0.9977,-1.0541,-1.0415,-1.004,-1.0961,-1.071,-0.9837,-1.0142,-1.0268,-1.0205,-0.9894,-1.0205,-1.0514,-1.0205,-1.0078,-1.0078,-1.0015,-1.0015,-1.0015,-1.0205,-1.0205,-1.0273,-1.0479,-1.1448,-1.2522,-1.3334,-1.2905,-1.248,-1.3023,-1.287,-1.269,-1.2917,-1.2603,-1.2327,-1.2332,-1.3077,-1.3751,-1.3942,-1.4646,-1.4903,-1.435,-1.3984,-1.3497,-1.2824,-1.2304,-1.1885,-1.1557,-1.1889,-1.1871,-1.1455,-1.3689,-1.4869,-1.4767,-1.5289,-1.5671,-1.5942,-1.6766,-1.7591,-1.838,-1.9125,-2.0092,-0.6201,-0.5884,-0.5588,-0.5712,-0.6,-0.6272,-0.6535,-0.6874,-0.7435,-0.87,-0.9198,-0.9499,-0.9706,-0.9688,-0.964,-0.9508,-0.9484,-0.9484,-0.9484,-0.9484,-0.9484,-0.9484,-0.9484,-0.9484,-0.9484,-0.9484,-0.9484,-0.9484,-0.9484,-0.9484,-0.9484,-0.9484,-0.9484,-0.9484,-0.9414,-0.9408,-0.9408,-0.9408,-0.9215,-0.8818,-0.9215,-0.921,-0.8818,-0.928,-0.9478,-0.9408,-0.9408,-0.935,-0.9285,-0.9285,-0.9285,-0.928,-0.9658,-0.9594,-0.9344,-0.9958,-0.9773,-0.921,-0.9396,-0.9396,-0.9396,-0.9081,-0.9268,-0.9518,-0.9332,-0.9268,-0.9198,-0.8871,-0.9005,-0.9134,-0.8339,-0.8404,-0.8665,-0.8545,-0.9746,-1.1005,-1.1441,-1.0997,-1.0706,-1.1102,-1.1146,-1.109,-1.1073,-1.0684,-1.0412,-1.0212,-1.0817,-1.135,-1.1577,-1.2074,-1.2369,-1.2258,-1.2001,-1.1621,-1.1091,-1.0724,-1.0355,-0.9923,-1.0023,-0.9921,-0.9636,-1.049,-1.1558,-1.2867,-1.2912,-1.2919,-1.3003,-1.3313,-1.4149,-1.5411,-1.6008,-1.7301,-0.5689,-0.5638,-0.5517,-0.5549,-0.5454,-0.5593,-0.6256,-0.6309,-0.64,-0.7055,-0.7772,-0.849,-0.9022,-0.9157,-0.9157,-0.9157,-0.9157,-0.9157,-0.9157,-0.9157,-0.9157,-0.9157,-0.9157,-0.9139,-0.9093,-0.9128,-0.9069,-0.9093,-0.9064,-0.9022,-0.9022,-0.9022,-0.9022,-0.9022,-0.8947,-0.8877,-0.8877,-0.8877,-0.8554,-0.7832,-0.8549,-0.8484,-0.7832,-0.8689,-0.9081,-0.9075,-0.8947,-0.8882,-0.8818,-0.8818,-0.8818,-0.8818,-0.8818,-0.8818,-0.8818,-0.8689,-0.8624,-0.8624,-0.8571,-0.8506,-0.8376,-0.8312,-0.8252,-0.8117,-0.8117,-0.8117,-0.8052,-0.7456,-0.7717,-0.7852,-0.647,-0.6531,-0.6988,-0.6934,-0.7931,-0.9023,-0.9369,-0.8896,-0.8683,-0.9522,-0.9695,-0.9632,-0.9416,-0.9026,-0.8642,-0.8344,-0.8513,-0.8814,-0.9195,-0.9609,-0.9936,-1.0171,-1.022,-0.9984,-0.9285,-0.9195,-0.8888,-0.8199,-0.8016,-0.7864,-0.7653,-0.7036,-0.7838,-1.0205,-1.0105,-0.9961,-0.9817,-0.9849,-1.0655,-1.2223,-1.2593,-1.4143,-0.5001,-0.5079,-0.5236,-0.5415,-0.5442,-0.5432,-0.5519,-0.5572,-0.5752,-0.64,-0.7055,-0.7582,-0.7647,-0.7712,-0.7712,-0.7712,-0.7712,-0.7712,-0.7712,-0.7712,-0.7712,-0.7712,-0.7712,-0.7639,-0.7511,-0.753,-0.7436,-0.7327,-0.7283,-0.7251,-0.7251,-0.7251,-0.7251,-0.7251,-0.7251,-0.7251,-0.7251,-0.7251,-0.7186,-0.7055,-0.7186,-0.7186,-0.7055,-0.7186,-0.7572,-0.8156,-0.7507,-0.7577,-0.8156,-0.8156,-0.8156,-0.8156,-0.8156,-0.8156,-0.8027,-0.7307,-0.6981,-0.7051,-0.7521,-0.7256,-0.6793,-0.7456,-0.719,-0.6662,-0.6662,-0.6662,-0.6662,-0.6597,-0.6597,-0.6597,-0.6207,-0.6141,-0.6124,-0.5732,-0.584,-0.6263,-0.7431,-0.6852,-0.6392,-0.7321,-0.7585,-0.7592,-0.725,-0.6904,-0.6592,-0.6627,-0.7115,-0.7549,-0.7659,-0.8871,-0.9499,-0.8989,-0.919,-0.8956,-0.7973,-0.7585,-0.7002,-0.6013,-0.5792,-0.5462,-0.4965,-0.4801,-0.4953,-0.5321,-0.6749,-0.7641,-0.7988,-0.8482,-0.922,-1.0194,-1.0228,-1.1068,-0.4406,-0.4793,-0.5169,-0.5321,-0.5428,-0.5428,-0.5428,-0.5428,-0.5491,-0.5752,-0.6079,-0.6539,-0.7256,-0.7386,-0.7386,-0.7386,-0.7386,-0.7386,-0.7316,-0.7316,-0.7251,-0.712,-0.7125,-0.7108,-0.71,-0.6962,-0.693,-0.6861,-0.684,-0.6757,-0.6757,-0.6863,-0.6924,-0.6924,-0.6854,-0.6789,-0.6789,-0.6789,-0.6789,-0.6789,-0.5877,-0.5613,-0.6001,-0.5613,-0.6137,-0.7242,-0.6915,-0.692,-0.7111,-0.7111,-0.7111,-0.7111,-0.7111,-0.7111,-0.7046,-0.6658,-0.6527,-0.6593,-0.6793,-0.6662,-0.6465,-0.6793,-0.6662,-0.64,-0.64,-0.64,-0.6334,-0.587,-0.6005,-0.6009,-0.5084,-0.5014,-0.5003,-0.4103,-0.3986,-0.4048,-0.4113,-0.4587,-0.5166,-0.5767,-0.5615,-0.5421,-0.5274,-0.4811,-0.4525,-0.4617,-0.4932,-0.5336,-0.5763,-0.6497,-0.6759,-0.6225,-0.6333,-0.6113,-0.5314,-0.5111,-0.477,-0.4165,-0.4055,-0.3724,-0.3166,-0.2777,-0.2443,-0.2164,-0.3854,-0.4768,-0.4973,-0.4646,-0.4992,-0.6001,-0.6235,-0.712,-0.3669,-0.418,-0.4665,-0.5003,-0.513,-0.516,-0.5359,-0.5428,-0.5362,-0.5359,-0.5292,-0.562,-0.6535,-0.6798,-0.6868,-0.6868,-0.6868,-0.6863,-0.6658,-0.6658,-0.6593,-0.64,-0.6338,-0.6396,-0.6409,-0.6236,-0.6166,-0.6125,-0.6137,-0.6054,-0.6069,-0.6129,-0.6221,-0.6268,-0.6094,-0.6086,-0.6067,-0.6067,-0.6067,-0.6067,-0.4891,-0.4561,-0.5017,-0.4495,-0.4957,-0.6067,-0.6067,-0.6133,-0.6133,-0.6133,-0.6133,-0.6133,-0.6133,-0.6133,-0.6067,-0.5939,-0.5877,-0.5873,-0.6071,-0.6005,-0.5873,-0.6071,-0.6005,-0.5807,-0.5672,-0.5602,-0.5404,-0.4674,-0.4743,-0.4743,-0.3482,-0.3413,-0.3434,-0.2455,-0.2352,-0.2359,-0.1754,-0.2785,-0.384,-0.3996,-0.3671,-0.34,-0.3385,-0.2892,-0.2601,-0.271,-0.2779,-0.3045,-0.3618,-0.3896,-0.3977,-0.3637,-0.371,-0.3549,-0.3093,-0.3036,-0.2803,-0.2454,-0.2343,-0.1953,-0.1338,-0.0781,-0.0279,0.0279,-0.0831,-0.1716,-0.2277,-0.1445,-0.1494,-0.2355,-0.2577,-0.3266,-0.2911,-0.3056,-0.329,-0.4085,-0.4333,-0.4556,-0.5226,-0.5428,-0.5359,-0.5156,-0.5087,-0.509,-0.496,-0.5229,-0.5491,-0.5491,-0.5491,-0.5425,-0.5219,-0.5219,-0.5156,-0.496,-0.4894,-0.4841,-0.4766,-0.4739,-0.4576,-0.4323,-0.4414,-0.4369,-0.4249,-0.4249,-0.431,-0.4428,-0.4316,-0.431,-0.4431,-0.4431,-0.4431,-0.4431,-0.4367,-0.43,-0.4364,-0.43,-0.4367,-0.4431,-0.4431,-0.4758,-0.5342,-0.5342,-0.5342,-0.5342,-0.5342,-0.5342,-0.5276,-0.4628,-0.4431,-0.4498,-0.515,-0.4951,-0.4498,-0.5147,-0.4954,-0.4295,-0.3551,-0.3349,-0.3215,-0.2345,-0.2078,-0.2011,-0.1541,-0.1474,-0.1397,-0.1099,-0.1069,-0.1211,-0.1701,-0.1786,-0.1782,-0.1782,-0.1726,-0.1726,-0.1726,-0.1338,-0.1028,-0.1095,-0.1106,-0.1195,-0.1265,-0.174,-0.2071,-0.2002,-0.2286,-0.239,-0.2077,-0.1967,-0.1507,-0.0614,-0.0558,-0.0056,0.1061,0.1174,0.1451,0.2055,0.2389,0.1557,-0.0502,-0.05,-0.0499,-0.0498,-0.0055,0.0165,-0.219,-0.2614,-0.3021,-0.3425,-0.3556,-0.3798,-0.4535,-0.4688,-0.4755,-0.502,-0.5087,-0.5024,-0.4831,-0.4897,-0.503,-0.503,-0.503,-0.496,-0.4824,-0.4758,-0.4694,-0.45,-0.4498,-0.4418,-0.4335,-0.4227,-0.4086,-0.3955,-0.3977,-0.3931,-0.3887,-0.3958,-0.402,-0.4064,-0.4023,-0.4058,-0.4183,-0.4262,-0.43,-0.43,-0.43,-0.43,-0.43,-0.43,-0.4028,-0.362,-0.362,-0.4023,-0.4625,-0.4625,-0.4625,-0.4625,-0.4625,-0.4625,-0.4625,-0.4364,-0.4028,-0.362,-0.3882,-0.3482,-0.295,-0.3147,-0.3082,-0.2818,-0.2547,-0.2414,-0.228,-0.2012,-0.1743,-0.1475,-0.134,-0.1208,-0.1133,-0.0972,0.0,0.0653,0.0058,-0.0624,-0.1172,-0.1172,-0.1172,-0.1005,-0.0615,-0.0448,-0.0344,-0.0427,-0.0431,-0.0566,-0.0867,-0.1074,-0.1065,-0.0719,-0.0818,-0.0731,-0.0418,-0.0057,0.0167,0.0112,0.0836,0.1392,0.1729,0.2119,0.2726,0.3608,0.3776,0.3166,0.1725,0.2001,0.2166,0.2166,0.205,0.1994,-0.1504,-0.1883,-0.232,-0.2627,-0.2722,-0.2941,-0.3586,-0.3789,-0.3838,-0.4143,-0.4217,-0.4151,-0.3956,-0.409,-0.4359,-0.4761,-0.4831,-0.4761,-0.4625,-0.4625,-0.4495,-0.43,-0.43,-0.4287,-0.4145,-0.4061,-0.3895,-0.3823,-0.3804,0.0,-0.3815,-0.383,-0.3873,-0.3873,-0.3914,-0.3912,-0.4056,-0.3944,-0.3853,-0.3851,-0.3654,-0.3589,-0.3589,-0.3589,-0.3325,-0.2803,-0.2829,-0.3125,-0.3558,-0.3558,-0.3558,-0.3558,-0.3558,-0.3558,-0.3558,-0.3558,-0.322,-0.2815,-0.2815,-0.248,-0.2012,-0.2012,-0.2012,-0.1878,-0.1611,-0.1476,-0.1342,-0.1074,-0.0806,-0.0537,-0.0268,0.0067,0.0262,0.0315,0.121,0.199,0.1563,0.0737,0.0,0.0,0.0,0.0112,0.056,0.0784,0.0915,0.0914,0.0922,0.0817,0.0599,0.0604,0.073,0.1031,0.1126,0.1214,0.1473,0.1765,0.1843,0.151,0.2393,0.2998,0.3111,0.3663,0.4433,0.5265,0.532,0.4988,0.4323,0.444,0.4498,0.4443,0.4381,0.4323,0.0,0.0,0.0,-0.1588,-0.1784,-0.1936,-0.2507,-0.2678,-0.2648,-0.2465,-0.2414,-0.2347,-0.2147,-0.2681,-0.3485,-0.4561,-0.4761,-0.4761,-0.4625,-0.4558,-0.4495,-0.43,-0.43,-0.4251,-0.4129,-0.4054,-0.3955,-0.3776,-0.3803,-0.3819,-0.3759,-0.3748,-0.3748,-0.3748,-0.3805,-0.387,-0.387,-0.3258,-0.2954,-0.2954,-0.2397,-0.2089,-0.2089,-0.2089,-0.209,-0.2094,-0.2095,-0.2026,-0.2013,-0.2079,-0.208,-0.208,-0.208,-0.208,-0.208,-0.208,-0.2079,-0.2079,-0.2079,-0.1945,-0.1811,-0.1811,-0.1677,-0.1409,-0.0671,-0.047,-0.0269,0.0606,0.0809,0.101,0.1879,0.2563,0.2981,0.2747,0.2702,0.2735,0.2703,0.2293,0.1846,0.1846,0.1846,0.1846,0.1846,0.2347,0.2799,0.2984,0.3013,0.3078,0.3189,0.3413,0.3445,0.3219,0.3372,0.3452,0.3404,0.3408,0.3453,0.3624,0.4171,0.4714,0.5311,0.5914,0.6519,0.7139,0.7139,0.7139,0.7139,0.6519,0.6239,0.6293,0.6853,0.7139,-0.0711,0.0,0.0,0.0,0.0,0.0,-0.1752,-0.188,-0.201,-0.2329,-0.2408,-0.2357,-0.2139,-0.228,-0.2482,-0.2817,-0.3756,-0.4431,-0.4364,-0.4364,-0.4367,-0.43,-0.43,-0.4251,-0.4129,-0.3604,-0.3231,0.0,-0.2699,-0.2371,-0.2351,-0.2354,-0.238,-0.238,-0.2457,-0.25,-0.25,-0.2433,-0.2335,-0.2335,-0.215,-0.2089,-0.2089,-0.2089,-0.1866,-0.1399,-0.1346,-0.1047,-0.0673,-0.1678,-0.208,-0.208,-0.208,-0.208,-0.208,-0.208,-0.1812,-0.1344,-0.1209,-0.0874,-0.0471,-0.0269,-0.0202,-0.0202,0.0135,0.0337,0.0606,0.1412,0.1679,0.1947,0.2681,0.2956,0.3013,0.29,0.3153,0.3333,0.3362,0.3237,0.2959,0.2514,0.2458,0.2458,0.2458,0.2954,0.3388,0.3416,0.3623,0.3848,0.4062,0.3826,0.3687,0.3786,0.403,0.4176,0.4198,0.4908,0.5253,0.4867,0.5806,0.6249,0.5964,0.6524,0.7128,0.7664,0.7664,0.7883,0.8321,0.77,0.7416,0.7469,0.7988,0.8246,-0.0623,-0.0598,0.0,-0.041,0.0,0.0,-0.0857,-0.0925,-0.0994,-0.1344,-0.143,-0.1384,-0.1273,-0.1478,-0.1678,-0.1678,-0.2618,-0.3355,-0.3355,-0.3355,-0.3355,-0.3355,-0.3355,-0.3319,-0.3223,-0.2829,-0.2541,-0.2468,-0.206,-0.1788,-0.1823,-0.1823,-0.179,-0.179,-0.1881,-0.1901,-0.1901,-0.17,-0.1598,-0.1598,-0.1361,-0.1242,-0.1242,-0.12,-0.1036,-0.0622,-0.0638,-0.0391,-0.0066,-0.087,-0.1209,-0.1209,-0.1209,-0.1209,-0.1209,-0.1209,-0.0941,-0.0471,-0.0404,-0.0067,0.0337,0.0539,0.0808,0.1076,0.1144,0.148,0.1882,0.2347,0.2748,0.3074,0.3497,0.3675,0.3776,0.3727,0.3876,0.3963,0.3963,0.3958,0.3793,0.3181,0.307,0.307,0.307,0.3785,0.4327,0.4416,0.4797,0.5171,0.5586,0.5303,0.5199,0.545,0.5569,0.5657,0.5586,0.6206,0.6406,0.6072,0.6897,0.7283,0.6945,0.7706,0.8296,0.8613,0.881,0.9235,0.9836,0.9026,0.8744,0.8947,0.9245,0.9496,-0.0375,-0.0225,0.0,0.0,0.0059,0.0,0.0182,0.0184,0.0247,0.0191,0.0131,0.0133,0.0067,-0.0467,-0.0999,-0.0999,-0.1467,-0.1939,-0.2079,-0.208,-0.208,-0.208,-0.208,-0.2059,-0.2006,-0.1937,-0.1854,-0.1746,-0.1675,-0.1586,-0.159,-0.1601,-0.1573,-0.1623,-0.1623,-0.1623,-0.1623,-0.1064,-0.0785,-0.0785,-0.028,0.0,0.0,0.0,0.0,0.0,0.0063,0.0129,0.013,0.02,0.0135,0.0,0.0067,0.0067,0.0,0.0135,0.0202,0.0337,0.0404,0.0674,0.0876,0.101,0.1547,0.2213,0.2213,0.2681,0.3215,0.3282,0.3885,0.4394,0.4282,0.4609,0.4908,0.4772,0.4623,0.4567,0.4622,0.4678,0.4511,0.4054,0.3866,0.3796,0.3811,0.4739,0.5554,0.5726,0.6244,0.674,0.7272,0.723,0.723,0.7447,0.7406,0.7295,0.7209,0.7246,0.7295,0.7348,0.7818,0.8137,0.8184,0.9138,0.9666,0.9666,1.0167,1.0685,1.1326,1.0285,1.0072,1.0568,1.0568,1.0771,0.1116,0.1313,0.1352,0.1529,0.1617,0.0,0.1499,0.1515,0.1605,0.1495,0.1083,0.073,0.0749,0.0188,-0.0188,-0.0188,-0.032,-0.0786,-0.194,-0.208,-0.208,-0.208,-0.208,-0.2075,-0.2063,-0.1599,-0.1263,-0.1257,-0.0713,-0.0375,-0.0354,-0.0351,-0.0346,-0.0336,-0.0336,-0.0336,-0.0336,-0.0224,-0.0168,-0.0168,-0.0056,0.0,0.0,0.0,0.0,0.0061,0.0619,0.0894,0.0934,0.1474,0.1008,0.0067,0.0673,0.0539,0.0067,0.0808,0.074,0.0404,0.1276,0.1544,0.161,0.2482,0.2748,0.2746,0.2948,0.3082,0.3349,0.3951,0.4622,0.5153,0.5124,0.5074,0.5081,0.505,0.4935,0.5005,0.5593,0.5707,0.5825,0.6226,0.5579,0.5049,0.5186,0.6045,0.6771,0.6817,0.7302,0.7682,0.7695,0.7512,0.741,0.7338,0.761,0.7764,0.7771,0.8209,0.8633,0.9086,0.919,0.9444,0.9894,1.0108,1.0269,1.0269,1.0364,1.0685,1.1326,1.1065,1.1259,1.1769,1.1769,1.1819,0.1605,0.182,0.1865,0.2044,0.0,0.0,0.0,0.1918,0.189,0.192,0.1625,0.1396,0.1438,0.112,0.0925,0.0925,0.0625,0.0253,-0.0385,-0.0791,-0.1076,-0.1076,-0.1076,-0.1076,-0.1076,-0.074,-0.0539,-0.0539,-0.0197,0.0,0.0,0.0,0.0,0.0,0.0,0.0,0.0,0.0,0.0,0.0,0.0,0.0168,0.0449,0.0456,0.0648,0.0987,0.1376,0.1549,0.1612,0.1946,0.1678,0.1076,0.1478,0.1344,0.1143,0.1679,0.168,0.1614,0.2213,0.2412,0.2479,0.3015,0.3349,0.3616,0.3751,0.402,0.4353,0.4755,0.5093,0.5428,0.5428,0.5506,0.5639,0.5639,0.5817,0.6048,0.6404,0.6524,0.6616,0.7016,0.6702,0.6337,0.616,0.6734,0.7187,0.7187,0.7781,0.8223,0.8397,0.8217,0.8211,0.8645,0.8723,0.8869,0.9117,0.9451,0.971,0.9961,1.0012,1.0115,1.0364,1.0685,1.099,1.1242,1.1242,1.1401,1.1728,1.1728,1.1927,1.2382,1.2382,1.2618,0.0,0.0,0.2397,0.0,0.0,0.2397,0.0,0.0,0.0,0.235,0.2178,0.2071,0.2183,0.2027,0.0,0.1815,0.0,0.0,0.0,0.0768,0.0,0.0134,0.0067,0.0,0.0067,0.0,0.0,0.0,0.0,0.0,0.0,0.0,0.0,0.0,0.0,0.0,0.0,0.0,0.0056,0.0168,0.0168,0.0505,0.1066,0.1093,0.1427,0.2037,0.2145,0.2209,0.2347,0.2482,0.2547,0.2547,0.2415,0.2213,0.2147,0.2551,0.2684,0.2753,0.3082,0.3282,0.3418,0.3551,0.4018,0.4489,0.4489,0.4957,0.5428,0.5557,0.5624,0.5624,0.5756,0.6108,0.6447,0.6447,0.6759,0.7123,0.7244,0.7305,0.7355,0.7601,0.774,0.7611,0.6984,0.7202,0.7509,0.7503,0.8092,0.8594,0.8942,0.8963,0.9254,1.0108,1.0006,1.0015,1.0466,1.0454,1.0466,1.0576,1.0576,1.0626,1.0728,1.1209,1.1669,1.2224,1.2224,1.2274,1.2314,1.2314,1.2471,1.2676,1.2676,1.3055,0.0,0.0,0.0,0.0,0.3753,0.0,0.0,0.0,0.3553,0.3578,0.0,0.2772,0.0,0.0,0.0,0.0,0.0,0.0,0.2062,0.2005,0.1569,0.0582,0.0195,0.0066,0.0269,0.0132,0.0,0.0,0.0,0.0,0.0,0.0,0.0,0.0,0.0,0.0,0.0,0.0,0.028,0.0785,0.0785,0.1121,0.1679,0.1685,0.1804,0.2034,0.2657,0.2935,0.3149,0.3954,0.4289,0.4223,0.3418,0.2681,0.2213,0.3286,0.3222,0.282,0.382,0.4154,0.4287,0.4957,0.5226,0.5292,0.5292,0.5362,0.5491,0.6141,0.6268,0.64,0.6994,0.7237,0.7288,0.7288,0.7335,0.751,0.8217,0.8345,0.8484,0.9105,0.906,0.8661,0.7898,0.7935,0.8162,0.8262,0.8524,0.8811,0.8968,0.9701,1.0307,1.0593,1.0739,1.0846,1.0953,1.0605,1.0626,1.1167,1.1217,1.1418,1.1868,1.1977,1.2224,1.2627,1.2627,1.2764,1.3074,1.3074,1.2939,1.2676,1.2676,1.29,0.0,0.0,0.0,0.0,0.0,0.0,0.3773,0.0,0.3826,0.0,0.0,0.0,0.0,0.0,0.0,0.0,0.2938,0.0,0.0,0.0,0.2015,0.0,0.0,0.0,0.0938,0.0328,0.0,0.0,0.0,0.0,0.0,0.0391,0.0632,0.0545,0.095,0.11,0.1064,0.1064,0.1175,0.14,0.14,0.1734,0.2347,0.2347,0.2581,0.3053,0.3351,0.3559,0.3829,0.4212,0.4402,0.4463,0.4077,0.3774,0.362,0.4289,0.4289,0.4025,0.4691,0.4957,0.5024,0.5749,0.6013,0.6075,0.6474,0.6539,0.6601,0.6929,0.699,0.7055,0.7321,0.7712,0.8037,0.8037,0.8366,0.8694,0.9017,0.9081,0.9151,0.942,0.9256,0.9034,0.8812,0.9112,0.9342,0.9228,0.9888,1.035,1.0173,1.0703,1.1246,1.1704,1.1842,1.1978,1.2312,1.2165,1.2079,1.2118,1.2109,1.2112,1.2085,1.2557,1.2767,1.2686,1.291,1.3084,1.3218,1.3218,1.3228,1.3344,1.3344,1.3525,0.374,0.0,0.0,0.0,0.0,0.0,0.0,0.0,0.0,0.0,0.0,0.0,0.0,0.0,0.0,0.0,0.0,0.3522,0.0,0.3181,0.0,0.0,0.0,0.0,0.0,0.1039,0.0647,0.0671,0.0,0.0583,0.0605,0.1054,0.1349,0.1247,0.1755,0.1936,0.1873,0.1798,0.1902,0.2068,0.2068,0.2348,0.2961,0.2961,0.3244,0.3812,0.3812,0.3943,0.4186,0.4244,0.4363,0.4482,0.4543,0.454,0.4649,0.5036,0.5192,0.5163,0.5687,0.5913,0.6017,0.6531,0.6662,0.6793,0.7256,0.7386,0.7451,0.7647,0.7712,0.7712,0.7907,0.8361,0.8753,0.8753,0.9151,0.9484,0.9484,0.9484,0.9548,0.9676,0.9568,0.955,0.9995,1.0032,1.0037,0.998,1.086,1.1416,1.132,1.1743,1.2222,1.2728,1.2811,1.3046,1.3451,1.336,1.3166,1.2898,1.287,1.2735,1.2431,1.3237,1.3469,1.3027,1.3349,1.3532,1.3552,1.3552,1.3705,1.3952,1.3868,1.401,0.0,0.0,0.0,0.4113,0.0,0.0,0.0,0.0,0.6106,0.0,0.0,0.0,0.0,0.0,0.0,0.0,0.0,0.0,0.0,0.0,0.0,0.0,0.0,0.0,0.0,0.2354,0.2208,0.0,0.2105,0.1963,0.2007,0.2078,0.205,0.2055,0.1999,0.2001,0.1997,0.1877,0.2069,0.2681,0.2681,0.2963,0.3583,0.3583,0.3645,0.3812,0.3812,0.3943,0.4183,0.436,0.4482,0.4607,0.4796,0.4799,0.4681,0.5286,0.5628,0.5955,0.6782,0.7158,0.7321,0.7386,0.7386,0.7386,0.7386,0.7386,0.7582,0.8291,0.849,0.8619,0.9285,0.9484,0.9484,0.9484,0.9484,0.9484,0.9484,0.9484,0.967,1.018,1.0301,1.0598,1.1538,1.058,0.9877,1.0322,1.0842,1.1428,1.1982,1.263,1.3132,1.3434,1.3678,1.3864,1.3864,1.3516,1.3273,1.3269,1.3333,1.3331,1.318,1.4134,1.4348,1.3784,1.423,1.4435,1.4373,1.4373,1.4373,1.4373,1.3952,1.401,0.0,0.0,0.3741,0.4135,0.0,0.0,0.0,0.0,0.0,0.0,0.0,0.0,0.0,0.0,0.0,0.0,0.0,0.0,0.0,0.0,0.0,0.0,0.0,0.0,0.0,0.0,0.0,0.0,0.2078,0.0,0.2074,0.2547,0.2779,0.2704,0.3122,0.3375,0.3271,0.3168,0.3232,0.3402,0.3332,0.3413,0.3585,0.3585,0.3604,0.3642,0.3642,0.3835,0.4101,0.4552,0.4837,0.5129,0.5764,0.5981,0.5877,0.5763,0.5793,0.6026,0.698,0.733,0.7451,0.7967,0.8102,0.8231,0.863,0.8759,0.8823,0.9087,0.9151,0.9215,0.9414,0.9484,0.9484,0.9484,0.9798,1.0053,1.0053,1.0301,1.0548,1.0737,1.0737,1.0919,1.1531,1.1478,1.1563,1.1977,1.2797,1.3392,1.331,1.3714,1.4055,1.4121,1.4259,1.4295,1.4295,1.3919,1.3682,1.37,1.4019,1.4043,1.3721,1.4836,1.5184,1.4723,1.5135,1.5185,1.4864,1.4864,1.469,1.4373,1.428,1.4291,0.3585,0.3694,0.0,0.4346,0.4618,0.0,0.5769,0.0,0.6685,0.0,0.0,0.0,0.0,0.0,0.0,0.0,0.0,0.0,0.0,0.5994,0.0,0.0,0.0,0.0,0.0,0.3486,0.3026,0.312,0.2957,0.0,0.0,0.0,0.3657,0.3466,0.388,0.408,0.4001,0.3879,0.3797,0.3809,0.3735,0.3623,0.3585,0.3585,0.3749,0.3965,0.3855,0.4128,0.4732,0.5011,0.5372,0.5827,0.6403,0.6673,0.6755,0.6593,0.6768,0.7158,0.7891,0.8172,0.8236,0.8689,0.8882,0.8952,0.935,0.9484,0.9484,0.9484,0.9484,0.9484,0.9484,0.9484,0.9484,0.9484,0.9926,1.0301,1.0301,1.0674,1.1052,1.124,1.1358,1.1608,1.2135,1.2589,1.2959,1.3017,1.3791,1.4287,1.4139,1.4508,1.4734,1.4734,1.4911,1.5029,1.5029,1.463,1.4439,1.4598,1.4887,1.4974,1.4639,1.5729,1.6031,1.5403,1.5823,1.5836,1.5367,1.5367,1.5116,1.4635,1.4635,1.4548]},{"header":{"parameterUnit":"m.s-1","parameterCategory":1,"la1":30.6,"la2":29.2853,"lo1":-89.7004,"lo2":-87.6739,"dy":0.0162,"dx":0.0183,"nx":112,"ny":82,"refTime":"2024-08-18T06:00:00:Z","depth":0,"parameterNumber":3,"parameterNumberName":"V-component_of_WINDS"},"data":[0.0,0.0,0.0,0.0,0.0,0.0,0.0,0.0,0.0,0.0,0.0,0.0,0.0,0.0,0.0,0.0,0.0,0.0,0.0,0.0,0.0,0.0,0.0,0.0,0.0,0.0,0.0,0.0,0.0,0.0,0.0,0.0,0.0,0.0,0.0,0.0,0.0,0.0,0.0,0.0,0.0,0.0,0.0,0.0,0.0,0.0,0.0,0.0,0.0,0.0,0.0,0.0,0.0,0.0,0.0,0.0,0.0,0.0,0.0,0.0,0.0,0.0,0.0,0.0,0.0,0.0,0.0,0.0,0.0,0.0,0.0,0.0,0.0,0.0,0.0,0.0,0.0,0.0,0.0,0.0,0.0,0.0,0.0,0.0,0.0,0.0,0.0,0.0,0.0,0.0,0.0964,1.0324,1.4443,1.7363,1.9505,1.9518,1.7734,1.3979,0.0,0.0,0.0,0.0,0.0,0.0,0.0,0.0,0.0,0.0,0.0,0.0,0.0,0.0,0.0,0.0,0.0,0.0,0.0,0.0,0.0,0.0,0.0,0.0,0.0,0.0,0.0,0.0,0.0,0.0,0.0,0.0,0.0,0.0,0.0,0.0,0.0,0.0,0.0,0.0,0.0,0.0,0.0,0.0,0.0,0.0,0.0,0.0,0.0,0.0,0.0,0.0,0.0,0.0,0.0,0.0,0.0,0.0,0.0,0.0,0.0,0.0,0.0,0.0,0.0,0.0,0.0,0.0,0.0,0.0,0.0,0.0,0.0,0.0,0.0,0.0,0.0,0.0,0.0,0.0,0.0,0.0,0.0,0.0,0.0,0.0,0.0,0.0,0.0,0.0,0.0,0.0,0.0,0.0,0.0,0.0,0.0,0.0,0.0,0.0,0.0,0.0,0.0,0.0,0.0853,0.3208,0.4058,0.3413,0.0848,0.216,0.3072,0.3111,0.0,0.0,0.0,0.0,0.0,0.0,0.0,0.0,0.0,0.0,0.0,0.0,0.0,0.0,0.0,0.0,0.0,0.0,0.0,0.0,0.0,0.0,0.0,0.0,0.0,0.0,0.0,0.0,0.0,0.0,0.0,0.0,0.0,0.0,0.0,0.0,0.0,0.0,0.0,0.0,0.0,0.0,0.0,0.0,0.0,0.0,0.0,0.0,0.0,0.0,0.0,0.0,0.0,0.0,0.0,0.0,0.0,0.0,0.0,0.0,0.0,0.0,0.0,0.0,0.0,0.0,0.0,0.0,0.0,0.0,0.0,0.0,0.0,0.0,0.0,0.0,0.0,0.0,0.0,0.0,0.0,0.0,0.0,0.0,0.0,0.0,0.0,0.0,0.0,0.0,0.0,0.0,0.0,0.0,0.0,0.0,0.0,0.0,0.0,0.0,0.0,0.0,0.0,-0.124,0.3585,0.3478,0.3421,0.2741,0.1116,0.1531,0.0822,-0.1575,0.2998,0.0,0.0,0.0,0.0,0.0,0.0,0.0,0.0,0.0,0.0,0.0,0.0,0.0,0.0,0.0,0.0,0.0,0.0,0.0,0.0,0.0,0.0,0.0,0.0,0.0,0.0,0.0,0.0,0.0,0.0,0.0,0.0,0.0,0.0,0.0,0.0,0.0,0.0,0.0,0.0,0.0,0.0,0.0,0.0,0.0,0.0,0.0,0.0,0.0,0.0,0.0,0.0,0.0,0.0,0.0,0.0,0.0,0.0,0.0,0.0,0.0,0.0,0.0,0.0,0.0,0.0,0.0,0.0,0.0,0.0,0.0,0.0,0.0,0.0,0.0,0.0,0.0,0.0,0.0,0.0,0.0,0.0,0.0,0.0,0.0,0.0,0.0,0.0,0.0,0.0,0.0,0.0,0.0,0.0,0.0,0.0,0.0,0.0,0.0,0.0,0.0,0.0,0.1631,0.3801,0.1704,0.0992,0.0281,-0.0772,-0.0868,-0.2566,-0.6551,-0.545,0.0,0.0,0.0,0.0,0.0,0.0,0.0,0.0,0.0,0.0,0.0,0.0,0.0,0.0,0.0,0.0,0.0,0.0,0.0,0.0,0.0,0.0,0.0,0.0,0.0,0.0,0.0,0.0,0.0,0.0,0.0,0.0,0.0,0.0,0.0,0.0,0.0,0.0,0.0,0.0,0.0,0.0,0.0,0.0,0.0,0.0,0.0,0.0,0.0,0.0,0.0,0.0,0.0,0.0,0.0,0.0,0.0,0.0,0.0,0.0,0.0,0.0,0.0,0.0,0.0,0.0,0.0,0.0,0.0,0.0,0.0,0.0,0.0,0.0,0.0,0.0,0.0,0.0,0.0,0.0,0.0,0.0,0.0,0.0,0.0,0.0,0.0,0.0,0.0,0.0,0.0,0.0,0.0,0.0,0.0,0.0,0.0,0.0,0.0,0.0,0.0,0.0,-0.0127,-0.2609,-0.8096,-1.0168,-1.2877,-1.7079,-1.5891,-1.506,-1.5317,-1.224,0.0,0.0,0.0,0.0,0.0,0.0,0.0,0.0,0.0,0.0,0.0,0.0,0.0,0.0,0.0,0.0,0.0,0.0,0.0,0.0,0.0,0.0,0.0,0.0,0.0,0.0,0.0,0.0,0.0,0.0,0.0,0.0,0.0,0.0,0.0,0.0,0.0,0.0,0.0,0.0,0.0,0.0,0.0,0.0,0.0,0.0,0.0,0.0,0.0,0.0,0.0,0.0,0.0,0.0,0.0,0.0,0.0,0.0,0.0,0.0,0.0,0.0,0.0,0.0,0.0,0.0,0.0,0.0,0.0,0.0,0.0,0.0,0.0,0.0,0.0,0.0,0.0,0.0,0.0,0.0,0.0,0.0,0.0,0.0,0.0,0.0,0.0,0.0,0.0,0.0,0.0,0.0,0.0,0.0,0.0,0.0,0.0,0.0,0.0,0.0,0.0,0.0,-0.255,-0.4201,-0.8118,-0.8664,-0.9983,-1.3244,-1.2804,-1.2681,-1.3452,0.0,0.0,0.0,0.0,0.0,0.0,0.0,0.0,0.0,0.0,0.0,0.0,0.0,0.0,0.0,0.0,0.0,0.0,0.0,0.0,0.0,0.0,0.0,0.0,0.0,0.0,0.0,0.0,0.0,0.0,0.0,0.0,0.0,0.0,0.0,0.0,0.0,0.0,0.0,0.0,0.0,0.0,0.0,0.0,0.0,0.0,0.0,0.0,0.0,0.0,0.0,0.0,0.0,0.0,0.0,0.0,0.0,0.0,0.0,0.0,0.0,0.0,0.0,0.0,0.0,0.0,0.0,0.0,0.0,0.0,0.0,0.0,0.0,0.0,0.0,0.0,0.0,0.0,0.0,0.0,0.0,0.0,0.0,0.0,0.0,0.0,0.0,0.0,0.0,0.0,0.0,0.0,0.0,0.0,0.0,0.0,0.0,0.0,0.0,0.0,0.0,0.0,-0.4754,-0.4793,-0.5524,-0.7664,-0.7692,-0.8181,-0.9569,-0.9991,-1.0473,-1.1243,0.0,0.0,0.0,0.0,0.0,0.0,0.0,0.0,0.0,0.0,0.0,0.0,0.0,0.0,0.0,0.0,0.0,0.0,0.0,0.0,0.0,0.0,0.0,0.0,0.0,0.0,0.0,0.0,0.0,0.0,0.0,0.0,0.0,0.0,0.0,0.0,0.0,0.0,0.0,0.0,0.0,0.0,0.0,0.0,0.0,0.0,0.0,0.0,0.0,0.0,0.0,0.0,0.0,0.0,0.0,0.0,0.0,0.0,0.0,0.0,0.0,0.0,0.0,0.0,0.0,0.0,0.0,0.0,0.0,0.0,0.0,0.0,0.0,0.0,0.0,0.0,0.0,0.0,0.0,0.0,0.0,0.0,0.0,0.0,0.0,0.0,0.0,0.0,0.0,0.0,0.0,0.0,0.0,0.0,0.0,0.0,0.0,0.0,0.0,0.0,0.0,0.0,-0.6163,-0.6688,-0.7215,-0.7936,-0.9188,-0.9657,-0.8921,-0.9995,-1.0478,0.0,0.0,0.0,0.0,0.0,0.0,0.0,0.0,0.0,0.0,0.0,0.0,0.0,0.0,0.0,0.0,0.0,0.0,0.0,0.0,0.0,0.0,0.0,0.0,0.0,0.0,0.0,0.0,0.0,0.0,0.0,0.0,0.0,0.0,0.0,0.0,0.0,0.0,0.0,0.0,0.0,0.0,0.0,0.0,0.0,0.0,0.0,0.0,0.0,0.0,0.0,0.0,0.0,0.0,0.0,0.0,0.0,0.0,0.0,0.0,0.0,0.0,0.0,0.0,0.0,0.0,0.0,0.0,0.0,0.0,0.0,0.0,0.0,0.0,0.0,0.0,0.0,0.0,0.0,0.0,0.0,0.0,0.0,0.0,0.0,0.0,0.0,0.0,0.0,0.0,0.0,0.0,0.0,0.0,0.0,0.0,0.0,0.0,0.0,0.0,0.0,0.0,0.0,-0.7348,-0.7542,-0.8038,-0.9285,-0.9887,-1.0279,-1.0416,-1.089,-1.117,-1.1195,0.0,0.0,0.0,0.0,0.0,0.0,0.0,0.0,0.0,0.0,0.0,0.0,0.0,0.0,0.0,0.0,0.0,0.0,0.0,0.0,0.0,0.0,0.0,0.0,0.0,0.0,0.0,0.0,0.0,0.0,0.0,0.0,0.0,0.0,0.0,0.0,0.0,0.0,0.0,0.0,0.0,0.0,0.0,0.0,0.0,0.0,0.0,0.0,0.0,0.0,0.0,0.0,0.0,0.0,0.0,0.0,0.0,0.0,0.0,0.0,0.0,0.0,0.0,0.0,0.0,0.0,0.0,0.0,0.0,0.0,0.0,0.0,0.0,0.0,0.0,0.0,0.0,0.0,0.0,0.0,0.0,0.0,0.0,0.0,0.0,0.0,0.0,0.0,0.0,0.0,0.0,0.0,0.0,0.0,0.0,0.0,0.0,0.0,0.0,0.0,0.0,0.0,-0.8799,-0.8783,-0.9106,-1.0412,-1.0726,-1.0884,-1.0872,-1.1719,-1.199,-1.1517,0.0,0.0,0.0,0.0,0.0,0.0,0.0,0.0,0.0,0.0,0.0,0.0,0.0,0.0,0.0,0.0,0.0,0.0,0.0,0.0,0.0,0.0,0.0,0.0,0.0,0.0,0.0,0.0,0.0,0.0,0.0,0.0,0.0,0.0,0.0,0.0,0.0,0.0,0.0,0.0,0.0,0.0,0.0,0.0,0.0,0.0,0.0,0.0,0.0,0.0,0.0,0.0,0.0,0.0,0.0,0.0,0.0,0.0,0.0,0.0,0.0,0.0,0.0,0.0,0.0,0.0,0.0,0.0,0.0,0.0,0.0,0.0,0.0,0.0,0.0,0.0,0.0,0.0,0.0,0.0,0.0,0.0,0.0,0.0,0.0,0.0,0.0,0.0,0.0,0.0,0.0,0.0,0.0,0.0,0.0,0.0,0.0,0.0,0.0,0.0,0.0,0.0,-1.007,-1.0082,-1.0248,-1.121,-1.1548,-1.1445,-1.0808,-1.2352,-1.2812,-1.1474,0.0,0.0,0.0,0.0,0.0,0.0,0.0,0.0,0.0,0.0,0.0,0.0,0.0,0.0,0.0,0.0,0.0,0.0,0.0,0.0,0.0,0.0,0.0,0.0,0.0,0.0,0.0,0.0,0.0,0.0,0.0,0.0,0.0,0.0,0.0,0.0,0.0,0.0,0.0,0.0,0.0,0.0,0.0,0.0,0.0,0.0,0.0,0.0,0.0,0.0,0.0,0.0,0.0,0.0,0.0,0.0,0.0,0.0,0.0,0.0,0.7295,0.0,0.0,0.0,0.0,0.0,0.0,0.0,0.0,0.0,0.0,0.0,0.0,0.0,0.0,0.0,0.0,0.0,0.0,0.0,0.0,0.0,0.0,0.0,0.0,0.0,0.0,0.0,0.0,0.0,0.0,0.0,0.0,0.0,0.0,0.0,0.0,0.0,0.0,0.0,0.0,0.0,-0.9511,-0.9916,-1.0366,-1.1051,-1.1495,-1.1736,-1.1824,-1.2697,-1.3155,-1.2923,-1.2889,0.0,0.0,0.0,0.0,0.0,0.0,0.0,0.0,0.0,0.0,0.0,0.0,0.0,0.0,0.0,0.0,0.0,0.0,0.0,0.0,0.0,0.0,0.0,0.0,0.0,0.0,0.0,0.0,0.0,0.0,0.0,0.0,0.0,0.0,0.0,0.0,0.0,0.0,0.0,0.0,0.0,0.0,0.0,0.0,0.0,0.0,0.0,0.0,0.0,0.0,0.0,0.0,0.0,0.0,0.0,0.0,0.0,0.0,0.0,0.0,0.6817,0.0,0.0,0.0,0.0,0.0,0.0,0.0,0.0,0.0,0.0,0.0,0.0,0.0,0.0,0.0,0.0,0.0,0.0,0.0,0.0,0.0,0.0,0.0,0.0,0.0,0.0,0.0,0.0,0.0,0.0,0.0,0.0,0.0,0.0,0.0,0.0,0.0,0.0,0.0,0.0,-1.0388,-1.0378,-1.0607,-1.139,-1.1264,-1.1319,-1.1898,-1.2777,-1.3349,-1.3474,-1.3357,0.0,0.0,0.0,0.0,0.0,0.0,0.0,0.0,0.0,0.0,0.0,0.0,0.0,0.0,0.0,0.0,0.0,0.0,0.0,0.0,0.0,0.0,0.0,0.0,0.0,0.0,0.0,0.0,0.0,0.0,0.0,0.0,0.0,0.0,0.0,0.0,0.0,0.0,0.0,0.0,0.0,0.0,0.0,0.0,0.0,0.0,0.0,0.0,0.0,0.0,0.0,0.0,0.0,1.0331,1.0499,1.0755,0.9446,0.8907,0.8942,0.7597,0.7549,0.8219,0.6458,0.0,0.0,0.0,0.0,0.0,0.0,0.0,0.0,0.0,0.0,0.0,0.0,0.0,0.0,0.0,0.0,0.0,0.0,0.0,0.0,0.0,0.0,0.0,0.0,-0.4448,-0.5652,0.0,0.0,0.0,0.0,0.0,0.0,0.0,0.0,0.0,0.0,0.0,0.0,-1.123,-1.0975,-1.095,-1.1783,-1.113,-1.0979,-1.1921,-1.28,-1.3437,-1.38,-1.3729,-1.3633,0.0,0.0,0.0,0.0,0.0,0.0,0.0,0.0,0.0,0.0,0.0,0.0,0.0,0.0,0.0,0.0,0.0,0.0,0.0,0.0,0.0,0.0,0.0,0.0,0.0,0.0,0.0,0.0,0.0,0.0,0.0,0.0,1.2522,1.2519,0.0,0.0,0.0,0.0,0.0,0.0,0.0,0.0,0.0,0.0,0.0,0.0,0.0,1.0133,1.0455,1.0748,1.0909,1.0946,1.1231,1.1453,1.1428,1.0039,0.9731,1.0171,0.8265,0.0,0.7042,0.6592,0.0,0.0,0.0,0.0,0.0,0.0,0.0,0.0,0.0,0.0,0.0,0.0,0.0,0.0,0.0,0.0,0.0,0.0,0.0,0.0,0.0,0.0,-0.2669,-0.2536,-0.3682,-0.4718,0.0,-0.624,-0.7618,-0.7231,-0.7374,0.0,0.0,0.0,0.0,0.0,0.0,0.0,-1.0148,-1.0756,-1.1323,-1.1743,-1.1459,-1.171,-1.2997,-1.2958,-1.3426,-1.4628,-1.4835,-1.4629,-1.4109,-1.3613,0.0,0.0,0.0,0.0,0.0,0.0,0.0,0.0,0.0,0.0,0.0,0.0,0.0,0.0,0.0,0.0,0.0,0.0,0.0,0.0,0.0,0.0,0.0,0.0,0.0,0.0,0.0,0.0,0.0,1.19,1.282,1.2925,1.2899,1.2705,0.0,0.0,0.0,0.0,0.0,0.0,0.0,0.0,0.0,1.1254,1.1219,1.1341,1.167,1.1681,1.1754,1.1889,1.1435,1.1269,1.1233,1.0185,0.9586,0.9326,0.8296,0.7614,0.7177,0.6716,0.6278,0.5868,0.0,0.0,0.0,0.0,0.4116,0.4179,0.3931,0.3921,0.0,0.3372,0.0,0.0,0.0,0.0,0.0,0.0,0.0,0.0,0.0,0.0,-0.2839,-0.2961,-0.4037,-0.4947,-0.4843,-0.6138,-0.7231,0.0,-0.7419,-0.8001,-0.8807,0.0,0.0,0.0,0.0,-0.9713,-1.0324,-1.0574,-1.0934,-1.1686,-1.1402,-1.1704,-1.2897,-1.2871,-1.3426,-1.4915,-1.488,-1.4744,-1.4608,-1.3849,-1.2966,0.0,0.0,0.0,0.0,0.0,0.0,0.0,0.0,0.0,0.0,0.0,0.0,0.0,0.0,0.0,0.0,0.0,0.0,0.0,0.0,0.0,0.0,0.0,0.0,0.0,0.0,0.0,0.0,1.2454,1.3082,1.3376,1.3587,1.3448,0.0,0.0,0.0,0.0,0.0,0.0,1.1233,1.1349,1.1511,1.1787,1.2036,1.2277,1.2519,1.2383,1.2383,1.2519,1.1758,1.1296,1.1076,1.0269,0.9464,0.8581,0.826,0.7897,0.7447,0.6907,0.6541,0.625,0.5758,0.5468,0.5217,0.4867,0.4683,0.4534,0.4367,0.4243,0.4043,0.3607,0.0,0.3125,0.238,0.0,0.0,0.0,0.0,-0.0235,-0.143,-0.2242,-0.2862,-0.3314,-0.4324,-0.5162,-0.4954,-0.5868,-0.6779,0.0,-0.7367,-0.8082,-0.8994,0.0,0.0,0.0,0.0,-0.9437,-1.0305,-1.0379,-1.0685,-1.1569,-1.1418,-1.1801,-1.3054,-1.2919,-1.3437,-1.5153,-1.4891,-1.4743,-1.496,-1.4249,-1.3487,-1.2711,0.0,0.0,0.0,0.0,0.0,0.0,0.0,0.0,0.0,0.0,0.0,0.0,0.0,0.0,0.0,0.0,0.0,0.0,0.0,0.0,0.0,0.0,0.0,0.0,0.0,0.0,0.0,0.0,0.0,1.4179,1.4017,0.0,0.0,0.0,0.0,1.1799,1.1817,1.2016,1.231,1.2097,1.2116,1.246,1.2489,1.2504,1.2519,1.2519,1.2519,1.2519,1.2451,1.203,1.1253,1.056,0.9736,0.8772,0.8097,0.7717,0.7456,0.7256,0.6874,0.6438,0.599,0.5516,0.5079,0.4901,0.468,0.4538,0.4804,0.4556,0.4134,0.418,0.4057,0.3699,0.291,0.2388,0.0,0.0,0.0385,0.0065,-0.0864,-0.1674,-0.2342,-0.3076,-0.4126,-0.4884,-0.4498,-0.5679,-0.6815,0.0,-0.729,-0.7908,-0.8601,0.0,-0.8895,-0.8699,-0.9176,-0.9496,-0.9316,-1.0131,-1.0998,-1.156,-1.1619,-1.2344,-1.4061,-1.318,-1.342,-1.5525,-1.5198,-1.496,-1.5062,-1.5266,-1.4676,-1.321,-1.2318,0.0,0.0,0.0,0.0,0.0,0.0,0.0,0.0,0.0,0.0,0.0,0.0,0.0,0.0,0.0,0.0,0.0,0.0,0.0,0.0,0.0,0.0,0.0,0.0,0.0,0.0,0.0,0.0,1.4697,1.4546,0.0,1.3671,1.294,1.2431,1.2314,1.2313,1.231,1.243,1.2549,1.2716,1.2833,1.3038,1.3148,1.3148,1.3006,1.3006,1.3148,1.2492,1.2026,1.1697,1.0845,1.0002,0.9077,0.8507,0.8063,0.7655,0.732,0.7158,0.715,0.6952,0.6784,0.6599,0.6153,0.6,0.586,0.56,0.5209,0.4683,0.4324,0.4124,0.3982,0.3571,0.3385,0.299,0.1781,0.1351,0.0842,-0.0801,-0.1746,-0.2482,-0.3353,-0.4069,-0.4565,-0.4562,-0.5582,-0.652,-0.6708,-0.7412,-0.8232,-0.9137,-0.8889,-0.8624,-0.8961,-0.8806,-0.8728,-0.9008,-0.9865,-1.0677,-1.1384,-1.171,-1.2353,-1.3742,-1.2997,-1.3276,-1.5051,-1.4903,-1.4846,-1.496,-1.5142,-1.4699,-1.3465,-1.285,-1.1954,0.0,0.0,0.0,0.0,0.0,0.0,0.0,0.0,0.0,0.0,0.0,0.0,0.0,0.0,0.0,0.0,0.0,0.0,0.0,0.0,0.0,0.0,0.0,0.0,0.0,0.0,1.4798,1.4956,1.4969,1.4704,1.4081,1.3433,1.2937,1.2759,1.2713,1.2687,1.2687,1.2994,1.317,1.317,1.3382,1.3492,1.3492,1.3346,1.3346,1.3492,1.2826,1.2344,1.2076,1.1427,1.0701,0.9732,0.9066,0.8581,0.8165,0.7546,0.7396,0.7521,0.7391,0.7461,0.7456,0.7003,0.6806,0.6609,0.6086,0.5554,0.5008,0.459,0.4308,0.41,0.3953,0.3867,0.3563,0.2271,0.1762,0.1245,-0.0735,-0.1613,-0.2216,-0.3353,-0.3769,-0.4046,-0.4564,-0.5583,-0.6498,-0.6822,-0.7699,-0.8556,-0.9204,-0.8878,-0.8729,-0.9306,-0.8758,-0.8526,-0.9309,-0.9814,-1.0401,-1.108,-1.1627,-1.2346,-1.341,-1.3017,-1.333,-1.4823,-1.4755,-1.4846,-1.5142,-1.5244,-1.4915,-1.4082,-1.302,-1.1981,-1.0981,0.0,0.0,0.0,0.0,0.0,0.0,0.0,0.0,0.0,0.0,0.0,0.0,0.0,0.0,0.0,0.0,0.0,0.0,0.0,0.0,0.0,0.0,0.0,1.5434,1.5257,1.5154,1.5081,1.5259,1.5137,1.4428,1.387,1.3486,1.3199,1.3117,1.3023,1.3023,1.3323,1.3492,1.3492,1.3492,1.3492,1.3492,1.3492,1.3492,1.3492,1.3492,1.3119,1.2305,1.2305,1.1773,1.0773,0.9814,0.922,0.8902,0.7946,0.7531,0.7461,0.7265,0.733,0.7461,0.7265,0.7003,0.6675,0.6086,0.5557,0.5153,0.5087,0.4761,0.4231,0.3894,0.3825,0.3491,0.2016,0.1614,0.121,-0.0605,-0.1076,-0.1478,-0.2815,-0.3213,-0.348,-0.4558,-0.5678,-0.6619,-0.7093,-0.8122,-0.8842,-0.8724,-0.8842,-0.9102,-0.9693,-0.9026,0.0,-0.9992,-1.0057,-1.0172,-1.0679,-1.1407,-1.231,-1.324,-1.3099,-1.3561,-1.4789,-1.4755,-1.4994,-1.5671,-1.5671,-1.5435,-1.4858,-1.2853,-1.1281,-1.0228,0.0,0.0,0.0,0.0,0.0,0.0,0.0,0.0,0.0,0.0,0.0,0.0,0.0,0.0,0.0,0.0,0.0,0.0,0.0,0.0,0.0,1.6162,1.6196,1.5607,1.571,1.5923,1.6161,1.6014,1.5819,1.5638,1.5469,1.5057,1.4299,1.4353,1.4055,1.3432,1.3448,1.3492,1.3492,1.3492,1.3492,1.3492,1.3492,1.3492,1.3492,1.3492,1.3346,1.3127,1.2599,1.2184,1.1866,1.0857,0.9955,0.9162,0.8778,0.8184,0.7521,0.7461,0.7461,0.7521,0.7461,0.733,0.7195,0.6675,0.6412,0.6145,0.5352,0.502,0.4758,0.4298,0.4164,0.3828,0.235,0.1879,0.1477,-0.0135,-0.0875,-0.1479,-0.2415,-0.2969,-0.3528,-0.4472,-0.5678,-0.6687,-0.6833,-0.7991,-0.8977,-0.9105,-0.8834,-0.869,-0.909,-0.8687,0.0,-0.8915,-0.9543,-1.0336,-1.111,-1.1625,-1.2299,-1.3352,-1.3184,-1.3339,-1.4212,-1.4525,-1.4903,-1.5402,-1.53,-1.4777,-1.3684,-1.2675,-1.1781,0.0,0.0,0.0,0.0,0.0,0.0,0.0,0.0,0.0,0.0,0.0,0.0,0.0,0.0,0.0,0.0,0.0,0.0,0.0,0.0,0.0,0.0,1.6962,1.692,1.6373,1.6342,1.6443,1.6595,1.6512,1.6437,1.6299,1.616,1.5733,1.5066,1.4648,1.4209,1.3645,1.3564,1.3492,1.3492,1.3492,1.3492,1.3492,1.3492,1.3492,1.3492,1.3492,1.3492,1.3499,1.3046,1.282,0.0,1.1762,1.0972,1.0377,0.9395,0.8631,0.0,0.0,0.0,0.0,0.0,0.7521,0.7456,0.7129,0.6868,0.6544,0.5686,0.5289,0.5024,0.4431,0.43,0.403,0.2883,0.228,0.1744,0.0605,-0.0202,-0.1009,-0.2013,-0.2517,-0.3152,-0.4342,-0.5473,-0.6338,-0.6654,-0.7647,0.0,-0.9017,-0.8775,-0.8805,-0.9419,-0.8989,-0.8772,-0.9242,-0.9672,-1.0207,-1.0842,-1.1256,-1.1779,-1.2609,-1.273,0.0,0.0,0.0,-1.4351,-1.4686,-1.4582,0.0,0.0,0.0,0.0,0.0,0.0,0.0,0.0,-1.0747,-1.0672,0.0,0.0,0.0,0.0,0.0,0.0,0.0,0.0,0.0,0.0,0.0,0.0,0.0,0.0,0.0,0.0,1.774,1.7899,1.739,1.7043,1.6807,1.6684,1.6926,1.7022,1.6756,1.6459,1.6147,1.579,1.484,1.4145,1.3935,0.0,0.0,0.0,0.0,1.3499,1.3499,1.3499,1.3492,1.3492,1.3492,1.3492,1.3492,1.3492,1.3492,1.3477,1.2527,1.209,1.1874,1.0021,0.912,0.8847,0.7856,0.7521,0.7521,0.7521,0.7521,0.7521,0.7521,0.0,0.0,0.6086,0.5554,0.509,0.4498,0.43,0.4164,0.342,0.2681,0.1946,0.1276,0.0606,-0.0269,-0.1605,-0.2003,-0.2536,-0.4071,-0.4998,-0.5727,-0.6404,-0.719,-0.7842,-0.8501,-0.8678,-0.9052,-1.0021,-0.95,-0.9296,-1.0199,-1.004,-0.9926,-1.0364,0.0,0.0,-1.164,-1.2191,-1.2665,-1.319,-1.3614,-1.3826,-1.3805,-1.3905,-1.3785,-1.3401,-1.341,-1.3218,-1.2831,-1.2976,-1.2893,-1.2633,-1.2511,-1.2312,0.0,0.0,0.0,0.0,0.0,0.0,0.0,0.0,0.0,0.0,0.0,0.0,0.0,0.0,0.0,1.79,1.7961,1.7829,1.7389,1.7088,1.6955,1.6955,1.7423,1.7728,1.7626,1.8175,1.815,1.7345,1.7079,1.6385,1.4991,1.4919,1.4633,1.3985,1.3855,1.3717,1.3717,1.3572,1.3492,1.3492,0.0,0.0,1.3492,1.3492,1.3492,1.3492,1.3281,1.2734,1.1965,1.1257,1.0038,0.8554,0.7797,0.7521,0.7521,0.7521,0.7521,0.7521,0.7521,0.7456,0.7195,0.6218,0.5822,0.5624,0.4761,0.4431,0.0,0.3623,0.2883,0.2149,0.1479,0.074,0.0,-0.0849,-0.1556,-0.2268,-0.3245,-0.4403,-0.5338,-0.5519,-0.6662,-0.7456,-0.7321,-0.783,-0.8474,-0.8988,-0.8914,-0.8862,-0.9122,-0.9542,-1.0047,-1.0773,-1.1049,-1.1495,-1.2239,-1.26,-1.2919,-1.319,-1.4435,-1.4736,-1.3831,-1.4439,-1.4376,-1.349,-1.3383,-1.3204,-1.294,-1.3486,-1.3707,-1.3593,-1.3408,-1.3103,0.0,0.0,0.0,0.0,0.0,0.0,0.0,0.0,0.0,0.0,0.0,1.8724,1.986,0.0,1.9562,1.9899,1.9359,1.8767,1.8508,1.7931,1.7359,1.7043,1.7414,1.7764,1.7863,1.8117,1.8145,1.7891,1.7413,1.6784,1.5956,1.5816,1.5613,1.518,1.4776,1.4497,1.4497,1.4065,1.3775,1.3775,1.3775,1.3775,1.3775,1.3775,1.3775,1.3775,1.3775,1.3534,1.2971,1.2144,1.0868,0.9421,0.8663,0.8042,0.7521,0.7521,0.7591,0.7722,0.7722,0.7852,0.7857,0.7064,0.6539,0.6148,0.5481,0.4891,0.4498,0.4225,0.3353,0.2484,0.2083,0.1211,0.0201,-0.0519,-0.1029,-0.1608,-0.2702,-0.3471,-0.4207,-0.5055,-0.5741,-0.6334,-0.6793,-0.7362,-0.7782,-0.8096,-0.8468,-0.8695,-0.8554,-0.9081,-0.9786,-1.0351,-1.0513,-1.0863,-1.1692,-1.2178,-1.2521,-1.2822,-1.3429,-1.365,-1.3253,-1.3568,-1.3676,-1.3571,-1.358,-1.3512,-1.3425,-1.4093,-1.4301,-1.4068,-1.4185,-1.4059,0.0,0.0,0.0,0.0,0.0,0.0,0.0,1.8932,1.9112,2.0116,2.0213,2.0597,2.1958,2.1721,2.1368,2.1627,2.0668,1.983,1.962,1.8695,1.7788,1.7262,1.7477,1.7737,1.7975,1.792,1.7995,1.8287,1.7541,1.7051,1.6913,1.6576,1.6376,1.6237,1.548,1.5062,1.5062,1.4418,1.4129,1.4129,1.4129,1.4129,1.4129,1.4129,1.4129,1.4129,1.4129,1.4099,1.3912,1.2524,1.1484,1.0653,0.975,0.8812,0.7847,0.7722,0.7852,0.8117,0.8117,0.8252,0.8382,0.7842,0.7256,0.6605,0.6071,0.5418,0.4831,0.4827,0.3959,0.2954,0.282,0.1748,0.0602,-0.013,-0.0451,-0.0901,-0.1993,-0.2508,-0.3047,-0.4394,-0.4752,-0.5143,-0.6334,-0.6859,-0.7186,-0.7456,-0.8247,-0.8635,-0.8236,-0.8818,-0.9338,-0.967,-0.9787,-1.0167,-1.0943,-1.1583,-1.2026,-1.2264,-1.2434,-1.2525,-1.2615,-1.2876,-1.315,-1.3562,-1.382,-1.3866,-1.383,-1.4428,-1.4547,-1.4189,-1.4616,-1.4725,1.9309,1.8629,1.8541,1.9957,1.9914,2.0026,0.0,2.1937,2.1614,2.2485,2.2548,2.2497,2.2697,2.2594,2.2242,2.1475,2.0864,2.0234,1.9355,1.853,1.7988,1.7933,1.8148,1.833,1.8312,1.8935,1.941,1.9396,1.9131,1.8721,1.8037,1.7276,1.6524,1.5903,1.4991,1.4497,1.4497,1.4201,1.4129,1.4129,1.4129,1.4129,1.4129,1.4129,1.4129,1.4129,1.4129,1.3897,1.3537,1.2445,1.1766,1.1393,1.0322,0.9582,0.9017,0.8576,0.8382,0.8447,0.8447,0.8452,0.8382,0.7842,0.7256,0.6605,0.621,0.5488,0.4831,0.5024,0.4492,0.3692,0.309,0.235,0.1533,0.0845,0.0129,-0.0451,-0.0708,-0.1672,-0.2594,-0.2937,-0.3951,-0.4882,-0.5216,-0.6145,-0.6933,-0.7391,-0.8247,-0.8641,-0.8112,-0.863,-0.9145,-0.9338,-0.9697,-1.0263,-1.101,-1.163,-1.1869,-1.1562,-1.3068,-1.3497,-1.2503,-1.3864,-1.4286,-1.3502,-1.3819,-1.3906,-1.383,-1.389,-1.401,-1.4189,-1.413,-1.424,2.018,2.0413,2.0685,2.0929,2.1174,2.1484,2.2248,2.1882,2.1633,2.2427,2.2814,2.3164,2.3501,2.3777,2.38,2.338,2.2527,2.1825,2.138,1.9934,1.8865,1.8711,1.8747,1.8687,1.8445,1.8676,1.9084,1.9562,1.9539,1.9341,1.8998,1.8654,1.8307,1.7833,1.707,1.6576,1.6507,1.5542,1.5125,1.5054,1.4633,1.4418,1.4418,1.4418,1.4418,1.4418,1.4418,1.4347,1.4104,1.3263,1.2884,1.2644,1.1482,1.0912,1.0604,0.9402,0.8894,0.8765,0.8765,0.8899,0.9028,0.8823,0.8301,0.7647,0.706,0.6338,0.5683,0.5355,0.4758,0.409,0.3823,0.2883,0.1931,0.1621,0.0966,0.0322,-0.0129,-0.0965,-0.1882,-0.2404,-0.322,-0.4023,-0.4553,-0.508,-0.5672,-0.6272,-0.7326,-0.7852,-0.74,-0.8042,-0.8753,-0.9274,-0.9466,-0.9857,-1.047,-1.0614,-1.0855,-1.132,-1.1913,-1.2289,-1.2429,-1.3006,-1.333,-1.3381,-1.3571,-1.358,-1.3346,-1.3519,-1.37,-1.3821,-1.3761,-1.3941,2.091,2.1581,2.2022,2.169,2.1999,2.2376,2.216,2.178,2.1622,2.2396,2.2929,2.331,2.3744,2.4053,2.4222,2.4213,2.3288,2.2565,2.2604,2.0854,1.9559,1.955,1.9134,1.8937,1.8973,1.8881,1.9124,1.9694,1.9671,1.9671,1.9671,1.9473,1.9198,1.9065,1.8375,1.7959,1.7823,1.6793,1.6245,1.6245,1.548,1.5125,1.5133,1.4991,1.4919,1.4919,1.4919,1.4919,1.4871,1.4323,1.3939,1.3661,1.2798,1.2259,1.1802,1.0654,0.9901,0.9338,0.9215,0.935,0.9548,0.9548,0.9081,0.8484,0.7902,0.7186,0.6404,0.5947,0.5286,0.4677,0.4441,0.3574,0.2637,0.226,0.174,0.1164,0.0586,-0.013,-0.0917,-0.1672,-0.2284,-0.2954,-0.3887,-0.4082,-0.4345,-0.5213,-0.6001,-0.6531,-0.6881,-0.7456,-0.8037,-0.8484,-0.8742,-0.9047,-0.9537,-0.9642,-1.0006,-1.082,-1.0908,-1.1269,-1.1996,-1.2166,-1.2462,-1.2964,-1.3216,-1.3216,-1.2858,-1.3094,-1.3208,-1.3321,-1.3268,-1.3519,2.1566,2.1506,2.1578,2.2233,2.2159,2.2045,2.2568,2.2451,2.2427,2.3026,2.3175,2.3189,2.3202,2.2938,2.2692,2.2737,2.2122,2.1656,2.1705,2.0505,1.9803,2.032,1.9211,1.8926,2.0179,2.0184,2.0053,2.0074,1.9944,1.9868,1.9868,1.9054,1.8499,1.8509,1.7813,1.7404,1.7404,1.7335,1.7335,1.7335,1.6802,1.6533,1.6533,1.5974,1.5762,1.5762,1.5762,1.5762,1.5737,1.5369,1.4866,1.4164,1.4039,1.3293,1.2297,1.2589,1.1663,1.018,0.9676,0.9612,0.974,0.9548,0.9145,0.8672,0.8672,0.7707,0.6736,0.6798,0.6342,0.5654,0.4781,0.4429,0.3918,0.27,0.2253,0.2079,0.167,0.094,0.0268,-0.0269,-0.0874,-0.1813,-0.3286,-0.3215,-0.3347,-0.4613,-0.4278,-0.4541,-0.6613,-0.6933,-0.6854,-0.6715,-0.7298,-0.7877,-0.82,-0.9046,-0.958,-0.9743,-1.054,-1.1015,-1.101,-1.1859,-1.2236,-1.212,-1.2736,-1.2858,-1.2482,-1.2359,-1.2474,-1.2826,-1.2597,-1.285,2.2198,2.2556,2.3039,2.3163,2.3062,2.2937,2.3138,2.2701,2.2311,2.2471,2.2512,2.2428,2.2281,2.2446,2.269,2.2977,2.2893,2.2808,2.2952,2.1989,2.1139,2.0803,2.0331,2.013,2.0392,2.0166,0.0,2.0764,2.0518,2.0377,2.0377,1.9857,1.9528,1.9462,1.9187,1.8977,1.8844,1.8365,1.8162,1.8094,1.7079,1.6603,1.6603,1.6044,1.5833,1.5833,1.5833,1.5833,1.5807,1.5446,1.5,1.4476,1.4175,1.3667,1.3086,1.2895,1.2458,1.1841,1.0843,1.0225,0.9926,0.9862,0.9722,0.946,0.9058,0.8608,0.8027,0.712,0.6732,0.6363,0.5481,0.4868,0.4293,0.3339,0.2895,0.2466,0.1737,0.1209,0.0738,0.0336,-0.0605,-0.1479,-0.1947,-0.2284,-0.2552,-0.3021,-0.3818,-0.468,-0.5411,-0.5675,-0.5935,-0.6268,-0.6264,-0.6588,-0.7312,-0.7697,-0.8318,-0.9208,-0.9863,-1.0382,-1.0843,-1.1121,-1.149,-1.1872,-1.1996,-1.2058,-1.205,-1.174,-1.174,-1.1911,-1.2104,-1.2474,2.2703,2.3203,2.381,2.3888,2.3675,2.3363,2.3334,2.2709,2.2114,2.1889,2.1815,2.1685,2.1338,2.1382,2.1743,2.2623,2.2617,2.2769,2.3495,2.274,2.2009,2.162,2.1341,2.1228,2.1342,2.1054,0.0,2.1146,2.0967,2.0839,2.0839,2.0582,2.0453,2.0388,2.0259,2.0064,1.9933,1.9386,1.8988,1.8777,1.7959,1.7482,1.7285,1.6733,1.6455,1.6455,1.6324,1.6254,1.6158,1.5857,1.546,1.4924,1.4619,1.4224,1.3872,1.3623,1.3433,1.3061,1.1757,1.0968,1.0548,1.0478,1.0358,1.011,0.9767,0.9442,0.8994,0.7962,0.7507,0.7057,0.6111,0.559,0.5108,0.4301,0.3824,0.3305,0.2601,0.2147,0.1744,0.1276,0.0336,-0.047,-0.0873,-0.1613,-0.2087,-0.1683,-0.2818,-0.3818,-0.3885,-0.4417,-0.4882,-0.4948,-0.5084,-0.5415,-0.6203,-0.6597,-0.7312,-0.849,-0.9017,-0.9664,-1.0428,-1.0555,-1.087,-1.1428,-1.1498,-1.1498,-1.156,-1.1303,-1.1178,-1.1178,-1.1677,-1.2042,2.3146,2.3523,2.4006,2.4465,2.3994,2.3421,2.3201,2.2649,2.202,2.1383,2.117,2.0946,2.0371,1.9853,1.9986,2.1639,2.1472,2.1748,2.3443,2.2862,2.2409,2.286,2.2296,2.2123,2.2967,2.2769,0.0,2.1412,0.0,2.1279,2.1302,2.1302,2.1302,2.1302,2.0884,2.068,2.068,2.0346,1.9933,1.9375,1.9375,1.91,1.8566,1.8037,1.7774,1.7774,1.7442,1.7166,1.6941,1.6738,1.6187,1.5514,1.5383,1.4967,1.4529,1.4911,1.4597,1.3846,1.2618,1.1903,1.1476,1.1399,1.1038,1.0624,1.0807,1.0225,0.9518,0.9122,0.8603,0.7866,0.6725,0.6524,0.6358,0.5495,0.4961,0.4531,0.4125,0.3623,0.3092,0.2551,0.188,0.1008,-0.0067,-0.1276,-0.1682,-0.0607,-0.1279,-0.1951,-0.2154,-0.3159,-0.3625,-0.3023,-0.3756,-0.442,-0.502,-0.5683,-0.6535,-0.7577,-0.8161,-0.8818,-0.967,-1.0047,-1.0428,-1.0744,-1.1052,-1.1185,-1.1066,-1.0989,-1.0807,-1.0624,-1.1373,-1.1615,2.4239,2.4758,2.5153,2.5291,2.4695,2.4036,2.4009,2.2978,2.2003,2.1845,2.1025,2.028,1.9986,2.0161,2.075,2.1935,2.2774,2.3513,2.4367,2.4305,2.3948,2.3615,2.3482,2.3465,2.3556,2.3622,0.0,0.0,2.2551,2.2297,2.2659,2.246,2.2327,2.2327,2.1827,2.1567,2.1567,2.1149,2.0839,2.07,2.0279,1.9944,1.9814,1.9278,1.9013,1.9013,1.8432,1.8172,1.8007,1.713,1.6449,1.5963,1.5675,1.527,1.4911,1.497,1.4902,1.4715,1.435,1.3183,1.1896,1.1826,1.1413,1.0996,1.0996,1.0863,1.0541,0.9958,0.9633,0.9174,0.7752,0.7355,0.7068,0.5829,0.5416,0.5105,0.4191,0.3889,0.3627,0.309,0.2552,0.1745,0.0537,0.0,-0.0067,0.0202,-0.0672,-0.1344,-0.148,-0.2084,-0.2487,-0.2551,-0.3021,-0.362,-0.4217,-0.4951,-0.5745,-0.6662,-0.7442,-0.8161,-0.8818,-0.9396,-0.9843,-1.0174,-1.0301,-1.0364,-1.0491,-1.0238,-1.018,-1.0371,-1.0926,-1.124,2.4738,2.5179,2.5605,2.5605,2.513,2.4576,2.424,2.3208,2.2182,2.1565,2.0728,1.9976,1.9555,1.995,2.0656,2.1702,2.285,2.3993,2.5138,2.5084,2.4935,2.4823,2.4604,2.4445,2.439,2.4445,2.4542,0.0,2.3694,2.3197,2.3471,2.327,2.3097,2.2862,2.2383,2.1997,2.1636,2.136,2.1221,2.1221,2.088,2.0677,2.0677,2.0139,1.9868,1.9803,0.0,1.8909,1.8496,1.7486,1.687,1.6367,1.5655,1.5348,1.5196,1.5264,1.5323,1.5323,1.5323,1.4401,1.3114,1.2696,1.2151,1.1608,1.1428,1.1373,1.1178,1.0584,1.0451,1.0071,0.8623,0.8335,0.8143,0.7038,0.6641,0.6278,0.5391,0.5014,0.4553,0.3625,0.3155,0.2549,0.161,0.1074,0.0805,0.094,0.0134,-0.0538,-0.0605,-0.1278,-0.1816,-0.188,-0.2283,-0.2818,-0.3485,-0.4087,-0.4815,-0.5741,-0.6597,-0.7251,-0.7772,-0.8549,-0.9069,-0.9332,-0.9594,-0.9786,-0.9977,-0.9728,-0.9734,-1.0117,-1.0541,-1.0856,2.489,2.5252,2.568,2.568,2.5416,2.4955,2.4201,2.332,2.2315,2.0986,2.0336,1.9837,1.924,1.9522,2.0239,2.1498,2.2526,2.385,2.5673,2.5526,2.5445,2.6041,2.5673,2.54,2.5333,2.5455,2.5667,2.6,2.4829,2.4068,2.4002,2.3935,2.3658,2.3067,2.2786,2.2215,2.1423,2.1411,2.1411,2.1411,2.1411,2.1411,2.1348,2.0869,2.059,2.059,2.0193,0.0,1.8922,1.804,1.7409,1.6835,1.5831,1.5478,1.5584,1.5672,1.574,1.574,1.574,1.5371,1.4715,1.3812,1.2948,1.2336,1.2042,1.1802,1.1622,1.1212,1.1149,1.0829,0.947,0.928,0.9215,0.8436,0.7963,0.7582,0.6933,0.6334,0.5543,0.4156,0.3823,0.3485,0.2947,0.2009,0.1475,0.1743,0.1008,0.0404,0.0472,-0.0605,-0.1278,-0.1143,-0.1477,-0.2013,-0.2686,-0.3155,-0.382,-0.4818,-0.5547,-0.6141,-0.6658,-0.7512,-0.8102,-0.8291,-0.8818,-0.9139,-0.9326,-0.9139,-0.9338,-0.9734,-1.0148,-1.0408,2.4979,2.5642,2.6154,2.6115,2.5717,2.5153,2.4429,2.3139,2.1888,2.1061,2.0117,1.9397,1.928,1.9691,2.0602,2.238,2.3305,2.4347,2.6009,2.6183,2.6031,2.5958,2.6498,2.6739,2.6591,2.7248,0.0,0.0,2.6067,2.5448,2.4896,2.4896,2.4443,2.3462,2.3362,2.3042,2.2445,2.2432,2.2432,2.2432,2.2432,2.2432,2.2432,2.2359,2.2285,2.2223,2.1553,0.0,2.0369,1.9253,1.8526,1.7926,1.6889,1.6549,1.6492,1.6019,1.5856,1.5856,1.5856,1.5798,1.5556,1.4715,1.3674,1.2704,1.2765,1.2413,1.1996,1.1934,1.1926,1.1593,1.0398,1.011,0.9824,0.8715,0.8215,0.7852,0.7577,0.6662,0.5675,0.4761,0.4628,0.4359,0.3689,0.3088,0.2686,0.2753,0.1613,0.0942,0.1548,0.0673,-0.0067,-0.0202,-0.0672,-0.1142,-0.1412,-0.2283,-0.3019,-0.3482,-0.448,-0.5209,-0.554,-0.6457,-0.7116,-0.7442,-0.7772,-0.8102,-0.8242,-0.8052,-0.8436,-0.9402,-0.9268,-0.9652,2.4612,2.5213,2.5763,2.5693,2.5485,2.5078,2.4339,2.2964,2.161,2.091,1.9993,1.9339,1.9339,1.9845,2.0538,2.1376,2.2338,2.3558,2.5294,2.5783,2.6169,2.6739,2.7115,2.7351,2.7204,2.7604,2.7789,2.771,2.7511,2.666,2.5179,2.457,2.4211,2.3966,2.3393,2.3121,2.3198,2.2848,2.269,2.269,2.269,2.269,2.269,2.269,2.269,2.2678,2.2347,0.0,2.0852,1.9995,1.9137,1.8303,1.7512,1.7045,1.6765,1.656,1.6296,1.6019,1.6144,1.6144,1.6087,1.5768,1.4855,1.3846,1.3494,1.3147,1.2903,1.2613,1.2674,1.2597,1.16,1.1226,1.0843,1.0021,0.9128,0.842,0.7967,0.7116,0.6207,0.5491,0.5362,0.5292,0.4957,0.4353,0.3954,0.3954,0.3013,0.2479,0.295,0.2549,0.1744,0.0403,0.0134,-0.0202,-0.0739,-0.1344,-0.1946,-0.248,-0.3149,-0.3749,-0.4212,-0.5071,-0.5731,-0.6195,-0.6724,-0.7055,-0.719,-0.7064,-0.7451,-0.8296,-0.8425,-0.8882,2.4084,2.4676,2.5313,2.5246,2.5196,2.4996,2.4182,2.2914,2.1652,2.0805,2.0065,1.9523,1.9465,1.9841,2.023,2.0416,2.1386,2.2761,2.4635,2.5526,2.6398,2.7571,2.7897,2.8051,2.8051,2.8182,0.0,2.8812,2.8452,2.74,2.5567,2.433,2.3901,2.452,2.3533,2.3258,2.3695,2.3258,2.2921,2.28,2.28,2.28,2.286,2.286,2.286,2.286,2.286,0.0,0.0,2.0758,1.9905,1.9,1.8278,1.7743,1.7368,1.7324,1.7,1.6606,1.6637,1.6705,1.6637,1.6637,1.5921,1.4972,1.4332,1.4103,1.3863,1.339,1.345,1.3442,1.2605,1.2236,1.1849,1.1142,1.0135,0.9122,0.8409,0.7702,0.7055,0.6346,0.6086,0.602,0.5954,0.5415,0.4948,0.4948,0.4345,0.3944,0.4082,0.4212,0.3542,0.1674,0.1475,0.1141,0.0336,0.0067,-0.0469,-0.1273,-0.1608,-0.2076,-0.2746,-0.3478,-0.414,-0.4743,-0.547,-0.587,-0.587,-0.6001,-0.64,-0.7125,-0.7507,-0.8032,2.363,2.4537,2.5446,2.5313,2.528,2.508,2.428,2.3227,2.2118,2.102,2.0376,1.994,1.9647,1.9546,1.9862,2.1024,2.1804,2.2951,2.4832,2.6165,2.7215,2.7892,2.9016,2.9766,2.9766,3.0358,3.0493,2.9889,2.8284,2.7152,2.6769,2.5038,2.4371,2.5089,2.4376,2.4015,2.406,2.4015,2.3662,2.3078,2.3078,2.315,2.3343,2.3343,2.339,2.3509,2.3509,0.0,0.0,2.2005,2.1377,2.0767,1.9673,1.9202,1.9109,1.8578,1.8309,1.8201,1.7722,1.7556,1.7501,1.6976,1.6208,1.5555,1.5633,1.5274,1.4678,1.4213,1.4094,1.3906,1.3009,1.2712,1.2397,1.1267,1.0598,0.9977,0.9314,0.8737,0.8096,0.7246,0.6671,0.6284,0.6214,0.5815,0.5547,0.5547,0.4878,0.4408,0.4478,0.4797,0.4923,0.4722,0.3936,0.3278,0.288,0.2404,0.167,0.0603,0.0334,-0.0267,-0.1407,-0.1742,-0.221,-0.2943,-0.3678,-0.4079,-0.4212,-0.468,-0.5411,-0.6207,-0.6465,-0.6985,2.275,2.3507,2.4329,2.4658,2.4758,2.4674,2.431,2.301,2.1711,2.099,2.053,2.012,1.9726,1.9632,1.9842,2.067,2.104,2.1889,2.3763,2.4805,2.5854,2.7314,2.8278,2.9183,2.994,0.0,3.0478,3.0673,2.9233,2.8325,2.8368,2.616,2.5175,2.5837,2.5231,2.5063,2.5398,2.5063,2.4724,2.4496,2.4105,2.4002,2.4073,2.3675,2.3569,2.3628,2.3628,0.0,0.0,2.2155,2.1565,2.1014,2.018,1.9695,1.9371,1.9109,1.8792,1.8471,1.8352,1.8298,1.8244,1.7722,1.7479,1.718,1.6389,1.5931,1.5633,1.5108,1.4932,1.4805,1.4195,1.3786,1.3183,1.1881,1.1461,1.1024,0.9952,0.957,0.9186,0.8409,0.7967,0.7647,0.7582,0.7256,0.7064,0.7064,0.6793,0.6654,0.6715,0.6841,0.7037,0.7111,0.5785,0.4662,0.4199,0.3862,0.3332,0.2603,0.2466,0.1933,0.0801,0.0334,-0.0267,-0.1205,-0.1873,-0.2275,-0.2544,-0.2744,-0.3276,-0.4074,-0.4803,-0.5397,2.2365,2.3142,2.3849,2.4329,2.4447,2.4399,2.4339,2.2981,2.1601,2.115,2.1021,2.0848,2.0466,2.0472,2.0615,2.0994,2.1096,2.1679,2.3185,2.4088,2.5217,2.6761,2.7541,2.8438,2.9769,3.0058,3.0426,3.0952,2.9778,2.9104,2.9212,2.7302,2.6336,2.6616,2.6014,2.5837,2.6283,2.5892,2.5563,2.5398,2.4951,2.4794,2.4794,2.4408,2.4234,2.4234,2.4073,0.0,0.0,2.2376,2.1699,2.1172,2.0566,2.0118,1.9798,1.985,1.9592,1.9214,1.9137,1.9137,1.9085,1.862,1.8525,1.8405,1.749,1.7067,1.674,1.6151,1.5748,1.5468,1.505,1.4451,1.3726,1.2565,1.2197,1.1764,1.0654,1.0275,1.0021,0.95,0.9122,0.8871,0.8801,0.8554,0.8371,0.8371,0.8312,0.8242,0.8371,0.8495,0.8624,0.8765,0.7687,0.6559,0.584,0.5712,0.538,0.459,0.4653,0.4254,0.3125,0.2593,0.1864,0.0868,0.02,-0.0334,-0.0737,-0.1005,-0.154,-0.2341,-0.3205,-0.4005,2.2828,2.3829,2.4554,2.4506,2.4506,2.4475,2.443,2.324,2.2065,2.1584,2.2064,2.2475,2.2148,2.2224,2.2381,2.2381,2.2534,2.2877,2.3505,2.4747,2.5854,2.6527,2.72,2.8113,2.946,3.0273,3.0704,3.0704,2.966,0.0,2.9021,2.8334,2.7806,2.7401,2.6669,2.6283,2.6283,2.6283,2.6014,2.5398,2.5398,2.5453,2.5563,2.5563,2.5673,2.5742,0.0,0.0,0.0,2.2841,2.206,2.1459,2.0884,2.0712,2.0699,2.0838,2.0888,2.0788,2.0359,2.0181,2.008,1.9579,1.9097,1.8768,1.9202,1.875,1.7975,1.7501,1.6652,1.5768,1.5147,1.4469,1.3855,1.3122,1.2634,1.2089,1.1421,1.0863,1.0478,1.0338,1.0021,0.9703,0.9558,0.9384,0.9274,0.9274,0.9022,0.877,0.877,0.921,0.9518,0.9518,0.9786,0.9396,0.8091,0.8291,0.7887,0.6628,0.6959,0.6563,0.5308,0.4913,0.4323,0.3465,0.2531,0.1803,0.1273,0.0402,-0.0468,-0.1336,-0.1872,-0.2876,2.2698,2.3189,2.3495,2.3743,2.382,2.3791,2.3731,2.2975,2.2286,2.2316,2.2518,2.2703,2.2826,2.2892,2.3154,2.3811,2.3971,2.428,2.5122,2.6,2.6983,2.8132,2.9645,3.0598,0.0,0.0,3.0743,3.0235,2.9455,2.9006,2.9006,2.8369,2.7955,2.7806,2.759,2.7473,2.7473,2.7473,2.7372,2.7188,2.6745,2.6587,2.6587,2.6201,2.6026,0.0,0.0,0.0,0.0,2.4263,2.3464,2.2831,2.1852,2.1229,2.0898,2.0947,2.0961,2.0961,2.0785,2.0772,2.0673,2.0131,1.9978,1.9978,1.9978,1.9056,1.803,1.7722,1.7101,1.6436,1.5979,1.5459,1.4815,1.4282,1.3683,1.313,1.2581,1.1981,1.1553,1.1553,1.1233,1.0982,1.0975,1.0661,1.0351,1.0161,1.004,0.9849,0.9664,0.9728,0.9849,0.9849,1.0047,0.9913,0.9064,0.9134,0.8935,0.8285,0.835,0.7892,0.6641,0.6244,0.5522,0.4408,0.3742,0.3209,0.2815,0.241,0.1338,-0.0201,-0.0536,-0.1405,2.262,2.3025,2.3398,2.3639,2.3579,2.351,2.3451,2.3067,2.2777,2.2942,2.3398,2.385,2.4082,2.4172,2.4466,2.5016,2.4808,2.4891,2.572,2.6306,2.7142,2.8445,3.016,0.0,0.0,3.0517,3.0449,2.9779,2.9109,2.8778,2.8778,2.8381,2.8152,2.8152,2.8054,2.802,2.802,2.802,2.802,2.802,2.7625,2.7458,2.7458,2.7071,2.6901,0.0,0.0,0.0,0.0,2.5142,2.4291,2.3497,2.2512,2.1952,2.1554,2.118,2.118,2.1375,2.1326,2.1277,2.1264,2.1042,2.1091,2.1104,2.0633,1.9773,1.8792,1.8394,1.7907,1.7313,1.6912,1.6358,1.5796,1.5264,1.4619,1.3914,1.3191,1.2712,1.2421,1.2305,1.212,1.212,1.2236,1.1732,1.124,1.1052,1.058,1.024,1.0098,1.0147,1.0184,1.0288,1.0491,1.0491,1.0161,0.997,0.9843,0.9594,0.953,0.9139,0.8285,0.7632,0.6846,0.5932,0.514,0.4616,0.422,0.3485,0.241,0.1072,0.0268,-0.0604,0.0,2.3282,2.4025,2.3946,2.3691,2.3442,2.3493,2.3451,0.0,2.3528,2.4644,2.5642,2.5744,2.5914,2.6082,2.6145,2.5436,2.5096,2.5743,2.6192,2.6886,2.8229,2.9449,2.9885,2.9194,2.9776,2.9889,2.923,2.8701,2.8444,2.8411,2.8411,2.8411,2.8411,2.8152,2.8005,2.8005,2.8005,2.8005,2.8005,2.8005,2.8005,2.8005,2.8005,2.8005,0.0,0.0,0.0,0.0,2.5683,2.471,2.3593,2.309,2.2757,2.2466,2.1636,2.165,2.2077,2.1935,2.1888,2.1935,2.217,2.2217,2.2077,2.1334,2.0733,2.0169,1.9556,1.8955,1.8405,1.7797,1.7257,1.6698,1.6042,1.5409,1.4669,1.3425,1.313,1.2956,1.2666,1.2736,1.2981,1.3268,1.2597,1.1926,1.1864,1.0875,1.0247,1.0451,1.0561,1.0676,1.0836,1.1052,1.1122,1.1122,1.0807,1.0624,1.0624,1.0428,1.0238,0.9983,0.9069,0.8355,0.7772,0.6728,0.6013,0.5557,0.3882,0.2882,0.2482,0.0738,-0.0134,2.2886,0.0,2.3507,2.329,2.3023,2.2935,0.0,2.3522,2.3803,2.4941,2.5387,2.5947,2.7046,2.6859,2.6821,2.7644,2.758,2.755,2.7901,2.9451,3.0895,3.1856,3.1804,3.1239,3.0191,3.0114,2.9715,2.8688,2.8778,2.8779,2.8396,2.8411,2.8411,2.8411,2.8363,2.8314,2.8314,2.8314,2.8314,2.8314,2.8314,2.8314,2.8314,2.8314,2.8314,0.0,0.0,0.0,2.7771,2.6153,2.5395,2.5133,2.406,2.3393,2.2995,2.2815,2.2815,2.2905,2.286,2.286,2.2815,2.2663,2.254,2.2463,2.2263,2.1779,2.1091,2.0219,1.9581,1.8996,1.8447,1.7852,1.7302,1.681,1.6234,1.5593,1.4982,1.4094,1.345,1.358,1.3563,1.3485,1.3442,1.3554,1.3433,1.2826,1.2578,1.2432,1.2266,1.2326,1.2242,1.1764,1.1772,1.1655,1.1303,1.1059,1.0996,1.0996,1.0933,1.0611,1.0028,0.9767,0.9378,0.8731,0.7767,0.7181,0.6911,0.5741,0.455,0.3347,0.2679,0.1811,2.3547,2.3842,2.4078,2.3808,2.3789,2.3888,2.4122,2.4411,2.4829,2.563,2.6009,2.6486,2.7284,2.7369,2.7521,2.8118,2.8352,2.8688,2.9261,3.0591,3.1832,3.2577,3.24,3.1757,0.0,3.0639,3.0174,2.9259,2.9422,2.9451,2.9196,2.915,2.915,2.915,2.915,2.8904,2.8411,2.8411,2.8444,2.8493,2.8493,2.8541,2.8589,2.8216,2.8061,0.0,0.0,0.0,2.7535,2.6494,2.5929,2.5663,2.4724,2.4152,2.3794,2.3348,2.3348,2.3522,2.3406,2.345,2.3551,2.3348,2.3157,2.2994,2.2994,2.2632,2.2123,2.1334,2.0557,1.994,1.9658,1.8967,1.8394,1.8135,1.7413,1.662,1.611,1.5264,1.4638,1.4647,1.4569,1.4501,1.4569,1.4569,1.4382,1.3957,1.3459,1.3169,1.3097,1.298,1.2819,1.2557,1.2634,1.2581,1.2343,1.222,1.1919,1.124,1.1122,1.0926,1.0541,1.0148,0.9697,0.8988,0.828,0.7827,0.7692,0.6465,0.5477,0.4674,0.3811,0.3013,2.4318,2.4801,2.5131,2.473,2.4943,2.5265,2.5126,2.551,2.5945,2.6048,2.6563,2.7041,2.7161,2.7691,2.8186,2.8408,2.8825,2.9415,3.0352,3.0995,3.155,3.2138,3.2122,0.0,3.116,3.1041,3.0773,3.0166,3.0175,3.0175,3.0117,3.0117,3.0117,3.0117,3.0117,2.9565,2.8497,2.8606,2.8654,2.8685,2.8779,2.8842,2.8825,2.8196,2.7868,2.7746,0.0,0.0,2.6676,2.6502,2.6143,2.5648,2.5136,2.4821,2.4574,2.3779,2.3736,2.4063,2.3894,2.3952,2.4151,2.4135,2.3894,2.3565,2.3565,2.3421,2.3112,2.2586,2.1766,2.1042,2.0845,2.0245,1.9619,1.9423,1.8673,1.7754,1.7102,1.6564,1.6083,1.5806,1.5748,1.5748,1.5979,1.5563,1.5177,1.5187,1.419,1.3602,1.4013,1.3722,1.3535,1.3682,1.3837,1.3906,1.3674,1.3674,1.313,1.1787,1.1483,1.1247,1.1185,1.0598,1.0015,0.9436,0.8913,0.8533,0.8345,0.6981,0.6133,0.587,0.4544,0.3747,2.4832,2.5766,2.6078,2.4902,2.5012,2.546,2.5841,2.5932,2.6176,2.6794,2.6937,2.7195,2.7827,2.8032,2.8528,2.9826,3.0609,3.1355,3.2089,3.2309,3.2469,3.2734,0.0,3.1722,3.1155,3.0974,3.0643,3.0133,3.0485,3.0526,3.0117,3.0117,3.0117,3.0117,3.0117,2.9711,2.8913,2.954,2.954,2.8955,2.9583,2.9567,2.8955,2.8825,2.8608,2.8216,0.0,2.6441,2.6598,2.5556,2.5378,2.5723,2.5183,2.4981,2.4926,2.4791,2.4791,2.4831,2.5005,2.4871,2.4695,2.4895,2.4719,2.442,2.442,2.4131,2.3767,2.3666,2.295,2.2035,2.1175,2.0832,2.0534,1.9631,1.9267,1.8992,1.8352,1.7775,1.7324,1.7291,1.718,1.6957,1.6631,1.6424,1.6351,1.6398,1.5998,1.5873,1.6419,1.6511,1.6357,1.585,1.5955,1.5591,1.4495,1.4563,1.4278,1.3606,1.2757,1.2027,1.156,1.149,1.1483,1.1358,1.0829,1.0382,0.9952,0.8737,0.7312,0.587,0.5216,0.402,2.4428,2.5658,2.6417,2.5659,2.6301,2.7139,2.7166,2.7168,2.7227,2.7578,2.7836,2.8112,2.8662,2.9157,2.9884,3.0984,3.1448,3.1792,3.2115,3.2166,3.2192,0.0,0.0,3.1749,3.1493,3.1404,3.124,3.101,3.1201,3.1257,3.1027,3.0656,3.0622,3.101,3.0196,2.9808,2.993,2.9808,2.9321,2.8452,2.878,2.8804,2.8573,2.8194,2.7935,2.7671,0.0,2.6237,2.6341,2.5718,2.5561,2.5623,2.5358,2.5169,2.5005,2.5005,2.5045,2.5178,2.5256,2.5278,2.5262,2.5323,2.513,2.4879,2.4879,2.4623,2.4323,2.4323,2.3507,2.2512,2.2035,2.1752,2.1417,2.0646,2.032,2.0016,1.9411,1.8915,1.8584,1.8555,1.8543,1.8235,1.7478,1.7315,1.7247,1.7046,1.6784,1.6774,1.7324,1.7268,1.7146,1.6912,1.6957,1.6768,1.6229,1.6285,1.5668,1.4085,1.3545,1.3183,1.2887,1.2518,1.2329,1.2466,1.1424,1.0663,1.0109,0.917,0.8038,0.6775,0.6065,0.5202,2.4153,2.5511,2.6606,2.659,2.761,2.8562,2.8416,2.837,2.8423,2.8629,2.8947,2.9283,2.9519,3.0466,3.1289,3.16,3.1963,3.21,3.1817,3.1856,3.1893,3.18,3.1856,3.1893,3.18,3.18,3.1731,3.1558,3.1578,3.1491,3.1301,3.0749,3.0697,3.1284,3.011,2.9713,3.0162,2.9592,2.8867,2.8101,2.8268,2.8306,2.8235,2.7738,2.7451,2.7291,2.6578,2.621,2.6104,2.6139,2.5944,2.5689,2.5689,2.5556,2.5323,2.5323,2.5438,2.5567,2.5605,2.568,2.5791,2.5828,2.5605,2.5378,2.5378,2.5153,2.491,2.491,2.4085,2.3157,2.2935,2.2589,2.2189,2.1732,2.1369,2.1002,2.0534,2.0181,1.9927,1.9734,1.9583,1.9205,1.8357,1.8029,1.7721,1.7459,1.7173,1.7209,1.7787,1.7639,1.7673,1.8004,1.807,1.8066,1.8089,1.8063,1.7181,1.5071,1.451,1.4214,1.4186,1.3351,1.294,1.3109,1.2038,1.1032,1.0279,0.9564,0.8594,0.7511,0.6679,0.595,2.4705,2.5933,2.6778,2.749,2.8153,2.8706,2.9114,2.9219,2.9433,3.0177,3.0344,3.038,3.0409,3.1653,3.2317,3.1301,3.2371,3.2947,3.1923,0.0,3.2161,3.1837,3.2055,3.2161,3.1819,3.18,3.1524,3.0817,3.0836,3.0543,2.9816,2.9712,2.9712,2.9764,2.9592,2.9196,2.8575,2.8572,2.8505,2.8372,2.9059,2.9025,2.8405,2.842,2.8151,2.7705,2.703,2.6488,2.6087,2.6158,2.6193,2.6142,2.6298,2.6333,2.6298,2.6298,2.6298,2.635,2.6539,2.6453,2.6295,2.6468,2.6329,2.6132,2.6132,2.5811,2.5465,2.5465,2.5121,2.4552,2.3676,2.3143,2.274,2.2314,2.2221,2.2081,2.1746,2.165,2.1396,2.066,2.008,1.9558,1.9251,1.8338,1.766,1.7821,1.7511,1.7513,1.826,1.8457,1.8893,1.9864,2.0093,1.9976,1.9484,1.9459,1.8912,1.7697,1.5966,1.4959,1.477,1.3914,1.3455,1.3482,1.3348,1.2696,1.1374,1.0474,0.9029,0.7195,0.6604,0.5375,2.4116,2.597,2.7291,2.7108,2.8324,2.9637,2.9828,2.9857,3.0075,3.0901,3.1283,3.1438,3.1219,3.2235,3.275,3.159,3.232,3.2905,3.2555,3.2601,3.2616,3.255,3.2616,3.2634,3.2502,3.2468,3.2102,3.1129,3.1144,3.0727,2.9761,2.9258,2.9206,2.9709,2.8756,2.834,2.8531,2.8094,2.7869,2.7837,2.8085,2.8068,2.7837,2.7823,2.7742,2.7594,2.7351,2.7149,2.6971,2.7004,2.6856,2.6623,2.6471,2.6402,2.6402,2.6402,2.6488,2.6607,2.6657,2.6742,2.6742,2.6808,2.6792,2.6691,2.6691,2.6487,2.6245,2.6245,2.5888,2.5313,2.4601,2.4127,2.3736,2.3332,2.3098,2.2875,2.2466,2.2434,2.2296,2.1732,2.1315,2.0716,1.9731,1.8919,1.8349,1.8106,1.8047,1.835,1.9126,1.9215,1.9474,2.0132,1.9985,1.9907,2.0074,1.974,1.9368,1.8926,1.7668,1.6891,1.6847,1.5277,1.4682,1.5209,1.4,1.2869,1.1755,1.1091,0.9805,0.8017,0.7518,0.6569,2.4211,2.6197,2.7735,2.7506,0.0,3.0338,3.0876,3.0785,3.087,3.1935,3.22,3.221,3.2011,3.2589,3.2817,3.1906,3.2265,3.2696,3.2867,3.2565,3.2391,3.2613,3.2463,3.229,3.2181,3.2151,3.1768,3.0756,3.0782,3.0414,2.9409,2.8845,2.881,2.9325,2.8305,2.7988,2.8516,2.8035,2.7771,2.7771,2.773,2.7672,2.7612,2.7496,2.7526,2.7612,2.7539,2.7526,2.7496,2.7526,2.7369,2.7129,2.6905,2.6807,2.6807,2.6807,2.6889,2.7004,2.7004,2.7053,2.7135,2.7135,2.707,2.7006,2.707,2.6956,2.6858,2.6906,2.6607,2.6212,2.5766,2.5182,2.4608,2.4343,2.4153,2.3891,2.3289,2.3362,2.3274,2.2572,2.2279,2.1685,2.0315,1.9684,1.9086,1.8314,1.8395,1.8711,1.9225,1.9495,1.9887,2.0584,2.0526,2.0452,2.0553,2.0357,2.0104,1.9724,1.8963,1.8496,1.8295,1.6466,1.5706,1.6294,1.4666,1.3333,1.2439,1.1555,1.034,0.8895,0.8213,0.7407,2.5207,2.6723,2.8037,2.9047,2.9751,3.0656,3.2305,3.2022,3.1861,3.3458,3.3164,3.2614,3.2672,3.2698,3.2551,3.2145,3.2201,3.2418,3.2822,3.1852,3.1275,3.1732,3.1401,3.0984,3.0643,3.0614,3.0273,2.9475,2.953,2.926,2.843,2.8394,2.8394,2.8394,2.8324,2.8298,2.8298,2.8376,2.8394,2.8394,2.8394,2.8237,2.7897,2.7719,2.7701,2.7897,2.7689,2.7587,2.7526,2.7587,2.7659,2.7701,2.7683,2.7701,2.7701,2.7701,2.7683,2.7701,2.7683,2.7552,2.7404,2.7404,2.7247,2.7038,2.7181,2.7213,2.7244,2.7365,2.7409,2.7365,2.7149,2.6177,2.5259,2.5368,2.5406,2.5198,2.4358,2.453,2.4433,2.3157,2.2742,2.2297,2.1213,2.0556,1.9783,1.852,1.8486,1.8618,1.8515,1.9138,2.0106,2.1441,2.2088,2.1962,2.0978,2.1492,2.1374,2.0182,1.9918,1.9461,1.8656,1.7193,1.6405,1.6405,1.5365,1.4429,1.3616,1.1937,1.068,0.9798,0.8543,0.7627,2.5392,2.6898,2.8371,2.9345,3.0563,3.179,3.2761,3.2643,3.2617,3.3718,3.3762,3.3246,3.2121,3.2404,0.0,3.1115,3.1391,3.1875,3.2027,3.1753,3.1581,3.1777,3.1636,3.1483,3.1391,3.1372,3.0968,2.997,2.9983,2.9569,2.8515,2.8478,2.8478,2.8478,2.8453,2.8453,2.8453,2.8453,2.8478,2.8478,2.8478,2.8428,2.8324,2.821,2.8237,2.8324,2.8246,2.8219,2.8192,2.8219,2.8246,2.8246,2.8047,2.8102,2.8219,2.784,2.7954,2.8246,2.8047,2.7936,2.7926,2.8073,2.7904,2.7719,2.7847,2.78,2.7695,2.7754,2.7666,2.7595,2.7552,2.7255,2.6773,2.6071,2.5689,2.5389,2.5182,2.5205,2.493,2.3683,2.377,2.3634,2.245,2.1822,2.1272,2.0706,2.0295,2.0032,1.9904,2.0264,2.0666,2.1069,2.1031,2.0971,2.0931,2.0875,2.067,2.0334,2.0074,1.9812,1.9541,1.815,1.7565,1.8013,1.6667,1.5714,1.5048,1.3594,1.2342,1.1405,1.0324,0.9493,2.6551,2.7843,2.9098,3.005,3.1241,3.2334,3.2997,3.2929,3.2803,3.3044,3.2822,3.2373,3.175,3.1769,0.0,3.0988,3.1071,3.1316,3.1654,3.1177,3.0902,3.1281,3.1017,3.0791,3.0791,3.0791,3.052,2.9867,2.9853,2.9568,2.8897,2.8855,2.8855,2.8855,2.8855,2.8855,2.8855,2.8855,2.8855,2.8855,2.8855,2.8855,2.8855,2.8572,2.8529,2.8694,2.8554,2.8504,2.8504,2.8504,2.8504,2.8485,2.8324,2.835,2.8478,2.8156,2.8219,2.8478,2.835,2.8298,2.8324,2.8464,2.8404,2.8299,2.8456,2.8394,2.8324,2.8376,2.8324,2.8219,2.8112,2.8102,2.7862,2.6935,2.6539,2.6283,2.5983,2.5874,2.5539,2.4671,2.4684,2.4605,2.3732,2.3104,2.2522,2.1963,2.1236,2.0956,2.1434,2.162,2.1906,2.2332,2.2185,2.1972,2.1739,2.1515,2.1247,2.0975,2.0682,2.0501,2.0519,1.9147,1.8562,1.8927,1.7692,1.6933,1.6703,1.5321,1.4155,1.3242,1.2136,1.1049,2.8123,2.9099,2.9899,3.0978,3.1743,3.2374,3.2914,3.2825,3.2487,3.1839,3.1071,3.0734,3.1469,3.0987,3.0709,3.1307,3.0898,3.0724,3.1399,3.0275,2.9667,3.0411,2.9853,2.9407,2.9407,2.9407,2.9407,2.9407,2.9407,2.9407,2.9407,2.9407,2.9407,2.9407,2.9407,2.9407,2.9407,2.9407,2.9407,2.9407,2.9407,2.9407,2.9386,2.8832,2.8761,2.9026,2.8718,2.8578,2.8578,2.8578,2.8578,2.8578,2.8554,2.8554,2.8578,2.8529,2.8554,2.8603,2.8628,2.8646,2.867,2.8724,2.8748,2.8748,2.8865,2.8911,2.8934,2.9064,2.9086,2.9042,2.8795,2.8748,2.8542,2.7893,2.7747,2.7512,2.677,2.6413,2.6151,2.5754,2.5495,2.5279,2.5028,2.4431,2.3653,2.2637,2.1681,2.1569,2.2873,2.3063,2.3474,2.4486,2.4622,2.4182,2.3065,2.3009,2.2709,2.1961,2.1592,2.1453,2.1556,2.0221,1.9477,1.9462,1.8593,1.8194,1.8361,1.7063,1.6048,1.5346,1.4,1.2474,2.7633,2.8436,2.9543,3.1109,3.2019,3.2384,3.1892,3.1612,3.1524,3.1756,3.163,3.137,3.0906,3.0705,3.0405,2.9959,2.9758,2.9702,2.9869,2.9609,2.9463,2.9649,2.9518,2.9407,2.9407,2.9407,2.9407,2.9407,2.9407,2.9407,2.9407,2.9407,2.9407,2.9407,2.9407,2.9407,2.9407,2.9407,2.9407,0.0,2.9407,2.9407,2.9407,2.9265,2.9243,2.9304,2.9243,2.9222,2.9222,2.9222,2.9222,2.9181,2.8962,2.9007,2.916,2.8742,2.8837,2.9188,2.9042,2.8997,2.902,2.9148,2.902,2.8888,2.902,2.9064,2.9064,2.9086,2.9086,2.9086,2.902,2.902,2.8809,2.8027,2.7983,2.7798,2.6743,2.6606,2.6462,2.5697,2.5534,2.5732,2.6339,2.584,2.4997,2.3944,2.3232,2.2886,2.3204,2.3552,2.3967,2.4483,2.4717,2.4474,2.3618,2.3761,2.358,2.2805,2.2479,2.2444,2.2726,2.1384,2.0654,2.0703,2.0198,1.9878,1.9687,1.8702,1.7901,1.729,1.6191,1.5072,2.7973,2.86,2.9435,3.12,3.1603,3.1531,3.1417,3.1005,3.0674,3.0847,3.0804,3.059,3.0095,3.0039,2.989,2.9481,2.9407,2.9407,2.9407,2.9407,2.9407,2.9407,2.9407,2.9407,2.9407,2.9407,2.9407,2.9407,2.9407,2.9407,2.9407,2.9407,2.9407,2.9407,2.9409,2.939,2.939,2.939,2.9451,2.9532,2.9451,2.9433,2.9532,2.9431,2.9388,2.939,2.939,2.9429,2.945,2.945,2.945,2.9431,2.9289,2.931,2.9411,2.9126,2.9209,2.9433,2.9353,2.9353,2.9353,2.9472,2.9394,2.9293,2.9373,2.9394,2.9395,2.9475,2.9455,2.9415,2.9569,2.9551,2.9251,2.839,2.8104,2.7761,2.6631,2.6225,2.6007,2.5841,2.5481,2.5506,2.6405,2.5953,2.5136,2.4204,2.4153,2.4339,2.4686,2.5315,2.5932,2.6437,2.664,2.6254,2.5057,2.5111,2.4694,2.352,2.3329,2.3372,2.3554,2.2886,2.2322,2.1844,2.1703,2.1608,2.1535,2.0999,2.0302,1.9461,1.8743,1.7529,2.7962,2.867,2.9409,3.1071,3.0929,3.0547,3.1096,3.0666,3.0109,2.9962,2.9784,2.9608,2.9511,2.949,2.949,2.949,2.949,2.949,2.949,2.949,2.949,2.949,2.949,2.9434,2.9285,2.9397,2.9435,2.9285,2.9416,2.9511,2.9511,2.9511,2.9511,2.9511,2.9493,2.9494,2.9494,2.9494,2.9589,2.9748,2.957,2.9589,2.9748,2.957,2.9472,2.9454,2.9493,2.9513,2.9532,2.9532,2.9532,2.9532,2.9532,2.9532,2.9532,2.957,2.9589,2.9589,2.9645,2.9664,2.9701,2.9719,2.9756,2.9773,2.9773,2.9773,2.979,2.9905,2.9839,2.9823,3.0114,3.008,2.9677,2.8605,2.8122,2.7565,2.6456,2.5835,2.5578,2.5986,2.5588,2.5424,2.6046,2.5666,2.5097,2.4579,2.5079,2.5781,2.6517,2.7324,2.8058,2.8721,2.8662,2.8,2.6589,2.6331,2.5631,2.4154,2.4133,2.4204,2.4271,2.4335,2.3945,2.3057,2.3101,2.3185,2.3268,2.3063,2.2464,2.1494,2.1166,1.9828,2.5729,2.7404,2.9321,3.0321,3.0475,3.0417,3.0521,3.0432,3.0299,3.0109,2.9962,2.9853,2.9836,2.982,2.982,2.982,2.982,2.982,2.982,2.982,2.982,2.982,2.982,2.9536,2.8782,2.9382,2.9547,2.885,2.9485,2.9915,2.9915,2.9915,2.9915,2.9915,2.9915,2.9915,2.9915,2.9915,2.9931,2.9962,2.9931,2.9931,2.9962,2.9931,2.9815,2.9661,2.9832,2.9834,2.9661,2.9661,2.9661,2.9661,2.9661,2.9661,2.9696,2.9861,2.9939,2.9943,2.9888,2.9934,3.0022,2.9905,2.995,3.0052,3.0052,3.0052,3.0052,3.0066,3.0066,3.0066,3.0169,3.0182,2.9767,2.8173,2.7772,2.7399,2.6132,2.6027,2.6124,2.596,2.6453,2.6695,2.6142,2.5993,2.6195,2.683,2.6786,2.6992,2.7853,2.8351,2.8806,2.9174,2.8496,2.7771,2.7134,2.6453,2.5684,2.4809,2.4841,2.4896,2.496,2.4992,2.4903,2.4767,2.4335,2.405,2.3875,2.3787,2.3406,2.2763,2.2705,2.1958,2.564,2.7535,2.9313,3.0179,3.0398,3.0398,3.0398,3.0398,3.0367,3.0299,3.0215,3.0118,2.9934,2.9902,2.9902,2.9902,2.9902,2.9902,2.9899,2.9899,2.9915,2.9946,2.9965,2.9608,2.8745,2.9,2.8867,2.804,2.8768,2.9269,2.9269,2.9726,2.9992,2.9992,2.9988,3.0003,3.0003,3.0003,3.0003,3.0003,3.0235,3.0285,3.0171,3.0285,3.0163,2.9877,2.9954,2.9973,2.9908,2.9908,2.9908,2.9908,2.9908,2.9908,2.9924,3.0032,3.0061,3.0047,3.0022,3.0052,3.0095,3.0022,3.0052,3.0109,3.0109,3.0109,3.0122,3.0196,3.019,3.0209,3.0378,3.037,2.9897,2.8298,2.792,2.7497,2.5965,2.5687,2.5677,2.5488,2.5862,2.6063,2.5635,2.5646,2.5996,2.6872,2.7272,2.7773,2.8645,2.9308,2.9569,2.9287,2.8864,2.8153,2.7022,2.6603,2.6051,2.5225,2.5243,2.5294,2.533,2.5356,2.5371,2.5377,2.5037,2.4819,2.472,2.4763,2.4536,2.4068,2.4109,2.3659,2.5696,2.7556,2.9042,2.9897,3.0252,3.0425,3.039,3.0398,3.041,3.039,3.0402,3.0323,3.0099,3.0041,3.0045,3.0045,3.0045,3.0026,3.0032,3.0032,3.0047,3.0109,3.0142,2.977,2.8907,2.9025,2.8701,2.763,2.8567,2.9104,2.8861,2.9467,2.9907,3.0136,2.9953,2.9914,3.0157,3.0157,3.0157,3.0157,3.0449,3.052,3.0389,3.053,3.0439,3.0157,3.0157,3.0144,3.0144,3.0144,3.0144,3.0144,3.0144,3.0144,3.0157,3.0203,3.0235,3.0216,3.0177,3.019,3.0216,3.0177,3.019,3.0228,3.0234,3.0227,3.0263,3.0365,3.0374,3.0374,3.0564,3.0552,3.0137,2.8782,2.8301,2.7653,2.5898,2.5434,2.5316,2.5232,2.5321,2.5398,2.5282,2.5383,2.5826,2.6915,2.7595,2.8372,2.9466,3.01,3.0208,2.9621,2.9159,2.8392,2.7149,2.6644,2.612,2.5488,2.5498,2.5531,2.5531,2.5574,2.5584,2.5545,2.5396,2.5333,2.5386,2.5447,2.5327,2.5026,2.5043,2.4805,2.5066,2.6819,2.8325,2.907,2.9883,3.0482,3.0414,3.0398,3.039,3.0406,3.0398,3.0417,3.0458,3.0433,3.0367,3.0367,3.0367,3.0379,3.0375,3.0375,3.0406,3.0458,3.0469,3.0141,2.9263,2.992,2.9728,2.8087,2.9535,3.0134,2.9303,2.9303,2.9728,3.054,2.9767,2.9728,3.0559,3.0559,3.0559,3.0559,3.0588,3.0598,3.0569,3.0598,3.0588,3.0559,3.0559,3.0471,3.0294,3.0294,3.0294,3.0294,3.0294,3.0294,3.0306,3.051,3.0559,3.055,3.0367,3.04,3.055,3.0348,3.0419,3.0559,3.0576,3.0579,3.0593,3.0653,3.0672,3.0676,3.0684,3.0687,3.0476,2.9628,2.8808,2.7727,2.596,2.5543,2.5485,2.5485,2.5488,2.5488,2.5488,2.5531,2.6171,2.7869,2.8162,2.8803,3.0501,3.0634,3.0574,3.054,2.9051,2.8023,2.795,2.647,2.5561,2.5598,2.558,2.5586,2.5583,2.5598,2.5545,2.5405,2.5396,2.546,2.5581,2.5464,2.5386,2.5366,2.5254,2.5175,2.4414,2.5962,2.7589,2.8939,2.9493,2.9857,3.0346,3.0462,3.0451,3.0409,3.0398,3.0428,3.0499,3.0488,3.0466,3.0466,3.0466,3.0458,3.046,3.0471,3.05,3.0569,3.055,3.0008,2.8579,2.8714,2.8182,2.6464,2.7428,2.7967,2.7658,2.8161,2.8606,2.8915,2.8625,2.8876,2.9766,3.0327,3.0598,3.0598,3.0598,3.0598,3.0598,3.0598,3.0595,3.0587,3.0587,3.0557,3.0491,3.0491,3.0491,3.0491,3.0491,3.0491,3.0491,3.0569,3.0595,3.0587,3.0516,3.0564,3.0639,3.0581,3.0607,3.0671,3.0656,3.0667,3.0677,3.0696,3.0693,3.0707,3.0693,3.0738,3.0545,2.9691,2.8418,2.7199,2.6562,2.5989,2.5559,2.5559,2.5559,2.5586,2.5618,2.5641,2.6248,2.7946,2.82,2.8823,3.0574,3.0762,3.0509,2.9952,2.8836,2.792,2.7399,2.6269,2.5585,2.5664,2.5533,2.5489,2.5527,2.5498,2.5401,2.5271,2.5266,2.533,2.5469,2.5429,2.5396,2.5396,2.5347,2.5332,2.3741,2.534,2.7206,2.859,2.8935,2.9208,3.0296,3.0311,3.0167,3.0442,3.0491,3.05,3.0565,3.0548,3.053,3.049,3.0499,3.049,3.0491,3.0491,3.053,3.0598,3.0598,3.0027,2.8588,2.8442,2.7716,2.597,2.6644,0.0,2.6721,2.7252,2.7561,2.7561,2.7851,2.8285,2.8857,2.9464,2.9771,2.9752,2.9757,2.9765,2.9765,2.9765,2.9756,2.979,3.0062,3.0367,3.0634,3.0634,3.0634,3.0634,3.0634,3.0634,3.0634,3.0634,3.0632,3.0633,3.0633,3.0661,3.0696,3.0696,3.0696,3.0704,3.0739,3.0726,3.0732,3.0762,3.0771,3.0757,3.0702,3.0527,3.0038,2.8865,2.7708,2.6782,2.6497,2.5986,2.5605,2.5605,2.5605,2.5605,2.5658,2.5652,2.6214,2.7915,2.8168,2.8797,3.0502,3.0736,3.0401,2.9533,2.865,2.7805,2.6971,2.6054,2.5559,2.56,2.5434,2.5331,2.5337,2.5263,2.5139,2.5038,2.5027,2.5075,2.5159,2.5178,2.5187,2.5197,2.5168,2.5159,0.0,0.0,0.0,2.7963,2.8166,2.8587,3.0169,2.9861,2.953,3.0467,3.0667,3.0672,3.0706,3.0645,3.0583,3.052,3.049,3.049,3.0491,3.0501,3.053,3.0598,3.0598,3.025,2.9379,2.9311,2.8595,2.6865,2.7492,2.7608,2.6749,2.6671,2.6671,2.6671,2.7511,2.7976,2.7976,2.8054,2.8107,2.8107,2.8101,2.8106,2.8106,2.8106,2.8126,2.8184,2.9046,2.9912,3.0715,3.0691,3.0711,3.0711,3.0711,3.0711,3.0711,3.0711,3.0691,3.0691,3.0691,3.07,3.0708,3.0708,3.0716,3.0729,3.0774,3.0797,3.0819,3.0873,3.0888,3.0862,3.0724,3.0047,2.8968,2.7284,2.6837,2.6578,2.5718,2.5561,2.5598,2.5598,2.5598,2.5598,2.5598,2.5537,2.6081,2.7809,2.8081,2.8683,3.0341,3.0552,3.0234,2.9394,2.8492,2.7617,2.6757,2.589,2.5372,2.5387,2.5263,2.5128,2.4989,2.4873,2.4762,2.4692,2.4692,2.4692,2.4692,2.4762,2.4793,2.478,2.4712,2.4692,2.327,0.0,0.0,0.0,0.0,0.0,2.8638,2.8688,2.8738,2.9596,2.9766,2.9946,3.0589,3.0677,3.0681,3.0652,3.0591,3.0559,3.0569,3.0569,3.0588,3.0598,3.0598,3.025,2.9379,2.935,2.8922,0.0,2.7406,2.7103,2.687,2.6242,2.5906,2.5906,2.6743,2.721,2.721,2.7804,2.8106,2.8106,2.8101,2.8106,2.8106,2.8106,2.8474,2.9127,2.9364,2.9982,3.0832,3.0735,3.0711,3.0711,3.0711,3.0711,3.0711,3.0711,3.0728,3.0771,3.0777,3.0808,3.0836,3.0839,3.0839,3.0859,3.0879,3.0877,3.0853,3.0788,3.0755,3.0739,3.0645,3.0011,2.9279,2.88,2.7672,2.6667,2.6428,2.5892,2.5473,2.5521,2.5526,2.5526,2.5526,2.5434,2.5735,2.6854,2.7516,2.8274,2.9369,2.9558,2.9497,2.9248,2.7795,2.6746,2.6505,2.5548,2.4981,2.5039,2.4898,2.4831,2.4841,2.478,2.4654,2.4493,2.4493,2.4444,2.4339,2.442,2.4447,2.4431,2.4225,2.4118,2.3781,2.4915,0.0,2.6872,0.0,0.0,2.8053,2.8247,2.8479,2.9305,2.977,3.0183,3.0696,3.0765,3.0735,3.0735,3.0689,3.0637,3.0637,3.0637,3.0637,3.0637,3.0637,3.0307,2.9433,2.9376,2.9049,2.8212,2.7716,2.7285,2.6911,2.6069,2.5601,2.5601,2.6085,2.6357,2.6357,2.6841,2.7101,2.7101,2.7095,2.71,2.71,2.7474,2.793,2.8509,2.9231,2.9841,3.0371,3.0671,3.0777,3.0777,3.0777,3.0777,3.0777,3.0777,3.0806,3.0836,3.0837,3.0879,3.0897,3.0894,3.0868,3.0821,3.0819,3.0804,3.0763,3.0672,3.0639,3.0529,3.011,2.94,2.8678,2.831,2.7147,2.6127,2.6127,2.5713,2.5382,2.5446,2.546,2.546,2.546,2.5324,2.5515,2.6391,2.686,2.7566,2.8739,2.8614,2.8395,2.8368,2.707,2.6053,2.5729,2.5124,2.4771,2.4815,2.4659,2.4588,2.4625,2.4439,2.4265,2.4155,2.4042,2.3903,2.3747,2.3983,2.4025,2.3929,2.3773,2.3653,2.4567,2.5741,0.0,2.6992,2.7051,0.0,2.787,2.8085,2.8358,2.914,2.9922,3.0488,3.0586,3.0563,3.0511,3.0511,3.0551,3.0603,3.0691,3.0711,3.0711,3.0711,3.0711,3.0399,2.962,2.9546,2.9258,2.854,2.8408,2.7924,2.6965,2.6181,2.5714,2.5613,2.5613,2.5613,2.5613,2.5661,2.5691,2.5691,2.5702,2.5703,2.5723,2.6504,2.6953,2.7226,2.8769,2.955,2.9785,3.0566,3.0898,3.0898,3.0898,3.0898,3.0898,3.0898,3.0898,3.0897,3.0876,3.0871,3.0886,3.0862,3.0801,3.0682,3.0682,3.0645,3.0593,3.0586,3.0535,3.0308,2.9535,2.8695,2.7832,2.7063,2.6217,2.5572,2.5562,2.5552,2.5582,2.5599,2.549,2.5401,2.5498,2.5262,2.5316,2.6098,2.626,2.6782,2.8118,2.7705,2.722,2.7081,2.6261,2.544,2.4732,2.466,2.4626,2.461,2.4424,2.4319,2.4283,2.3961,2.3774,2.3774,2.3522,2.3312,2.3095,2.3513,2.3584,2.3323,2.3323,2.323,2.5562,2.6139,2.6919,2.6929,2.7413,0.0,2.6403,2.6676,2.7218,2.7381,2.7557,2.7881,2.8603,2.8769,2.8788,2.8788,2.9373,3.0029,3.0622,3.0711,3.0711,3.0711,3.0711,3.0633,3.0457,3.0505,3.0462,3.0306,2.9698,2.863,2.7068,2.6814,2.6404,2.5701,2.5681,2.5681,2.5681,2.5683,2.5703,2.5703,2.5703,2.5703,2.5703,2.5879,2.6719,2.8066,2.8353,2.9264,3.0572,3.0687,3.0804,3.0898,3.0832,3.0855,3.0898,3.0849,3.085,3.0876,3.0774,3.0742,3.0719,3.0681,3.0639,3.0619,3.062,3.0607,3.0579,3.0527,3.0472,3.0386,3.0213,2.9528,2.8813,2.864,2.7986,2.7338,2.7185,2.7141,2.7116,2.6966,2.597,2.5382,2.6071,2.5424,2.4836,2.5005,2.6107,2.6791,2.6401,2.686,2.6949,2.6239,2.5286,2.4625,2.4459,2.4357,2.421,2.3981,2.3941,2.3821,2.3595,2.3526,2.3477,2.3477,2.3414,2.3312,2.3095,2.3199,2.3084,2.285,2.285,2.2825,2.624,2.6872,2.7535,2.7502,0.0,0.0,0.0,2.6591,2.7024,2.7452,2.755,2.7797,2.8636,2.8494,2.8247,2.8247,2.8626,2.9022,2.9392,3.0224,3.0801,3.0801,3.0801,3.0801,3.0801,3.0831,3.0855,3.0855,3.0077,2.9219,2.834,2.7461,2.6797,2.6367,2.5937,2.5703,2.5703,2.5703,2.5703,2.5703,2.5703,2.5703,2.5719,2.6129,2.7004,2.8264,2.8639,2.9549,3.0758,3.072,3.0735,3.0801,3.0765,3.0771,3.0799,3.0755,3.0774,3.0798,3.0682,3.0647,3.0642,3.0614,3.0579,3.0548,3.0552,3.0537,3.0492,3.0451,3.0436,3.0398,3.0398,2.9709,2.9008,2.9008,2.8275,2.7567,2.7466,2.7438,2.7557,2.7881,2.6631,2.5655,2.616,2.5351,2.4657,2.4657,2.5254,2.5689,2.5653,2.567,2.5651,2.5467,2.4634,2.4041,2.3906,2.384,2.3735,2.361,2.3588,2.3544,2.3414,2.3312,2.317,2.3049,2.3049,2.2993,2.2893,2.2893,2.279,2.2569,2.2569,2.2415,0.0,0.0,2.8101,0.0,0.0,2.8101,0.0,0.0,0.0,2.7556,2.7668,2.7872,2.853,2.8111,0.0,2.7694,0.0,0.0,0.0,2.9326,0.0,3.0625,3.0644,3.0723,3.0879,3.0742,3.0723,3.0898,3.0098,2.9609,2.9609,2.8262,2.7344,2.7012,2.6328,2.5879,2.5703,2.5703,2.5703,2.5703,2.5703,2.5698,2.5701,2.6344,2.7228,2.8247,2.8866,2.9723,3.0672,3.0681,3.0656,3.0656,3.0686,3.0682,3.0706,3.0695,3.0684,3.0697,3.0607,3.0586,3.0591,3.0576,3.0518,3.0492,3.0492,3.0439,3.0398,3.0355,3.0343,3.0343,3.0318,2.9691,2.9079,2.9079,2.8426,2.7793,2.7762,2.7746,2.7935,2.8617,2.7445,2.6324,2.6295,2.5324,2.4561,2.4543,2.454,2.4783,2.5427,2.4963,2.4752,2.5176,2.4458,2.3884,2.3647,2.3481,2.3369,2.3341,2.3341,2.3318,2.3271,2.3109,2.2902,2.2632,2.2632,2.2605,2.2561,2.2561,2.2497,2.2405,2.2405,2.2163,0.0,0.0,0.0,0.0,2.8031,0.0,0.0,0.0,2.6541,2.5867,0.0,2.5828,0.0,0.0,0.0,0.0,0.0,0.0,2.6952,2.7799,2.8746,2.9643,2.9745,3.0058,3.0839,3.0195,3.0078,3.084,3.0098,2.9609,2.9609,2.9414,2.8594,2.7051,2.6894,2.6484,2.5703,2.5703,2.5702,2.5691,2.5691,2.5679,2.5609,2.5707,2.6638,2.8208,2.8235,2.9149,3.06,3.0546,3.052,3.053,3.0591,3.0645,3.0682,3.0625,3.0651,3.0691,3.0563,3.0519,3.0501,3.0439,3.0414,3.0402,3.0402,3.041,3.0367,3.0182,3.0136,3.0109,2.9996,2.9858,2.9785,2.9785,2.9693,2.9569,2.938,2.9344,2.9345,2.9322,2.8517,2.768,2.7095,2.5554,2.4393,2.4339,2.4931,2.541,2.55,2.5774,2.6,2.6054,2.5147,2.4504,2.4456,2.382,2.3318,2.3151,2.3126,2.3028,2.2799,2.2764,2.2632,2.2432,2.2432,2.2332,2.2084,2.2084,2.2186,2.2405,2.2405,2.2231,0.0,0.0,0.0,0.0,0.0,0.0,2.6431,0.0,2.5989,0.0,0.0,0.0,0.0,0.0,0.0,0.0,2.579,0.0,0.0,0.0,2.7113,0.0,0.0,0.0,3.0708,3.0076,2.9961,3.082,3.0098,2.9824,3.0332,2.9841,2.8977,2.7748,2.721,2.652,2.5642,2.5642,2.5637,2.5645,2.5645,2.5605,2.5537,2.5537,2.6201,2.733,2.7295,2.7978,2.9085,2.9052,2.9023,2.8994,2.9012,2.9663,3.0587,3.052,3.052,3.0576,3.0481,3.0439,3.0428,3.0279,3.0228,3.0196,3.0133,3.0118,3.0085,3.0011,2.9977,2.9962,2.9918,2.982,2.9734,2.9734,2.9663,2.9589,2.9492,2.9472,2.9471,2.9427,2.87,2.8013,2.7735,2.6463,2.5324,2.4846,2.5263,2.5457,2.5023,2.5523,2.5864,2.5681,2.5252,2.4971,2.483,2.4532,2.4095,2.3528,2.351,2.3267,2.2729,2.3007,2.2914,2.2422,2.2248,2.2101,2.1998,2.1998,2.2015,2.1991,2.1991,2.1857,2.6199,0.0,0.0,0.0,0.0,0.0,0.0,0.0,0.0,0.0,0.0,0.0,0.0,0.0,0.0,0.0,0.0,2.5461,0.0,2.5446,0.0,0.0,0.0,0.0,0.0,2.9767,2.9641,3.0754,0.0,2.9682,3.0795,3.0196,2.9422,2.8566,2.7698,2.6844,2.5968,2.5718,2.5593,2.5561,2.5561,2.5556,2.5493,2.5493,2.595,2.6702,2.6702,2.7196,2.8009,2.7981,2.7943,2.7904,2.7894,2.8666,2.9776,2.9693,2.9825,3.0048,2.9953,3.0069,3.0247,3.008,3.0052,3.0022,2.9934,2.9902,2.9886,2.9836,2.982,2.982,2.9769,2.9644,2.9551,2.9551,2.9471,2.9407,2.9407,2.9407,2.9386,2.9344,2.8804,2.8336,2.8224,2.7193,2.6147,2.5499,2.5584,2.564,2.5276,2.562,2.5915,2.5953,2.5694,2.5466,2.5298,2.5126,2.4632,2.3755,2.3704,2.3333,2.2542,2.3277,2.3211,2.2225,2.2216,2.2082,2.1794,2.1794,2.1721,2.1587,2.1664,2.1573,0.0,0.0,0.0,2.5609,0.0,0.0,0.0,0.0,2.5931,0.0,0.0,0.0,0.0,0.0,0.0,0.0,0.0,0.0,0.0,0.0,0.0,0.0,0.0,0.0,0.0,2.9104,2.8861,0.0,2.9182,2.8977,3.0618,3.0672,3.0263,2.9381,2.8582,2.774,2.6879,2.6026,2.558,2.5504,2.5504,2.5512,2.5492,2.5492,2.5936,2.6702,2.6702,2.7196,2.799,2.7923,2.7904,2.7903,2.7911,2.793,2.797,2.7842,2.8293,2.8945,2.8802,2.9254,2.9918,2.9902,2.9902,2.9902,2.9902,2.9902,2.9853,2.9644,2.9608,2.957,2.945,2.9407,2.9407,2.9407,2.9407,2.9407,2.9407,2.9407,2.9326,2.9152,2.9089,2.892,2.8558,2.7383,2.6417,2.6204,2.6015,2.6126,2.6756,2.6629,2.6777,2.7543,2.67,2.6074,2.6074,2.5419,2.4574,2.3573,2.3447,2.2975,2.2044,2.3407,2.3414,2.1741,2.2337,2.2228,2.1309,2.1309,2.1309,2.1309,2.1587,2.1573,0.0,0.0,2.5804,2.5388,0.0,0.0,0.0,0.0,0.0,0.0,0.0,0.0,0.0,0.0,0.0,0.0,0.0,0.0,0.0,0.0,0.0,0.0,0.0,0.0,0.0,0.0,0.0,0.0,2.8812,0.0,3.0613,3.0656,3.0244,2.9427,2.9091,2.8512,2.7639,2.6766,2.6326,2.6285,2.5742,2.5495,2.5511,2.5511,2.5646,2.5917,2.5917,2.6047,2.6264,2.615,2.6098,2.6082,2.6549,2.6702,2.6785,2.7408,2.816,2.897,2.9357,2.9674,2.9886,2.9732,2.9716,2.9681,2.9608,2.957,2.9551,2.9491,2.9471,2.9451,2.9409,2.9407,2.9407,2.9407,2.9283,2.9197,2.9197,2.9089,2.898,2.891,2.891,2.8821,2.854,2.8055,2.7407,2.6587,2.6679,2.6714,2.6406,2.677,2.7143,2.7417,2.7103,2.6885,2.6885,2.6178,2.5596,2.5232,2.5033,2.4571,2.3765,2.4329,2.4183,2.3111,2.3194,2.2834,2.2037,2.2037,2.1778,2.1309,2.1371,2.1388,2.5511,2.5476,0.0,2.5293,2.5225,0.0,2.4987,0.0,2.5849,0.0,0.0,0.0,0.0,0.0,0.0,0.0,0.0,0.0,0.0,2.5456,0.0,0.0,0.0,0.0,0.0,2.7888,2.8197,2.968,2.8735,0.0,0.0,0.0,3.0327,2.9838,2.9472,2.9031,2.847,2.76,2.702,2.6683,2.616,2.5782,2.5511,2.5511,2.5468,2.5395,2.5412,2.535,2.5224,2.519,2.5275,2.5495,2.592,2.6275,2.6597,2.7201,2.7922,2.8711,2.9449,2.9717,2.9699,2.957,2.9513,2.9512,2.9429,2.9407,2.9407,2.9407,2.9407,2.9407,2.9407,2.9407,2.9407,2.9407,2.924,2.9089,2.9089,2.8934,2.8791,2.8718,2.8651,2.8551,2.8246,2.811,2.7791,2.7137,2.7213,2.7155,2.6592,2.686,2.7137,2.7137,2.704,2.6975,2.6975,2.6258,2.5783,2.5671,2.5527,2.5045,2.4243,2.4809,2.4685,2.3719,2.3793,2.3479,2.2782,2.2782,2.241,2.1697,2.1697,2.1568]}]]